[[{"header":{"parameterUnit":"m.s-1","parameterCategory":1,"la1":30.6,"la2":29.2853,"lo1":-89.7004,"lo2":-87.6739,"dy":0.0162,"dx":0.0183,"nx":112,"ny":82,"refTime":"2023-05-27T06:00:00:Z","depth":0,"parameterNumber":2,"parameterNumberName":"U-component_of_WINDS"},"data":[0.0,0.0,0.0,0.0,0.0,0.0,0.0,0.0,0.0,0.0,0.0,0.0,0.0,0.0,0.0,0.0,0.0,0.0,0.0,0.0,0.0,0.0,0.0,0.0,0.0,0.0,0.0,0.0,0.0,0.0,0.0,0.0,0.0,0.0,0.0,0.0,0.0,0.0,0.0,0.0,0.0,0.0,0.0,0.0,0.0,0.0,0.0,0.0,0.0,0.0,0.0,0.0,0.0,0.0,0.0,0.0,0.0,0.0,0.0,0.0,0.0,0.0,0.0,0.0,0.0,0.0,0.0,0.0,0.0,0.0,0.0,0.0,0.0,0.0,0.0,0.0,0.0,0.0,0.0,0.0,0.0,0.0,0.0,0.0,0.0,0.0,0.0,0.0,0.0,0.0,-0.9726,-1.0676,-1.3094,-1.4614,-1.4598,-1.4355,-1.3351,-1.1179,0.0,0.0,0.0,0.0,0.0,0.0,0.0,0.0,0.0,0.0,0.0,0.0,0.0,0.0,0.0,0.0,0.0,0.0,0.0,0.0,0.0,0.0,0.0,0.0,0.0,0.0,0.0,0.0,0.0,0.0,0.0,0.0,0.0,0.0,0.0,0.0,0.0,0.0,0.0,0.0,0.0,0.0,0.0,0.0,0.0,0.0,0.0,0.0,0.0,0.0,0.0,0.0,0.0,0.0,0.0,0.0,0.0,0.0,0.0,0.0,0.0,0.0,0.0,0.0,0.0,0.0,0.0,0.0,0.0,0.0,0.0,0.0,0.0,0.0,0.0,0.0,0.0,0.0,0.0,0.0,0.0,0.0,0.0,0.0,0.0,0.0,0.0,0.0,0.0,0.0,0.0,0.0,0.0,0.0,0.0,0.0,0.0,0.0,0.0,0.0,0.0,0.0,0.0,0.0,-1.3424,-1.5952,-1.6665,-1.6857,-1.6623,-1.5342,-1.4053,-1.2933,0.0,0.0,0.0,0.0,0.0,0.0,0.0,0.0,0.0,0.0,0.0,0.0,0.0,0.0,0.0,0.0,0.0,0.0,0.0,0.0,0.0,0.0,0.0,0.0,0.0,0.0,0.0,0.0,0.0,0.0,0.0,0.0,0.0,0.0,0.0,0.0,0.0,0.0,0.0,0.0,0.0,0.0,0.0,0.0,0.0,0.0,0.0,0.0,0.0,0.0,0.0,0.0,0.0,0.0,0.0,0.0,0.0,0.0,0.0,0.0,0.0,0.0,0.0,0.0,0.0,0.0,0.0,0.0,0.0,0.0,0.0,0.0,0.0,0.0,0.0,0.0,0.0,0.0,0.0,0.0,0.0,0.0,0.0,0.0,0.0,0.0,0.0,0.0,0.0,0.0,0.0,0.0,0.0,0.0,0.0,0.0,0.0,0.0,0.0,0.0,0.0,0.0,0.0,-1.3868,-1.6074,-1.7968,-1.8177,-1.8208,-1.8111,-1.7224,-1.5875,-1.3939,-1.3035,0.0,0.0,0.0,0.0,0.0,0.0,0.0,0.0,0.0,0.0,0.0,0.0,0.0,0.0,0.0,0.0,0.0,0.0,0.0,0.0,0.0,0.0,0.0,0.0,0.0,0.0,0.0,0.0,0.0,0.0,0.0,0.0,0.0,0.0,0.0,0.0,0.0,0.0,0.0,0.0,0.0,0.0,0.0,0.0,0.0,0.0,0.0,0.0,0.0,0.0,0.0,0.0,0.0,0.0,0.0,0.0,0.0,0.0,0.0,0.0,0.0,0.0,0.0,0.0,0.0,0.0,0.0,0.0,0.0,0.0,0.0,0.0,0.0,0.0,0.0,0.0,0.0,0.0,0.0,0.0,0.0,0.0,0.0,0.0,0.0,0.0,0.0,0.0,0.0,0.0,0.0,0.0,0.0,0.0,0.0,0.0,0.0,0.0,0.0,0.0,0.0,0.0,-1.7014,-1.8331,-1.9307,-1.9574,-1.962,-1.9603,-1.9029,-1.7703,-1.5427,-1.4908,0.0,0.0,0.0,0.0,0.0,0.0,0.0,0.0,0.0,0.0,0.0,0.0,0.0,0.0,0.0,0.0,0.0,0.0,0.0,0.0,0.0,0.0,0.0,0.0,0.0,0.0,0.0,0.0,0.0,0.0,0.0,0.0,0.0,0.0,0.0,0.0,0.0,0.0,0.0,0.0,0.0,0.0,0.0,0.0,0.0,0.0,0.0,0.0,0.0,0.0,0.0,0.0,0.0,0.0,0.0,0.0,0.0,0.0,0.0,0.0,0.0,0.0,0.0,0.0,0.0,0.0,0.0,0.0,0.0,0.0,0.0,0.0,0.0,0.0,0.0,0.0,0.0,0.0,0.0,0.0,0.0,0.0,0.0,0.0,0.0,0.0,0.0,0.0,0.0,0.0,0.0,0.0,0.0,0.0,0.0,0.0,0.0,0.0,0.0,0.0,0.0,0.0,-1.9164,-2.0358,-2.1032,-2.1579,-2.1832,-2.1606,-2.0408,-1.9349,-1.845,-1.6233,0.0,0.0,0.0,0.0,0.0,0.0,0.0,0.0,0.0,0.0,0.0,0.0,0.0,0.0,0.0,0.0,0.0,0.0,0.0,0.0,0.0,0.0,0.0,0.0,0.0,0.0,0.0,0.0,0.0,0.0,0.0,0.0,0.0,0.0,0.0,0.0,0.0,0.0,0.0,0.0,0.0,0.0,0.0,0.0,0.0,0.0,0.0,0.0,0.0,0.0,0.0,0.0,0.0,0.0,0.0,0.0,0.0,0.0,0.0,0.0,0.0,0.0,0.0,0.0,0.0,0.0,0.0,0.0,0.0,0.0,0.0,0.0,0.0,0.0,0.0,0.0,0.0,0.0,0.0,0.0,0.0,0.0,0.0,0.0,0.0,0.0,0.0,0.0,0.0,0.0,0.0,0.0,0.0,0.0,0.0,0.0,0.0,0.0,0.0,0.0,0.0,0.0,-2.0467,-2.2024,-2.1965,-2.2401,-2.2616,-2.2468,-2.165,-2.0471,-1.8814,0.0,0.0,0.0,0.0,0.0,0.0,0.0,0.0,0.0,0.0,0.0,0.0,0.0,0.0,0.0,0.0,0.0,0.0,0.0,0.0,0.0,0.0,0.0,0.0,0.0,0.0,0.0,0.0,0.0,0.0,0.0,0.0,0.0,0.0,0.0,0.0,0.0,0.0,0.0,0.0,0.0,0.0,0.0,0.0,0.0,0.0,0.0,0.0,0.0,0.0,0.0,0.0,0.0,0.0,0.0,0.0,0.0,0.0,0.0,0.0,0.0,0.0,0.0,0.0,0.0,0.0,0.0,0.0,0.0,0.0,0.0,0.0,0.0,0.0,0.0,0.0,0.0,0.0,0.0,0.0,0.0,0.0,0.0,0.0,0.0,0.0,0.0,0.0,0.0,0.0,0.0,0.0,0.0,0.0,0.0,0.0,0.0,0.0,0.0,0.0,0.0,0.0,-1.9019,-2.1445,-2.2963,-2.2705,-2.3102,-2.3276,-2.2822,-2.2262,-2.1083,-1.9122,0.0,0.0,0.0,0.0,0.0,0.0,0.0,0.0,0.0,0.0,0.0,0.0,0.0,0.0,0.0,0.0,0.0,0.0,0.0,0.0,0.0,0.0,0.0,0.0,0.0,0.0,0.0,0.0,0.0,0.0,0.0,0.0,0.0,0.0,0.0,0.0,0.0,0.0,0.0,0.0,0.0,0.0,0.0,0.0,0.0,0.0,0.0,0.0,0.0,0.0,0.0,0.0,0.0,0.0,0.0,0.0,0.0,0.0,0.0,0.0,0.0,0.0,0.0,0.0,0.0,0.0,0.0,0.0,0.0,0.0,0.0,0.0,0.0,0.0,0.0,0.0,0.0,0.0,0.0,0.0,0.0,0.0,0.0,0.0,0.0,0.0,0.0,0.0,0.0,0.0,0.0,0.0,0.0,0.0,0.0,0.0,0.0,0.0,0.0,0.0,0.0,0.0,-2.0546,-2.2101,-2.3114,-2.3198,-2.3722,-2.3768,-2.2894,-2.2266,-2.1262,0.0,0.0,0.0,0.0,0.0,0.0,0.0,0.0,0.0,0.0,0.0,0.0,0.0,0.0,0.0,0.0,0.0,0.0,0.0,0.0,0.0,0.0,0.0,0.0,0.0,0.0,0.0,0.0,0.0,0.0,0.0,0.0,0.0,0.0,0.0,0.0,0.0,0.0,0.0,0.0,0.0,0.0,0.0,0.0,0.0,0.0,0.0,0.0,0.0,0.0,0.0,0.0,0.0,0.0,0.0,0.0,0.0,0.0,0.0,0.0,0.0,0.0,0.0,0.0,0.0,0.0,0.0,0.0,0.0,0.0,0.0,0.0,0.0,0.0,0.0,0.0,0.0,0.0,0.0,0.0,0.0,0.0,0.0,0.0,0.0,0.0,0.0,0.0,0.0,0.0,0.0,0.0,0.0,0.0,0.0,0.0,0.0,0.0,0.0,0.0,0.0,0.0,0.0,-2.1225,-2.2757,-2.3807,-2.382,-2.4015,-2.3752,-2.2903,-2.2479,-2.1555,-1.9692,0.0,0.0,0.0,0.0,0.0,0.0,0.0,0.0,0.0,0.0,0.0,0.0,0.0,0.0,0.0,0.0,0.0,0.0,0.0,0.0,0.0,0.0,0.0,0.0,0.0,0.0,0.0,0.0,0.0,0.0,0.0,0.0,0.0,0.0,0.0,0.0,0.0,0.0,0.0,0.0,0.0,0.0,0.0,0.0,0.0,0.0,0.0,0.0,0.0,0.0,0.0,0.0,0.0,0.0,0.0,0.0,0.0,0.0,0.0,0.0,0.0,0.0,0.0,0.0,0.0,0.0,0.0,0.0,0.0,0.0,0.0,0.0,0.0,0.0,0.0,0.0,0.0,0.0,0.0,0.0,0.0,0.0,0.0,0.0,0.0,0.0,0.0,0.0,0.0,0.0,0.0,0.0,0.0,0.0,0.0,0.0,0.0,0.0,0.0,0.0,0.0,0.0,-2.1843,-2.3153,-2.4112,-2.4112,-2.4112,-2.3684,-2.2621,-2.2266,-2.1261,-1.9148,0.0,0.0,0.0,0.0,0.0,0.0,0.0,0.0,0.0,0.0,0.0,0.0,0.0,0.0,0.0,0.0,0.0,0.0,0.0,0.0,0.0,0.0,0.0,0.0,0.0,0.0,0.0,0.0,0.0,0.0,0.0,0.0,0.0,0.0,0.0,0.0,0.0,0.0,0.0,0.0,0.0,0.0,0.0,0.0,0.0,0.0,0.0,0.0,0.0,0.0,0.0,0.0,0.0,0.0,0.0,0.0,0.0,0.0,0.0,0.0,0.0,0.0,0.0,0.0,0.0,0.0,0.0,0.0,0.0,0.0,0.0,0.0,0.0,0.0,0.0,0.0,0.0,0.0,0.0,0.0,0.0,0.0,0.0,0.0,0.0,0.0,0.0,0.0,0.0,0.0,0.0,0.0,0.0,0.0,0.0,0.0,0.0,0.0,0.0,0.0,0.0,0.0,-2.2463,-2.3459,-2.4112,-2.4112,-2.4112,-2.3556,-2.2286,-2.1865,-2.0676,-1.8427,0.0,0.0,0.0,0.0,0.0,0.0,0.0,0.0,0.0,0.0,0.0,0.0,0.0,0.0,0.0,0.0,0.0,0.0,0.0,0.0,0.0,0.0,0.0,0.0,0.0,0.0,0.0,0.0,0.0,0.0,0.0,0.0,0.0,0.0,0.0,0.0,0.0,0.0,0.0,0.0,0.0,0.0,0.0,0.0,0.0,0.0,0.0,0.0,0.0,0.0,0.0,0.0,0.0,0.0,0.0,0.0,0.0,0.0,0.0,0.0,-2.402,-2.2925,0.0,0.0,0.0,0.0,0.0,0.0,0.0,0.0,0.0,0.0,0.0,0.0,0.0,0.0,0.0,0.0,0.0,0.0,0.0,0.0,0.0,0.0,0.0,0.0,0.0,0.0,0.0,0.0,0.0,0.0,0.0,0.0,0.0,0.0,0.0,0.0,0.0,0.0,0.0,0.0,-2.3681,-2.3955,-2.4112,-2.4112,-2.4112,-2.3793,-2.2967,-2.2237,-2.1046,-1.9108,-1.8179,0.0,0.0,0.0,0.0,0.0,0.0,0.0,0.0,0.0,0.0,0.0,0.0,0.0,0.0,0.0,0.0,0.0,0.0,0.0,0.0,0.0,0.0,0.0,0.0,0.0,0.0,0.0,0.0,0.0,0.0,0.0,0.0,0.0,0.0,0.0,0.0,0.0,0.0,0.0,0.0,0.0,0.0,0.0,0.0,0.0,0.0,0.0,0.0,0.0,0.0,0.0,0.0,0.0,0.0,0.0,0.0,0.0,0.0,0.0,-2.6458,-2.5299,0.0,0.0,0.0,0.0,0.0,0.0,0.0,0.0,0.0,0.0,0.0,0.0,0.0,0.0,0.0,0.0,0.0,0.0,0.0,0.0,0.0,0.0,0.0,0.0,0.0,0.0,0.0,0.0,0.0,0.0,0.0,0.0,0.0,0.0,0.0,0.0,0.0,0.0,0.0,0.0,-2.372,-2.4178,-2.4426,-2.4151,-2.4112,-2.3675,-2.2713,-2.2113,-2.0862,-1.883,-1.8201,0.0,0.0,0.0,0.0,0.0,0.0,0.0,0.0,0.0,0.0,0.0,0.0,0.0,0.0,0.0,0.0,0.0,0.0,0.0,0.0,0.0,0.0,0.0,0.0,0.0,0.0,0.0,0.0,0.0,0.0,0.0,0.0,0.0,0.0,0.0,0.0,0.0,0.0,0.0,0.0,0.0,0.0,0.0,0.0,0.0,0.0,0.0,0.0,0.0,0.0,0.0,0.0,0.0,-2.843,-2.8923,-2.9274,-2.9255,-2.9845,-3.0787,-2.8979,-2.7795,-2.7245,-2.6577,0.0,0.0,0.0,0.0,0.0,0.0,0.0,0.0,0.0,0.0,0.0,0.0,0.0,0.0,0.0,0.0,0.0,0.0,0.0,0.0,0.0,0.0,0.0,0.0,-2.1147,-2.1513,-1.9695,0.0,0.0,0.0,0.0,0.0,0.0,0.0,0.0,0.0,0.0,0.0,-2.3629,-2.4282,-2.4635,-2.4164,-2.4112,-2.3616,-2.2347,-2.1865,-2.071,-1.8657,-1.8081,-1.7161,0.0,0.0,0.0,0.0,0.0,0.0,0.0,0.0,0.0,0.0,0.0,0.0,0.0,0.0,0.0,0.0,0.0,0.0,0.0,0.0,0.0,0.0,0.0,0.0,0.0,0.0,0.0,0.0,0.0,0.0,0.0,0.0,-1.4123,-1.6147,0.0,0.0,0.0,0.0,0.0,0.0,0.0,0.0,0.0,0.0,0.0,0.0,0.0,-2.9015,-2.9043,-3.0266,-3.0931,-3.0912,-3.1608,-3.191,-3.2003,-3.1895,-3.2192,-3.2807,-3.2423,0.0,-2.9934,-2.897,0.0,0.0,0.0,0.0,0.0,0.0,0.0,0.0,0.0,0.0,0.0,0.0,0.0,0.0,0.0,0.0,0.0,0.0,0.0,0.0,0.0,0.0,-2.0946,-2.0946,-2.1522,-2.2005,0.0,-2.2188,-2.2693,-2.2648,-2.2452,0.0,0.0,0.0,0.0,0.0,0.0,0.0,-2.4687,-2.4439,-2.4204,-2.4125,-2.4112,-2.3793,-2.3027,-2.2113,-2.1047,-1.9784,-1.8838,-1.8204,-1.794,-1.6424,0.0,0.0,0.0,0.0,0.0,0.0,0.0,0.0,0.0,0.0,0.0,0.0,0.0,0.0,0.0,0.0,0.0,0.0,0.0,0.0,0.0,0.0,0.0,0.0,0.0,0.0,0.0,0.0,0.0,-1.601,-1.8839,-1.9585,-2.1173,-2.2105,0.0,0.0,0.0,0.0,0.0,0.0,0.0,0.0,0.0,-2.8886,-2.977,-3.0352,-3.0671,-3.1936,-3.2402,-3.2082,-3.2707,-3.2824,-3.2489,-3.2443,-3.2705,-3.3143,-3.2834,-3.2225,-3.1387,-3.0672,-2.9496,-2.8068,0.0,0.0,0.0,0.0,-2.2466,-2.2043,-2.2038,-2.1549,-2.0984,-2.1206,0.0,0.0,0.0,0.0,0.0,0.0,0.0,-2.2868,0.0,0.0,-2.242,-2.1818,-2.2433,-2.3156,-2.3194,-2.3682,-2.3966,0.0,-2.3521,-2.3838,-2.3882,0.0,0.0,0.0,0.0,-2.4936,-2.4543,-2.4557,-2.4478,-2.4151,-2.3734,-2.3292,-2.2592,-2.1753,-2.0653,-1.9408,-1.8829,-1.8317,-1.778,-1.7019,-1.6337,0.0,0.0,0.0,0.0,0.0,0.0,0.0,0.0,0.0,0.0,0.0,0.0,0.0,0.0,0.0,0.0,0.0,0.0,0.0,0.0,0.0,0.0,0.0,0.0,0.0,0.0,0.0,0.0,-2.0301,-2.2641,-2.298,-2.4585,-2.5437,0.0,0.0,0.0,0.0,0.0,0.0,-2.9592,-2.9625,-2.9997,-3.0835,-3.1338,-3.1827,-3.2269,-3.3568,-3.3878,-3.3258,-3.3893,-3.3952,-3.3495,-3.3466,-3.3506,-3.3478,-3.3002,-3.2499,-3.1938,-3.1342,-3.0453,-2.9162,-2.7451,-2.6671,-2.6377,-2.5018,-2.4172,-2.3741,-2.3902,-2.3546,-2.3018,-2.3071,-2.3116,-2.2921,-2.2239,0.0,0.0,0.0,0.0,-2.4699,-2.3935,-2.3644,-2.3347,-2.2567,-2.3238,-2.4029,-2.4035,-2.4438,-2.4541,0.0,-2.4232,-2.4753,-2.4753,0.0,0.0,0.0,-2.5458,-2.5458,-2.4465,-2.47,-2.4679,-2.3916,-2.3412,-2.2774,-2.1928,-2.1262,-2.0351,-1.9169,-1.8966,-1.8503,-1.782,-1.7546,-1.6873,-1.5659,0.0,0.0,0.0,0.0,0.0,0.0,0.0,0.0,0.0,0.0,0.0,0.0,0.0,0.0,0.0,0.0,0.0,0.0,0.0,0.0,0.0,0.0,0.0,0.0,0.0,0.0,0.0,0.0,0.0,-2.5516,-2.6938,0.0,0.0,0.0,0.0,-2.9454,-3.0491,-3.1454,-3.2143,-3.2086,-3.2716,-3.4186,-3.4294,-3.4324,-3.4355,-3.5692,-3.603,-3.5369,-3.6045,-3.6352,-3.6275,-3.615,-3.5444,-3.4274,-3.4073,-3.3012,-3.13,-3.073,-3.039,-3.0132,-2.7996,-2.7527,-2.7747,-2.5715,-2.5286,-2.5611,-2.5122,-2.4927,-2.5019,-2.5257,-2.5228,-2.511,-2.5063,-2.5133,0.0,0.0,-2.4518,-2.3749,-2.3688,-2.344,-2.309,-2.3088,-2.3616,-2.408,-2.4093,-2.4093,-2.4308,0.0,-2.4504,-2.4164,-2.4164,0.0,-2.5022,-2.5022,-2.5458,-2.5615,-2.5001,-2.5009,-2.4546,-2.3271,-2.3148,-2.2592,-2.125,-2.1019,-2.0506,-1.9639,-1.9375,-1.9177,-1.9034,-1.8345,-1.759,-1.6835,-1.5428,0.0,0.0,0.0,0.0,0.0,0.0,0.0,0.0,0.0,0.0,0.0,0.0,0.0,0.0,0.0,0.0,0.0,0.0,0.0,0.0,0.0,0.0,0.0,0.0,0.0,0.0,0.0,0.0,-2.7676,-2.9924,0.0,-3.1129,-3.1883,-3.2692,-3.33,-3.3707,-3.4194,-3.4872,-3.4856,-3.5064,-3.5616,-3.5717,-3.5739,-3.5739,-3.6259,-3.6368,-3.6122,-3.5938,-3.5845,-3.5845,-3.4906,-3.3972,-3.3014,-3.2184,-3.1221,-3.0079,-2.9482,-2.9699,-3.0255,-2.9121,-2.8786,-2.8771,-2.6947,-2.6252,-2.6032,-2.517,-2.4671,-2.4434,-2.4413,-2.408,-2.3694,-2.3694,-2.4037,-2.4431,-2.4431,-2.473,-2.5001,-2.4645,-2.4448,-2.4232,-2.3824,-2.3923,-2.4112,-2.4112,-2.4112,-2.4282,-2.4857,-2.4805,-2.4779,-2.5145,-2.538,-2.5641,-2.6007,-2.5929,-2.5558,-2.4899,-2.4555,-2.399,-2.302,-2.2255,-2.1616,-2.1123,-2.0635,-2.0205,-1.9802,-1.9605,-1.9407,-1.9208,-1.8452,-1.7619,-1.6932,-1.5657,-1.4656,0.0,0.0,0.0,0.0,0.0,0.0,0.0,0.0,0.0,0.0,0.0,0.0,0.0,0.0,0.0,0.0,0.0,0.0,0.0,0.0,0.0,0.0,0.0,0.0,0.0,-2.7484,-2.9454,-2.9696,-3.1911,-3.3472,-3.3588,-3.4343,-3.5054,-3.5774,-3.6158,-3.6489,-3.6747,-3.6672,-3.6754,-3.7031,-3.663,-3.65,-3.6722,-3.6552,-3.6492,-3.6476,-3.5814,-3.5476,-3.546,-3.4137,-3.2998,-3.2077,-3.1027,-3.0053,-2.9157,-2.875,-2.9075,-2.9754,-2.9333,-2.9306,-2.9334,-2.7585,-2.696,-2.6705,-2.5664,-2.4961,-2.4615,-2.4455,-2.4161,-2.3813,-2.3813,-2.4205,-2.4619,-2.4619,-2.5071,-2.5445,-2.5066,-2.4831,-2.4596,-2.4217,-2.4112,-2.4112,-2.4112,-2.4112,-2.4171,-2.4343,-2.4697,-2.5145,-2.572,-2.5981,-2.6166,-2.6271,-2.6116,-2.5664,-2.4744,-2.4171,-2.356,-2.2598,-2.1678,-2.1008,-2.0752,-2.0335,-2.0009,-1.9933,-1.9736,-1.9473,-1.9285,-1.8592,-1.7772,-1.6941,-1.5515,-1.4517,-1.3934,0.0,0.0,0.0,0.0,0.0,0.0,0.0,0.0,0.0,0.0,0.0,0.0,0.0,0.0,0.0,0.0,0.0,0.0,0.0,0.0,0.0,0.0,0.0,-2.7358,-2.8606,-3.0018,-3.1564,-3.2783,-3.3898,-3.5017,-3.6122,-3.6807,-3.6818,-3.7838,-3.8255,-3.7821,-3.7552,-3.7731,-3.8525,-3.7166,-3.6764,-3.7401,-3.6799,-3.6445,-3.6445,-3.5753,-3.5414,-3.5399,-3.4,-3.2716,-3.1438,-3.0828,-2.9803,-2.8587,-2.8587,-2.8587,-2.8587,-2.8587,-2.894,-2.9241,-2.7559,-2.7271,-2.7512,-2.6452,-2.582,-2.5545,-2.5506,-2.5582,-2.5683,-2.5683,-2.5759,-2.5772,-2.5772,-2.5367,-2.4996,-2.4996,-2.453,-2.4112,-2.4112,-2.4054,-2.4054,-2.4054,-2.4054,-2.3865,-2.3233,-2.4077,-2.511,-2.5657,-2.6244,-2.6414,-2.5586,-2.5995,0.0,-2.4566,-2.397,-2.3167,-2.1927,-2.138,-2.0839,-2.0151,-2.0085,-2.0009,-1.9933,-1.9671,-1.9473,-1.9351,-1.8715,-1.79,-1.6872,-1.5049,-1.395,-1.36,0.0,0.0,0.0,0.0,0.0,0.0,0.0,0.0,0.0,0.0,0.0,0.0,0.0,0.0,0.0,0.0,0.0,0.0,0.0,0.0,0.0,-2.5531,-2.6664,-2.8006,-2.9388,-3.084,-3.2444,-3.4301,-3.6043,-3.767,-3.8571,-3.9223,-3.9559,-3.9901,-3.9987,-3.9765,-3.9563,-3.9598,-3.9782,-3.8035,-3.7343,-3.8067,-3.6072,-3.5276,-3.5753,-3.4537,-3.3983,-3.3952,-3.2124,-3.1127,-3.0725,-2.9624,-2.893,-2.8587,-2.8587,-2.8587,-2.8587,-2.8587,-2.8695,-2.8619,-2.7039,-2.5772,-2.4781,-2.4092,-2.3666,-2.3403,-2.3,-2.3187,-2.3592,-2.3592,-2.4066,-2.4583,-2.4583,-2.4478,-2.4347,-2.4347,-2.423,-2.4112,-2.4112,-2.3734,-2.3339,-2.3339,-2.298,-2.2727,-2.3008,-2.3573,-2.4107,-2.4255,-2.508,-2.564,-2.535,-2.5484,0.0,-2.4282,-2.3758,-2.2995,-2.1763,-2.1274,-2.071,-2.0172,-2.0085,-2.0074,-2.0074,-1.9539,-1.9341,-1.9473,-1.7861,-1.6351,-1.5267,-1.4751,-1.4323,0.0,0.0,0.0,0.0,0.0,0.0,0.0,0.0,0.0,0.0,0.0,0.0,0.0,0.0,0.0,0.0,0.0,0.0,0.0,0.0,0.0,0.0,-2.6837,-2.776,-2.8601,-2.98,-3.1435,-3.3612,-3.4903,-3.6488,-3.8687,-3.9217,-3.9816,-4.0693,-4.0793,-4.0745,-4.068,-4.0534,-4.0201,-3.9614,-3.8206,-3.7329,-3.7086,-3.5399,-3.4719,-3.5045,-3.3937,-3.3398,-3.331,-3.1397,-3.0524,-3.0464,-2.9135,-2.8451,-2.8234,-2.8492,-2.8302,0.0,0.0,0.0,0.0,0.0,-2.4705,-2.3091,-2.2701,-2.237,-2.1987,-2.1856,-2.216,-2.2649,-2.289,-2.3301,-2.3688,-2.3688,-2.3556,-2.3556,-2.3806,-2.3806,-2.3662,-2.3662,-2.3399,-2.3027,-2.2713,-2.2347,-2.2135,-2.2218,-2.2616,0.0,-2.2863,-2.4176,-2.5158,-2.4862,-2.4614,-2.4189,-2.3485,-2.2722,-2.2056,-2.1377,-2.085,-2.0445,-2.0107,-2.0085,0.0,0.0,0.0,-1.8879,-1.8429,-1.6945,0.0,0.0,0.0,-1.4466,-1.4331,-1.6061,0.0,0.0,-1.7891,-1.8973,0.0,0.0,0.0,0.0,0.0,0.0,0.0,0.0,0.0,0.0,0.0,0.0,0.0,0.0,0.0,0.0,-2.8599,-2.9116,-2.9187,-3.0125,-3.1781,-3.4522,-3.489,-3.5985,-3.8599,-3.8768,-3.9319,-4.0767,-4.0888,-4.0871,-4.0823,-4.0611,0.0,0.0,0.0,-3.674,-3.5459,-3.481,-3.4434,-3.4337,-3.3629,-3.3233,-3.3146,-3.122,-3.0348,-3.0228,-2.8969,-2.8125,-2.7746,-2.8193,-2.7669,-2.6661,-2.7304,-2.7444,-2.7171,-2.5636,-2.3817,-2.2089,-2.1969,0.0,0.0,-2.1522,-2.1894,-2.2264,-2.2815,-2.299,-2.2977,-2.2977,-2.2735,-2.254,-2.3128,-2.3043,-2.284,-2.284,-2.278,-2.2528,-2.1994,-2.1749,-2.1587,-2.1032,-2.1305,-2.1619,-2.1556,-2.3362,-2.4637,-2.4028,-2.3484,-2.2976,-2.2308,-2.1472,-2.0994,-2.0939,0.0,0.0,-2.0009,-2.0009,-1.9791,-1.9233,-1.9013,-1.8291,-1.674,-1.6104,-1.5598,-1.5118,-1.48,-1.4569,-1.4569,-1.6167,-1.689,-1.7005,-1.8933,-2.0172,0.0,0.0,0.0,0.0,0.0,0.0,0.0,0.0,0.0,0.0,0.0,0.0,0.0,0.0,0.0,-2.7864,-2.9254,-3.0223,-3.0022,-3.1126,-3.2251,-3.3077,-3.4717,-3.6513,-3.8471,-3.917,-3.9871,-4.0802,-4.0888,-4.071,-4.022,-3.9511,-3.8824,-3.8044,-3.6283,-3.5433,-3.5554,-3.3857,-3.3187,-3.3598,0.0,0.0,-3.1817,-3.0425,-2.9505,-2.8969,-2.7721,-2.7379,-2.7678,-2.7311,-2.6472,-2.5568,-2.6179,-2.588,-2.4965,-2.3849,-2.2628,-2.1428,-2.055,-2.0161,-2.006,-2.0169,-2.0721,-2.146,-2.1972,-2.2309,0.0,-2.2167,-2.1786,-2.1383,-2.1268,-2.121,-2.1141,-2.1141,-2.0722,-2.0299,-2.0181,-1.9727,-1.9438,-1.9662,-2.0125,-2.0556,-2.0983,-2.1749,-2.241,-2.2595,-2.2242,-2.1934,-2.1734,-2.1559,-2.1297,-2.0972,-2.0773,-2.0421,-1.955,-1.9441,-1.9243,-1.87,-1.8197,-1.7398,-1.6069,-1.5851,-1.5419,-1.4736,-1.4601,-1.4569,-1.4569,-1.6167,-1.7097,-1.741,-1.9073,-1.9723,0.0,0.0,0.0,0.0,0.0,0.0,0.0,0.0,0.0,0.0,0.0,-2.5254,-2.6617,0.0,-2.8883,-2.8904,-2.9802,-3.0367,-2.9738,-3.086,-3.2094,-3.3131,-3.4312,-3.5823,-3.7851,-3.8156,-3.8687,-3.9802,-3.9887,-3.9676,-3.9076,-3.869,-3.7851,-3.6522,-3.5493,-3.4787,-3.4265,-3.3263,-3.2819,-3.3017,-3.1992,-3.1339,-3.0971,-2.9435,-2.8509,-2.8229,-2.7234,-2.6688,-2.6363,-2.5535,-2.5056,-2.4801,-2.4571,-2.416,-2.3611,-2.2805,-2.1903,-2.0887,-2.0069,-1.96,-1.942,-1.9696,-2.0072,-2.0555,-2.1116,-2.132,-2.1436,-2.1275,-2.0824,-2.0377,-2.0619,-2.0435,-2.0192,-2.0192,-1.9948,-1.9597,-1.9253,-1.9116,-1.9124,-1.9364,-1.9748,-2.0293,-2.0773,-2.0664,-2.0839,-2.18,-2.1538,-2.1221,-2.1221,-2.1013,-2.0773,-2.0533,-2.029,-1.9905,-1.933,-1.8639,-1.8021,-1.753,-1.6814,-1.614,-1.5469,-1.5085,-1.4824,-1.4582,-1.4449,-1.4466,-1.4569,-1.5754,-1.6623,-1.7235,-1.8586,-1.9402,0.0,0.0,0.0,0.0,0.0,0.0,0.0,-2.1308,-2.2414,-2.4771,-2.549,-2.6307,-2.8511,-2.9407,-2.9948,-3.0083,-3.0514,-3.0541,-2.9612,-3.0622,-3.1949,-3.3488,-3.3925,-3.4906,-3.7035,-3.6825,-3.7155,-3.8638,-3.8756,-3.8556,-3.8157,-3.7892,-3.6905,-3.5117,-3.4933,-3.4202,-3.2843,-3.2648,-3.2447,-3.2087,-3.092,-3.0201,-3.0004,-2.8398,-2.7551,-2.7376,-2.6739,-2.5848,-2.4833,-2.4064,-2.3961,-2.4134,-2.3265,-2.2848,-2.2713,-2.2021,-2.1223,-2.037,-1.9817,-1.9348,-1.9083,-1.9612,-1.978,-1.9877,-2.0418,-2.0502,-2.0418,-2.0397,-1.9888,-1.9506,-1.9966,-1.9737,-1.9321,-1.9321,-1.9263,-1.9088,-1.8522,-1.8731,-1.9026,-1.9124,-1.9462,-1.991,-2.0478,-1.9856,-1.9768,-2.1221,-2.0959,-2.0609,-2.0563,-2.0161,-1.9836,-1.9791,-1.9293,-1.884,-1.8764,-1.7543,-1.6682,-1.6392,-1.5542,-1.5092,-1.5098,-1.4516,-1.4255,-1.4492,-1.4219,-1.4218,-1.4434,-1.5267,-1.5992,-1.6615,-1.7935,-1.9104,-1.2204,-1.4004,-1.5889,-1.7701,-1.8664,-1.9902,0.0,-2.3812,-2.4785,-2.6827,-2.7746,-2.8367,-2.9347,-3.0654,-3.147,-3.0879,-3.1554,-3.182,-3.1097,-3.165,-3.2408,-3.3016,-3.3697,-3.461,-3.6022,-3.6089,-3.6688,-3.8101,-3.8218,-3.8239,-3.8284,-3.7113,-3.6115,-3.5379,-3.4175,-3.3143,-3.2453,-3.1867,-3.115,-3.0342,-2.9678,-2.8922,-2.8095,-2.7357,-2.6691,-2.6099,-2.5614,-2.4734,-2.3824,-2.4227,-2.386,-2.3056,-2.2934,-2.2678,-2.2188,-2.1148,-2.0378,-1.9793,-1.9263,-1.9035,-1.9083,-1.9612,-1.978,-1.9889,-2.0442,-2.0261,-1.9821,-1.9622,-1.9168,-1.8682,-1.8421,-1.8146,-1.7924,-1.7924,-1.7768,-1.7544,-1.7487,-1.7475,-1.7649,-1.8086,-1.8206,-1.8534,-1.943,-1.9124,-1.9266,-2.0785,-2.0161,-1.9533,-1.9462,-1.9124,-1.8793,-1.867,-1.8009,-1.7352,-1.6826,-1.6222,-1.5864,-1.5817,-1.5359,-1.507,-1.5089,-1.4652,-1.4333,-1.4181,-1.4123,-1.3998,-1.3703,-1.4748,-1.5308,-1.5453,-1.7222,-1.8484,-1.1343,-1.3926,-1.6351,-1.7446,-1.8787,-2.0451,-2.3014,-2.3739,-2.4566,-2.7053,-2.8085,-2.8743,-2.9468,-3.0661,-3.1399,-3.1,-3.1096,-3.113,-3.0653,-3.1207,-3.175,-3.1916,-3.3307,-3.4481,-3.52,-3.5761,-3.6293,-3.6865,-3.6914,-3.6848,-3.6638,-3.5639,-3.4689,-3.3818,-3.3185,-3.2656,-3.2104,-3.1718,-3.1414,-3.1004,-2.9415,-2.8482,-2.8039,-2.612,-2.4832,-2.3939,-2.3236,-2.2827,-2.2707,-2.272,-2.2652,-2.2494,-2.2494,-2.1995,-2.1211,-2.0767,-2.0454,-2.0141,-1.9287,-1.8987,-1.9035,-1.9251,-1.9324,-1.9372,-1.96,-1.9504,-1.9324,-1.9227,-1.8898,-1.856,-1.841,-1.8139,-1.7865,-1.7767,-1.7601,-1.7501,-1.7334,-1.7326,-1.7344,-1.7536,-1.7624,-1.7737,-1.8114,-1.78,-1.7779,-1.869,-1.867,-1.8614,-1.8543,-1.8155,-1.7734,-1.7392,-1.7032,-1.6529,-1.5726,-1.5466,-1.5249,-1.5019,-1.4845,-1.4666,-1.4394,-1.4284,-1.3979,-1.342,-1.3451,-1.3306,-1.2989,-1.3656,-1.422,-1.4677,-1.5802,-1.6766,-1.0739,-1.3353,-1.5909,-1.7002,-1.8651,-2.0555,-2.2616,-2.336,-2.427,-2.6675,-2.7564,-2.822,-2.9421,-3.0343,-3.1026,-3.1061,-3.0708,-3.0576,-3.1,-3.1128,-3.1462,-3.2199,-3.381,-3.4957,-3.5202,-3.5626,-3.6001,-3.614,-3.6033,-3.5799,-3.5477,-3.4628,-3.3685,-3.273,-3.253,-3.2216,-3.1709,-3.1429,-3.1063,-3.0584,-2.8742,-2.7612,-2.7101,-2.4817,-2.3173,-2.2226,-2.1567,-2.1455,-2.1654,-2.134,-2.1404,-2.1765,-2.1765,-2.1284,-2.0586,-2.043,-2.0298,-2.0057,-1.9263,-1.8987,-1.8987,-1.8987,-1.8987,-1.8987,-1.8815,-1.8762,-1.8709,-1.8536,-1.8375,-1.8213,-1.8213,-1.7952,-1.7634,-1.7412,-1.7301,-1.7134,-1.6976,-1.6901,-1.6898,-1.6898,-1.6929,-1.6941,-1.7072,-1.6719,-1.6577,-1.7032,-1.7155,-1.7337,-1.7585,-1.7129,-1.6611,-1.5995,-1.6071,-1.5789,-1.4974,-1.4937,-1.4763,-1.4368,-1.4341,-1.4157,-1.3736,-1.3714,-1.3383,-1.2751,-1.2722,-1.2565,-1.2326,-1.2623,-1.3103,-1.3591,-1.4418,-1.5151,-1.0552,-1.2198,-1.4276,-1.6838,-1.869,-2.0249,-2.1947,-2.3239,-2.4494,-2.6039,-2.6327,-2.7005,-2.9219,-2.995,-3.0526,-3.1334,-3.0773,-3.0896,-3.2919,-3.2029,-3.2169,-3.4778,-3.572,-3.6173,-3.6243,-3.5751,-3.5663,-3.6342,-3.5774,-3.5493,-3.5711,-3.4441,-3.347,-3.3023,-3.227,-3.1724,-3.1336,-3.0681,-2.9519,-2.7893,-2.7201,-2.599,-2.4376,-2.3301,-2.2311,-2.1344,-2.1288,-2.1075,-2.0644,-2.0656,-2.0622,-2.0658,-2.0658,-2.0622,-2.0559,-1.9997,-1.948,-1.9035,-1.8999,-1.8987,-1.8987,-1.8987,-1.8987,-1.8881,-1.8309,-1.8147,-1.7984,-1.7424,-1.7257,-1.7257,-1.7257,-1.6877,-1.6549,-1.6549,-1.6208,-1.5931,-1.5931,-1.5941,-1.5951,-1.5951,-1.5961,-1.6113,-1.6547,-1.6244,-1.6103,-1.6557,-1.5831,-1.5563,-1.6447,-1.6064,-1.5458,-1.4625,-1.4891,-1.4955,-1.4561,-1.4533,-1.435,-1.3928,-1.3901,-1.3727,-1.3323,-1.3049,-1.2764,-1.2406,-1.2145,-1.1865,-1.1519,-1.1876,-1.2051,-1.2118,-1.3194,-1.4081,-0.8106,-1.0345,-1.2756,-1.4772,-1.6457,-1.8083,-1.9902,-2.1129,-2.2258,-2.3718,-2.4371,-2.5144,-2.6255,-2.7563,-2.8726,-2.9702,-3.0233,-3.0891,-3.192,-3.202,-3.2306,-3.3224,-3.5102,-3.6366,-3.6382,-3.6083,-3.6006,-3.6169,-3.4716,-3.4044,-3.4468,-3.323,-3.2285,-3.1897,-3.1614,-3.1055,-3.0178,-2.9958,-2.916,-2.7778,-2.6013,-2.454,-2.3332,-2.1941,-2.1091,-2.0672,-2.0042,-1.9885,-2.0045,-2.0045,-2.0273,-2.0553,-2.0193,-1.9784,-1.9377,-1.8851,-1.8294,-1.7875,-1.8255,-1.8147,-1.782,-1.782,-1.782,-1.7754,-1.7534,-1.7479,-1.7479,-1.7257,-1.7202,-1.7202,-1.7202,-1.7045,-1.6775,-1.6549,-1.6312,-1.6151,-1.5931,-1.5642,-1.5468,-1.5468,-1.5186,-1.5008,-1.515,-1.5065,-1.5008,-1.516,-1.5214,-1.5164,-1.5168,-1.5022,-1.4808,-1.4543,-1.4634,-1.4543,-1.413,-1.4093,-1.3919,-1.3516,-1.3488,-1.3305,-1.2892,-1.3086,-1.2771,-1.1973,-1.1937,-1.1679,-1.1121,-1.1279,-1.1336,-1.1352,-1.2215,-1.2674,-0.6307,-0.841,-1.058,-1.2782,-1.4237,-1.5713,-1.7843,-1.8833,-1.9889,-2.1596,-2.2294,-2.2899,-2.4101,-2.5647,-2.7069,-2.8022,-2.9119,-3.0238,-3.1259,-3.1782,-3.2391,-3.3324,-3.5184,-3.6469,-3.6706,-3.5974,-3.5763,-3.6425,-3.4565,-3.3484,-3.3668,-3.2206,-3.1135,-3.0704,-3.0483,-3.0044,-2.929,-2.9045,-2.8308,-2.6962,-2.4736,-2.3249,-2.2342,-2.0944,-2.0163,-1.9846,-1.9012,-1.8844,-1.9152,-1.8975,-1.9062,-1.9332,-1.8965,-1.8589,-1.8239,-1.7831,-1.7351,-1.6978,-1.7589,-1.7534,-1.7202,-1.7202,-1.7202,-1.7146,-1.6922,-1.6866,-1.681,-1.6641,-1.6585,-1.6585,-1.6585,-1.6436,-1.6275,-1.6046,-1.5864,-1.569,-1.5478,-1.5186,-1.4951,-1.4951,-1.4734,-1.4515,-1.4515,-1.4515,-1.4515,-1.4515,-1.4734,-1.4843,-1.4565,-1.4378,-1.4286,-1.4286,-1.4286,-1.4121,-1.3708,-1.38,-1.3653,-1.3103,-1.3066,-1.2883,-1.2521,-1.2561,-1.2296,-1.1737,-1.1507,-1.1258,-1.0922,-1.085,-1.0812,-1.082,-1.1257,-1.159,-0.5106,-0.6388,-0.7828,-1.0901,-1.2097,-1.3255,-1.5698,-1.6546,-1.7463,-1.9776,-2.0037,-2.0532,-2.2603,-2.4255,-2.5568,-2.6495,-2.7584,-2.9026,-3.1043,-3.1367,-3.2346,-3.4816,-3.5739,-3.6506,-3.7196,-3.5419,-3.4966,-3.6792,0.0,-3.3819,-3.324,-3.1322,-2.9984,-2.9566,-2.8943,-2.8595,-2.8566,-2.7911,-2.682,-2.5381,-2.3322,-2.2059,-2.1418,-2.0385,-1.9546,-1.8917,-1.8333,-1.8038,-1.7984,-1.7424,-1.7202,-1.7202,-1.7146,-1.7146,-1.709,-1.709,-1.6698,-1.6244,-1.68,-1.7024,-1.709,-1.709,-1.709,-1.6978,-1.6415,-1.6244,-1.614,-1.5575,-1.541,-1.541,-1.541,-1.5313,-1.5156,-1.5029,-1.4843,-1.4666,-1.4506,-1.4515,-1.4515,-1.4515,-1.4515,-1.4515,-1.4515,-1.4515,-1.4506,-1.4446,-1.4446,-1.4437,-1.4488,-1.413,-1.3873,-1.3855,-1.3855,-1.369,-1.3296,-1.3607,-1.3479,-1.2733,-1.2687,-1.2521,-1.2144,-1.1619,-1.1477,-1.1728,-1.0922,-1.0675,-1.0922,-1.0624,-1.0522,-1.0522,-1.0522,-1.0812,-0.2409,-0.408,-0.5796,-0.8148,-0.9139,-1.0084,-1.2246,-1.3713,-1.4956,-1.6275,-1.7199,-1.8058,-1.9084,-2.1101,-2.322,-2.5114,-2.712,-2.8886,-3.0444,-3.1156,-3.1693,-3.2407,-3.3905,-3.4984,-3.5155,-3.4685,-3.4506,-3.4935,-3.2915,-3.1751,-3.193,-3.0125,-2.9052,-2.8947,-2.7925,-2.7145,-2.6602,-2.5124,-2.416,-2.3774,-2.1886,-2.0884,-2.0616,-1.9325,-1.8603,-1.8363,-1.7701,-1.7424,-1.7424,-1.7257,-1.7202,-1.7146,-1.6698,-1.6234,-1.5833,-1.5323,-1.4796,-1.4273,-1.4373,-1.508,-1.5853,-1.5853,-1.5853,-1.5853,-1.569,-1.5633,-1.5584,-1.5468,-1.541,-1.5362,-1.5254,-1.5147,-1.5029,-1.4843,-1.4666,-1.4565,-1.4506,-1.4515,-1.4515,-1.4515,-1.4515,-1.4515,-1.4515,-1.4515,-1.4327,-1.3821,-1.3761,-1.3835,-1.4026,-1.3947,-1.3772,-1.3479,-1.3442,-1.3277,-1.2908,-1.2973,-1.2807,-1.2259,-1.2223,-1.2236,-1.2076,-1.1977,-1.1927,-1.1977,-1.1427,-1.1124,-1.1226,-1.0726,-1.0522,-1.0522,-1.0522,-1.0617,-0.0345,-0.1996,-0.361,-0.5589,-0.6737,-0.7765,-0.9575,-1.0869,-1.1998,-1.3265,-1.4162,-1.5129,-1.6146,-1.871,-2.1325,-2.3105,-2.5588,-2.7868,-2.9224,-3.0015,-3.0722,-3.1406,-3.2687,-3.3577,-3.3577,-3.3576,-3.3291,-3.2535,-3.146,-3.0866,-3.0816,-2.8886,-2.7728,-2.7464,-2.6576,-2.5495,-2.4358,-2.3301,-2.2407,-2.1699,-2.0609,-1.9915,-1.9528,-1.8515,-1.7923,-1.7709,-1.7086,-1.681,-1.6754,-1.6528,-1.6244,-1.5948,-1.5613,-1.5148,-1.456,-1.4163,-1.3812,-1.3511,-1.3511,-1.3983,-1.4579,-1.4579,-1.4579,-1.4579,-1.4579,-1.4579,-1.4579,-1.4579,-1.4579,-1.4529,-1.4478,-1.4419,-1.43,-1.4043,-1.3872,-1.3821,-1.3631,-1.3631,-1.3631,-1.3631,-1.3631,-1.3631,-1.3631,-1.3631,-1.3502,-1.313,-1.307,-1.2998,-1.288,-1.2876,-1.272,-1.2347,-1.2303,-1.2147,-1.1739,-1.187,-1.1809,-1.1377,-1.1351,-1.1351,-1.1351,-1.1519,-1.1569,-1.1569,-1.1368,-1.1226,-1.1124,-1.082,-1.0624,-1.0522,-1.0522,-1.0522,0.1316,-0.0058,-0.1308,-0.3301,-0.4631,-0.5794,-0.7225,-0.8028,-0.8885,-1.0301,-1.1117,-1.1958,-1.3405,-1.6523,-1.9426,-2.0824,-2.3525,-2.6027,-2.7709,-2.8465,-2.9408,-3.0848,-3.1671,-3.2101,-3.2101,-3.2058,-3.1494,-3.0157,-3.0186,-3.0106,-2.9667,-2.7685,-2.6155,-2.5432,-2.4912,-2.3839,-2.2143,-2.1981,-2.1153,-1.9703,-1.9506,-1.8999,-1.8215,-1.7679,-1.7202,-1.6733,-1.6177,-1.5958,-1.5901,-1.5342,-1.4815,-1.435,-1.435,-1.3992,-1.3381,-1.3381,-1.3321,-1.3268,-1.3268,-1.3268,-1.3268,-1.345,-1.3511,-1.3511,-1.3511,-1.3511,-1.3511,-1.3511,-1.3511,-1.3511,-1.3511,-1.3442,-1.3381,-1.307,-1.3009,-1.2948,-1.2634,-1.2512,-1.2512,-1.2512,-1.2512,-1.2512,-1.2512,-1.2512,-1.2451,-1.2389,-1.2389,-1.2101,-1.1409,-1.1406,-1.1336,-1.0985,-1.0945,-1.0764,-1.0446,-1.0709,-1.0748,-1.0431,-1.0415,-1.0415,-1.0415,-1.0694,-1.0812,-1.0812,-1.1015,-1.1015,-1.0812,-1.0761,-1.0667,-1.0522,-1.0522,-1.0522,0.3234,0.2096,0.0846,-0.143,-0.2348,-0.3052,-0.4375,-0.5424,-0.6166,-0.6791,-0.812,-0.9424,-1.0127,-1.3124,-1.6393,-1.9211,-2.1374,-2.37,-2.6676,-2.7467,-2.7974,-2.8584,-2.9449,-3.0015,-3.0015,-2.96,-2.9259,-2.9017,-2.7495,-2.7064,-2.827,-2.6539,-2.4645,-2.28,-2.277,-2.2138,-2.078,-2.0409,-1.9817,-1.9034,-1.8552,-1.779,-1.6669,-1.6415,-1.5641,-1.4551,-1.4264,0.0,-1.3974,-1.3863,-1.3743,-1.3683,-1.3683,-1.3252,-1.2696,-1.2696,-1.2343,-1.1926,-1.1926,-1.1926,-1.2112,-1.3147,-1.3511,-1.3511,-1.3511,-1.3511,-1.3511,-1.3511,-1.3511,-1.3442,-1.339,-1.3329,-1.326,-1.307,-1.3009,-1.2948,-1.2765,-1.2634,-1.2512,-1.2512,-1.2512,-1.2512,-1.2512,-1.2512,-1.2328,-1.1787,-1.1663,-1.1345,-1.0435,-1.1038,-1.1241,-1.0581,-1.051,-1.0486,-1.0423,-1.047,-1.0486,-1.0423,-1.0415,-1.0415,-1.0415,-1.0474,-1.0423,-1.032,-1.0174,-1.0174,-1.0328,-1.0072,-1.019,-1.0522,-1.0522,-1.0522,0.5724,0.4391,0.292,0.1517,0.0247,-0.0865,-0.1371,-0.2569,-0.356,-0.3745,-0.5297,-0.6929,-0.7897,-1.0613,-1.3715,-1.6571,-1.9154,-2.1594,-2.4123,-2.5384,-2.6379,-2.7105,-2.7881,-2.8265,-2.7954,-2.8106,-2.7755,-2.6729,-2.5501,-2.5218,-2.6222,-2.4115,-2.2371,-2.1278,-2.0747,-2.0099,-1.9219,-1.8919,-1.826,-1.7084,-1.7058,-1.6403,-1.5177,-1.5129,-1.4669,-1.3992,-1.3881,-1.3761,-1.3631,-1.3631,-1.3381,-1.3009,-1.3009,-1.2328,-1.1469,-1.1469,-1.1038,-1.0534,-1.0534,-1.0534,-1.0598,-1.1205,-1.1896,-1.2536,-1.2536,-1.2536,-1.2536,-1.2536,-1.2536,-1.2474,-1.2413,-1.2421,-1.2351,-1.2158,-1.1973,-1.1849,-1.1663,-1.16,-1.1538,-1.1538,-1.1538,-1.1538,-1.1538,-1.1538,-1.1413,-1.1052,-1.0857,-1.058,-0.9986,-1.0143,-1.0159,-0.9785,-0.9664,-0.9562,-0.9562,-0.9562,-0.9562,-0.9562,-0.9562,-0.9562,-0.9562,-0.9814,-0.9865,-0.9666,-0.9917,-0.9909,-0.9762,-0.9718,-0.9821,-1.0138,-1.0138,-1.0249,0.8155,0.6682,0.5178,0.4442,0.2853,0.1547,0.1845,0.0576,-0.0702,-0.0665,-0.2134,-0.3825,-0.5132,-0.7373,-0.9955,-1.2691,-1.5667,-1.8648,-2.1697,-2.3187,-2.4469,-2.575,-2.6481,-2.6709,-2.6246,-2.6651,-2.6225,-2.4518,-2.3554,-2.3342,-2.3927,-2.1874,-2.0502,-2.0084,-1.9321,-1.8498,-1.7712,-1.7593,-1.6769,-1.5235,-1.5573,-1.5134,-1.4034,-1.3974,-1.3734,-1.3459,-1.3268,-1.307,-1.2879,-1.2818,-1.2443,-1.1888,-1.1888,-1.1212,-1.0288,-1.0288,-0.997,-0.9518,-0.9518,-0.9518,-0.9518,-0.9518,-1.0218,-1.1178,-1.1178,-1.1178,-1.1178,-1.1178,-1.1178,-1.1178,-1.1178,-1.1178,-1.1178,-1.1115,-1.0863,-1.0611,-1.0688,-1.0624,-1.0624,-1.0624,-1.0624,-1.0624,-1.0624,-1.0624,-1.0604,-1.0474,-1.0267,-1.0013,-0.9719,-0.9426,-0.9183,-0.9183,-0.8978,-0.8804,-0.8804,-0.8804,-0.8804,-0.8804,-0.8804,-0.8804,-0.8804,-0.9159,-0.9249,-0.9054,-0.9503,-0.9607,-0.9256,-0.9354,-0.951,-0.9658,-0.9658,-0.9925,0.9885,0.8851,0.781,0.6776,0.5557,0.4741,0.5329,0.4151,0.2928,0.3077,0.1922,0.0579,-0.041,-0.1699,-0.3584,-0.6702,-0.943,-1.363,-2.081,-2.1449,-2.2015,-2.4329,-2.4897,-2.5164,-2.523,-2.482,-2.4208,-2.3232,-2.126,-2.0507,-2.1464,-2.102,-2.0231,-1.9186,-1.8976,-1.8038,-1.6297,-1.6386,-1.5806,-1.4588,-1.4625,-1.4267,-1.3563,-1.313,-1.2528,-1.1802,-1.0968,-1.0521,0.0,-1.0015,-0.9831,-0.9767,-0.9767,-0.9703,-0.9582,-0.9582,-0.9582,-0.9518,-0.9518,-0.9518,-0.9518,-0.9518,-0.9582,-0.9709,-0.9709,-0.9709,-0.9709,-0.9709,-0.9709,-0.9709,-0.9709,-0.9709,-0.9837,-1.0415,-1.0345,-1.0275,-1.0933,-1.0807,-1.0624,-1.0624,-1.0624,-1.0624,-1.0624,-1.0624,-1.053,-1.02,-1.0134,-1.0013,-0.9719,-0.9426,-0.9183,-0.9183,-0.8978,-0.8804,-0.8804,-0.8804,-0.8804,-0.8804,-0.8804,-0.8804,-0.8804,-0.8738,-0.8626,-0.8474,-0.8427,-0.8474,-0.8679,-0.8679,-0.889,-0.9263,-0.9263,-0.9465,1.1851,1.0832,0.9776,0.8911,0.8021,0.7333,0.7219,0.6258,0.5382,0.5376,0.4258,0.309,0.2482,0.1847,0.0823,-0.1176,-0.3431,-0.6317,-0.9943,-1.3515,-1.6564,-1.8724,-2.0904,-2.2603,-2.3501,-2.2414,-2.1149,-1.9687,-1.8783,-1.8318,-1.8452,-1.8261,-1.7754,-1.6961,-1.6632,-1.6046,-1.5128,-1.4862,-1.4296,-1.3494,-1.3183,-1.2634,-1.1965,-1.1787,-1.1545,-1.124,-1.0856,-1.0604,0.0,-1.0148,-0.9894,-0.9767,-0.9582,-0.9262,-0.8877,-0.8877,-0.8619,-0.8296,-0.8296,-0.8296,-0.8296,-0.8296,-0.8296,-0.8425,-0.9262,-0.9518,-0.9518,-0.9518,-0.9518,-0.9518,-0.9518,-0.9518,-0.9518,-0.9576,-0.9391,-0.9256,-0.9482,-0.9322,-0.9194,-0.9296,-0.9326,-0.9326,-0.9326,-0.9259,-0.911,-0.8948,-0.8729,-0.8497,-0.8396,-0.8423,-0.8419,-0.8419,-0.8652,-0.8804,-0.8804,-0.8804,-0.8804,-0.8804,-0.8804,-0.8804,-0.8804,-0.8752,-0.8692,-0.8646,-0.8533,-0.8474,-0.8626,-0.8421,-0.858,-0.8935,-0.889,-0.9047,1.3978,1.2934,1.1826,1.1296,1.0449,0.965,0.9254,0.8515,0.7979,0.8189,0.7249,0.6427,0.6491,0.6637,0.6782,0.6976,0.4416,0.2054,0.1052,-0.4555,-0.9762,-1.2917,-1.6097,-1.8952,-2.1363,-2.0161,-1.8338,-1.6418,-1.6297,-1.6042,-1.5438,-1.5289,-1.5228,-1.5219,-1.4896,-1.4392,-1.3795,-1.3416,-1.2862,-1.2274,-1.1896,-1.1469,-1.0982,-1.0863,-1.08,-1.08,-1.0541,-1.0225,0.0,-0.9576,-0.918,-0.8796,-0.8544,-0.8161,-0.7712,-0.7712,-0.7451,-0.7003,-0.7003,-0.7003,-0.7003,-0.7003,-0.7003,-0.7195,-0.8161,-0.8678,-0.8941,-0.8941,-0.8941,-0.8941,-0.8941,-0.8941,-0.8871,-0.8865,-0.8678,-0.8537,-0.8645,-0.8422,-0.8234,-0.8413,-0.8392,-0.8343,-0.8343,-0.8264,-0.8122,-0.799,-0.7697,-0.7464,-0.7394,-0.7563,-0.7664,-0.7664,-0.8043,-0.8427,-0.8752,-0.8804,-0.8804,-0.8804,-0.8804,-0.8804,-0.8804,-0.8752,-0.8745,-0.8745,-0.8633,-0.8527,-0.8474,-0.8268,-0.8321,-0.8521,-0.8421,-0.8633,1.6122,1.5239,1.4145,1.416,1.2889,1.1657,1.1657,1.126,1.1161,1.2124,1.1577,1.1269,1.2387,1.3464,1.5268,1.8601,1.4814,1.1135,1.0187,0.4478,-0.1766,-0.7579,-1.0587,-1.4049,-1.8798,-1.8046,-1.628,-1.4084,-1.3962,0.0,-1.2589,-1.2512,-1.3105,-1.4355,-1.4296,-1.3511,-1.2012,-1.2012,-1.171,-1.1045,-1.0982,-1.0989,-1.0989,-1.0491,-1.0308,-1.0238,-0.9402,-0.863,0.0,-0.7461,-0.6802,-0.6145,-0.6017,-0.5954,-0.5954,-0.5954,-0.5954,-0.5892,-0.5892,-0.5892,-0.5892,-0.5892,-0.5892,-0.5892,-0.5954,-0.6675,-0.7521,-0.7521,-0.7521,-0.7521,-0.7521,-0.7521,-0.7717,-0.8361,-0.8236,-0.8172,-0.8865,-0.8606,-0.8186,-0.8186,-0.8067,-0.8032,-0.8032,-0.8032,-0.7885,-0.7529,-0.7491,-0.7404,-0.7117,-0.7085,-0.7085,-0.7085,-0.7139,-0.7568,-0.8699,-0.8804,-0.8804,-0.8804,-0.8804,-0.8804,-0.8804,-0.8685,-0.8626,-0.8626,-0.8474,-0.8321,-0.8221,-0.8221,-0.8115,-0.7901,-0.7901,-0.8162,1.5671,1.516,1.4521,1.437,1.4037,1.3693,1.3522,1.3757,1.4186,1.4686,1.5081,1.5176,1.4823,1.5524,1.6056,1.5784,1.4214,1.3146,1.343,0.5246,-0.1418,-0.3096,-1.0523,-1.5566,-1.5698,-1.4694,-1.3763,-1.3005,-1.2064,-1.1637,-1.1804,-1.1348,-1.141,-1.2043,-1.1905,-1.1272,-1.0097,-0.966,-0.9291,-0.9111,-0.8731,-0.8521,-0.843,-0.8345,-0.827,-0.8179,-0.7865,-0.7681,-0.7419,-0.6906,-0.6554,-0.6285,-0.6029,-0.5914,-0.5888,-0.5888,-0.5888,-0.5873,-0.5822,-0.5795,-0.5851,-0.5687,-0.5691,-0.5762,-0.5645,-0.5939,-0.6289,-0.6289,-0.6199,-0.6162,-0.6347,-0.6293,-0.6258,-0.6763,-0.6657,-0.6565,-0.7064,-0.6865,-0.6584,-0.6717,-0.6639,-0.6542,-0.6542,-0.6425,-0.6312,-0.6191,-0.607,-0.5963,-0.59,-0.6213,-0.648,-0.648,-0.6864,-0.7246,-0.7622,-0.7622,-0.7622,-0.7622,-0.7622,-0.7783,-0.815,-0.8143,-0.8309,-0.8745,-0.858,-0.8521,-0.8474,-0.8268,-0.8115,-0.7901,-0.7901,-0.7955,1.5384,1.5244,1.4907,1.4922,1.4792,1.4621,1.4456,1.5046,1.5744,1.6187,1.66,1.6804,1.656,1.6903,1.6847,1.5674,1.5262,1.5785,1.7739,1.0838,0.4311,0.0871,-0.6603,-1.182,-1.2691,-1.2432,-1.1869,-1.0899,-0.9895,-0.9503,-0.9951,-0.9274,-0.8976,-0.9131,-0.9788,-0.9654,-0.8645,-0.8205,-0.7822,-0.7488,-0.7172,-0.6943,-0.6813,-0.6876,-0.7021,-0.7139,-0.7139,-0.6828,0.0,-0.6026,-0.5624,-0.5289,-0.4974,-0.5041,-0.5328,-0.5328,-0.5328,-0.5314,-0.5217,-0.5181,-0.5165,-0.5098,-0.504,-0.4961,-0.4867,-0.5229,-0.5608,-0.5608,-0.5594,-0.5559,-0.5709,-0.5608,-0.5536,-0.5829,-0.5695,-0.5569,-0.5735,-0.5502,-0.5238,-0.5218,-0.5133,-0.5034,-0.5034,-0.5124,-0.5167,-0.5167,-0.5254,-0.5297,-0.5297,-0.5622,-0.5832,-0.5832,-0.6218,-0.6436,-0.6436,-0.6815,-0.7085,-0.7085,-0.7085,-0.7241,-0.7557,-0.761,-0.7771,-0.8096,-0.8203,-0.8203,-0.809,-0.8109,-0.8008,-0.7901,-0.7901,-0.7901,0.0,1.5182,1.5217,1.5653,1.5144,1.4573,1.4669,1.5235,0.0,1.667,1.6529,1.6526,1.7441,1.7489,1.7353,1.7291,1.7014,1.8082,2.1706,1.8999,1.3145,0.3758,-0.0039,-0.3978,-0.9332,-1.0572,-1.0214,-0.8052,-0.7483,-0.7205,-0.7187,-0.6565,-0.6095,-0.5911,-0.7833,-0.8404,-0.7488,-0.7409,-0.701,-0.6163,-0.6217,-0.6113,-0.5942,-0.5954,-0.624,0.0,-0.673,-0.6015,-0.4934,-0.4736,-0.4146,-0.3439,-0.3254,-0.363,-0.42,-0.4136,-0.4136,-0.4136,-0.4128,-0.4005,-0.3822,-0.4064,-0.3992,-0.3777,-0.3778,-0.4532,-0.537,-0.537,-0.5363,-0.5359,-0.5381,-0.537,-0.5359,-0.543,-0.5306,-0.5122,-0.481,-0.4526,-0.4143,-0.3856,-0.3704,-0.3624,-0.3624,-0.4073,-0.4463,-0.4463,-0.4853,-0.5187,-0.5187,-0.5242,-0.5242,-0.5242,-0.5297,-0.5297,-0.5297,-0.6327,-0.6977,-0.6977,-0.6977,-0.6977,-0.7025,-0.7025,-0.6972,-0.6907,-0.7396,-0.7503,-0.7235,-0.7622,-0.7848,-0.7848,-0.7901,-0.7901,1.1038,0.0,1.4376,1.5085,1.4719,1.4437,0.0,1.5264,1.5315,1.6044,1.6434,1.6286,1.513,1.5101,1.4477,1.2257,1.1632,1.2033,1.4065,1.2979,0.9058,0.1161,0.0726,-0.0039,-0.2874,-0.4394,-0.565,-0.6689,-0.5997,-0.5484,-0.5269,-0.4928,-0.4493,-0.4078,-0.4842,-0.5355,-0.5488,-0.4866,-0.4427,-0.4076,-0.411,-0.3941,-0.3652,-0.3803,-0.384,-0.3842,-0.3842,-0.3669,-0.3429,-0.3228,-0.3071,-0.285,-0.3089,-0.3318,-0.3388,-0.283,-0.2644,-0.2635,-0.2638,-0.2594,-0.2511,-0.2576,-0.3105,-0.3672,-0.3634,-0.3932,-0.4207,-0.4207,-0.4137,-0.4107,-0.4249,-0.4154,-0.4143,-0.4533,-0.4416,-0.4226,-0.4509,-0.4201,-0.3896,-0.384,-0.3702,-0.3624,-0.3624,-0.3738,-0.3793,-0.3793,-0.3904,-0.4015,-0.4015,-0.4405,-0.4684,-0.4684,-0.5073,-0.5297,-0.5297,-0.5572,-0.5732,-0.5732,-0.5732,-0.5946,-0.6372,-0.6426,-0.6588,-0.7025,-0.6912,-0.675,-0.6598,-0.7085,-0.73,-0.73,-0.7681,-0.7901,0.9224,1.0913,1.2907,1.284,1.2763,1.2853,1.3134,1.3286,1.346,1.3791,1.3995,1.3888,1.2927,1.2178,1.1243,0.9691,0.8418,0.8292,1.0209,1.1564,1.0019,0.3607,0.7081,0.7292,0.0,-0.0386,-0.1261,-0.3093,-0.3619,-0.3584,-0.2868,-0.262,-0.2507,-0.2458,-0.2429,-0.3004,-0.4335,-0.3902,-0.3409,-0.2898,-0.26,-0.2477,-0.2409,-0.2211,-0.2368,-0.2811,-0.2811,-0.264,-0.2409,-0.2308,-0.209,-0.1839,-0.207,-0.1976,-0.171,-0.1297,-0.112,-0.1118,-0.1157,-0.1163,-0.1117,-0.1157,-0.2278,-0.3487,-0.297,-0.3232,-0.368,-0.3735,-0.3632,-0.3613,-0.374,-0.368,-0.3655,-0.3945,-0.3851,-0.3744,-0.3852,-0.3685,-0.3408,-0.313,-0.3016,-0.2905,-0.2796,-0.3016,-0.3181,-0.3181,-0.3403,-0.3624,-0.3624,-0.3904,-0.4073,-0.4073,-0.4349,-0.4515,-0.4515,-0.4515,-0.4739,-0.5242,-0.5297,-0.5462,-0.5782,-0.5723,-0.5941,-0.6381,-0.6154,-0.61,-0.6322,-0.6539,-0.6701,-0.6701,-0.7246,-0.7521,0.81,0.9333,1.067,1.0063,1.0265,1.0521,0.9923,1.0298,1.0748,1.0574,1.0375,1.0194,1.0251,0.8842,0.7734,0.7847,0.6363,0.5839,0.7706,1.1343,1.2258,0.7851,1.4035,0.0,0.3986,0.3251,0.2819,0.137,-0.0643,-0.1398,-0.0442,-0.0423,-0.0528,-0.0871,-0.0511,-0.1206,-0.3146,-0.3211,-0.2857,-0.1959,-0.1397,-0.1255,-0.1459,-0.0874,-0.1204,-0.2176,0.0,0.0,-0.1398,-0.1398,-0.1063,-0.0616,-0.0672,-0.0392,0.0112,0.0224,0.0168,0.0056,0.0449,0.028,-0.0,-0.0,-0.1403,-0.2871,-0.2073,-0.2637,-0.3599,-0.3591,-0.3474,-0.336,-0.353,-0.3588,-0.3585,-0.3585,-0.3585,-0.3474,-0.3132,-0.3021,-0.2796,-0.224,-0.2128,-0.2074,-0.1853,-0.224,-0.2571,-0.2571,-0.3016,-0.335,-0.335,-0.3405,-0.3461,-0.3461,-0.3572,-0.3624,-0.3624,-0.3624,-0.4015,-0.4963,-0.5132,-0.5187,-0.5242,-0.5183,-0.5234,-0.5508,-0.5285,-0.5445,-0.5991,-0.6046,-0.6046,-0.61,-0.6701,-0.6972,0.5601,0.5932,0.6973,0.8522,0.8628,0.8293,0.8138,0.7466,0.6967,0.7096,0.6848,0.6371,0.5612,0.4804,0.4239,0.4074,0.3763,0.3467,0.33,0.7187,0.988,0.9405,1.3154,1.5216,1.385,0.9745,0.651,0.4914,0.3049,0.1768,0.1367,0.0471,0.0463,0.1461,0.0671,0.0112,-0.0227,-0.0682,-0.0808,-0.0593,-0.0231,-0.0,0.0056,0.0451,0.0505,0.0335,0.0,0.0391,0.0503,0.0503,0.0559,0.0615,0.0224,0.028,0.0615,0.1286,0.0896,0.028,0.2361,0.1685,-0.0,-0.0,-0.0224,-0.0729,-0.1572,-0.2643,-0.361,-0.3607,-0.2863,-0.2294,-0.3312,-0.3596,-0.3593,-0.3585,-0.3591,-0.3426,-0.2858,-0.2519,-0.224,-0.1908,-0.1852,-0.1853,-0.1797,-0.1852,-0.1964,-0.1964,-0.202,-0.2076,-0.2076,-0.2517,-0.2847,-0.2847,-0.3292,-0.3624,-0.3624,-0.3624,-0.3683,-0.3849,-0.4349,-0.4794,-0.5128,-0.5128,-0.5069,-0.5007,-0.4849,-0.4853,-0.4908,-0.5281,-0.5441,-0.5445,-0.6046,-0.6317,0.4058,0.4074,0.4392,0.4492,0.5051,0.5495,0.5108,0.459,0.4268,0.4275,0.4146,0.3828,0.3334,0.2486,0.182,0.1534,0.1432,0.1453,0.1597,0.463,0.726,0.8409,0.0,1.342,1.3997,1.176,0.9375,0.717,0.5426,0.403,0.2984,0.2187,0.187,0.2237,0.1789,0.1564,0.1619,0.1397,0.0789,-0.0229,0.0226,0.0449,0.0393,0.0895,0.1062,0.0894,0.0,0.0894,0.0894,0.0894,0.0894,0.0894,0.095,0.1062,0.1398,0.2408,0.2017,0.112,0.2244,0.2301,0.185,0.1176,0.0952,0.0728,-0.0449,-0.1234,-0.1911,-0.3212,-0.2247,-0.0952,-0.1513,-0.213,-0.2521,-0.2237,-0.2464,-0.2635,-0.2071,-0.1846,-0.1734,-0.1681,-0.1681,-0.1738,-0.1797,-0.1797,-0.1797,-0.1797,-0.1797,-0.1797,-0.1797,-0.2018,-0.224,-0.224,-0.2464,-0.2631,-0.2631,-0.2631,-0.2907,-0.3572,-0.3849,-0.4184,-0.4519,-0.4519,-0.4574,-0.468,-0.4629,-0.4577,-0.4577,-0.4791,-0.4846,-0.4897,-0.5445,-0.5719,0.2777,0.2503,0.2053,0.0781,0.1819,0.2868,0.1976,0.1783,0.177,0.1785,0.1794,0.1805,0.1719,0.1042,0.027,-0.0213,0.0,0.0426,0.0974,0.3092,0.5284,0.7163,0.9936,1.1901,1.244,1.2638,1.1633,0.9036,0.7265,0.5806,0.4555,0.3834,0.34,0.3294,0.3019,0.3016,0.3234,0.3012,0.2011,0.028,0.0952,0.112,0.084,0.1454,0.162,0.1397,0.1341,0.1335,0.1327,0.1337,0.1335,0.1327,0.1672,0.1902,0.2183,0.3144,0.2974,0.224,0.2238,0.2802,0.3429,0.2519,0.2238,0.2071,0.112,0.0672,0.0056,-0.1796,-0.1234,-0.0,-0.0,-0.0672,-0.1286,-0.0783,-0.1063,-0.1343,-0.1174,-0.1174,-0.1229,-0.1286,-0.1342,-0.1344,-0.1458,-0.1459,-0.1515,-0.1628,-0.1629,-0.1685,-0.1797,-0.1797,-0.1797,-0.1797,-0.1797,-0.1797,-0.1797,-0.1797,-0.2186,-0.3128,-0.3461,-0.3685,-0.3855,-0.3799,-0.391,-0.4128,-0.4239,-0.4294,-0.4294,-0.4408,-0.4519,-0.4519,-0.4897,-0.5117,0.1225,0.0514,-0.0235,-0.088,0.018,0.0929,-0.0703,-0.1029,-0.0829,-0.0557,-0.0386,-0.0131,0.025,0.019,-0.0262,-0.1212,0.0135,0.1215,0.0942,0.2689,0.4697,0.6708,0.9926,1.2262,1.298,1.3829,1.3326,1.0913,0.8765,0.7111,0.6095,0.5109,0.4889,0.5555,0.4618,0.434,0.4941,0.4009,0.2903,0.1679,0.2516,0.2629,0.2071,0.2685,0.2963,0.2907,0.2687,0.2532,0.2464,0.2544,0.253,0.2464,0.2601,0.2691,0.286,0.32,0.337,0.3482,0.3474,0.3535,0.3596,0.3474,0.3477,0.3429,0.3373,0.2579,0.1623,0.1454,0.0728,-0.0,-0.0,-0.0056,-0.0112,-0.0056,0.0336,0.0448,-0.0447,-0.0782,-0.0838,-0.056,-0.0505,-0.0505,-0.0505,-0.0505,-0.0673,-0.1066,-0.1122,-0.1291,-0.1741,-0.1797,-0.1797,-0.1797,-0.1797,-0.1797,-0.1797,-0.1797,-0.1853,-0.1909,-0.2961,-0.3574,-0.3469,-0.3244,-0.313,-0.3016,-0.3458,-0.368,-0.368,-0.4239,-0.4519,-0.4519,-0.4519,-0.4574,-0.0613,-0.1088,-0.1526,-0.211,-0.1772,-0.1509,-0.1969,-0.212,-0.2167,-0.1977,-0.2093,-0.2063,-0.1611,-0.1302,-0.0944,-0.0723,-0.0199,0.0534,0.1574,0.367,0.5707,0.7443,1.0871,1.3334,1.4029,1.4452,1.3995,1.233,1.047,0.8815,0.7558,0.6558,0.6032,0.6032,0.5386,0.5285,0.5664,0.5281,0.4725,0.3941,0.3231,0.2794,0.2738,0.2898,0.2976,0.303,0.2863,0.2659,0.2528,0.2886,0.3013,0.304,0.3473,0.3683,0.3741,0.4132,0.4356,0.4411,0.4625,0.4684,0.4577,0.4245,0.4135,0.4086,0.3699,0.3304,0.2912,0.2916,0.2579,0.1906,0.0392,-0.0,-0.0,-0.0,0.0168,0.0336,0.0336,0.028,0.028,0.0393,0.0168,-0.0112,-0.0336,-0.0393,-0.0449,-0.0617,-0.0673,-0.0729,-0.0898,-0.0954,-0.1066,-0.1347,-0.1628,-0.1797,-0.1797,-0.1797,-0.1741,-0.1685,-0.213,-0.2464,-0.2631,-0.2517,-0.2516,-0.2792,-0.2959,-0.3014,-0.3014,-0.3292,-0.3569,-0.3959,-0.3959,-0.4128,-0.223,-0.2441,-0.2663,-0.3275,-0.3285,-0.3161,-0.3044,-0.3192,-0.3294,-0.3164,-0.3103,-0.2969,-0.2499,-0.2083,-0.1468,-0.0517,-0.0195,0.0519,0.1972,0.3953,0.5934,0.7739,1.0789,1.313,1.4094,1.4657,1.4446,1.319,1.1715,1.0316,0.9037,0.8,0.732,0.6934,0.6367,0.6164,0.6386,0.6109,0.5882,0.5806,0.4388,0.3677,0.3511,0.3325,0.3291,0.3284,0.3123,0.2922,0.2817,0.3169,0.3313,0.3462,0.3963,0.4125,0.4181,0.4567,0.4732,0.4897,0.5117,0.5226,0.5226,0.4901,0.4736,0.468,0.4242,0.4024,0.386,0.3866,0.3761,0.3198,0.1567,0.084,0.056,0.056,0.0728,0.0896,0.1122,0.1177,0.1064,0.0954,0.0617,0.0336,0.0056,-0.0,-0.0056,-0.0168,-0.0224,-0.028,-0.0393,-0.0393,-0.0505,-0.0842,-0.1178,-0.1403,-0.1572,-0.1572,-0.1628,-0.1685,-0.1572,-0.1626,-0.1905,-0.1792,-0.1847,-0.2179,-0.2347,-0.2402,-0.2402,-0.2625,-0.2903,-0.3292,-0.3292,-0.3627,-0.3445,-0.3613,-0.3758,-0.4416,-0.4222,-0.3878,-0.4061,-0.4335,-0.4436,-0.4048,-0.3464,-0.2795,-0.2236,-0.201,-0.168,-0.0896,0.0188,0.129,0.2081,0.3251,0.4944,0.7427,0.9467,1.1338,1.2963,1.4456,1.476,1.3421,1.2389,1.1414,1.0466,0.954,0.8862,0.8534,0.7605,0.7198,0.7317,0.6322,0.6204,0.6907,0.6322,0.5445,0.4388,0.4125,0.4021,0.4012,0.3666,0.3609,0.3696,0.3571,0.3649,0.3831,0.3966,0.4021,0.4021,0.4177,0.4453,0.4728,0.4897,0.5117,0.5336,0.5336,0.5336,0.5336,0.5277,0.4952,0.4519,0.4519,0.4079,0.3641,0.3585,0.2742,0.1846,0.1846,0.2296,0.2523,0.1965,0.1737,0.1455,0.1009,0.0898,0.0898,0.0898,0.0898,0.0785,0.028,0.0224,0.0056,-0.0336,-0.0393,-0.0393,-0.0393,-0.0393,-0.0561,-0.1066,-0.1066,-0.129,-0.1741,-0.1459,-0.129,-0.1291,-0.1178,-0.1122,-0.1122,-0.1568,-0.179,-0.179,-0.2402,-0.2681,-0.2681,-0.2681,-0.3014,-0.3577,-0.3691,-0.3762,-0.3978,-0.3938,-0.3922,-0.408,-0.4281,-0.4492,-0.4722,-0.3711,-0.2784,-0.2812,-0.1956,-0.1071,-0.0426,0.018,0.1072,0.2432,0.3877,0.5575,0.7729,1.0078,1.2219,1.3926,1.5257,1.5749,1.5177,1.4025,1.29,1.1871,1.0312,0.9399,0.9287,0.8461,0.7937,0.7723,0.7444,0.72,0.7102,0.6785,0.6312,0.5647,0.528,0.5126,0.5076,0.4435,0.407,0.3962,0.3877,0.4228,0.483,0.4812,0.4807,0.4952,0.5042,0.5387,0.5751,0.5889,0.6197,0.648,0.6046,0.5937,0.5882,0.5441,0.5171,0.5062,0.5062,0.4952,0.4736,0.4353,0.3962,0.363,0.3423,0.3485,0.354,0.3368,0.3079,0.274,0.2631,0.2348,0.2179,0.2179,0.2179,0.1958,0.1399,0.1343,0.112,0.0561,0.0224,-0.0,-0.0,-0.0224,-0.0449,-0.0617,-0.0617,-0.0617,-0.0673,-0.0393,-0.0561,-0.129,-0.1066,-0.0954,-0.0954,-0.1121,-0.1177,-0.1177,-0.1344,-0.1679,-0.2068,-0.2068,-0.2402,-0.457,-0.4568,-0.4461,-0.4516,-0.4278,-0.4039,-0.4162,-0.4322,-0.4472,-0.4541,-0.3736,-0.2941,-0.2577,-0.1575,-0.0563,0.0301,0.083,0.1702,0.3098,0.4416,0.595,0.7929,1.0101,1.2127,1.3896,1.5305,1.6022,1.5754,1.502,1.4234,1.3395,1.1603,1.0509,1.0151,0.9347,0.8514,0.7777,0.7984,0.7757,0.7104,0.7182,0.6932,0.6426,0.5889,0.5636,0.5507,0.5074,0.4794,0.4662,0.4773,0.5183,0.5759,0.5718,0.5724,0.5815,0.5901,0.6137,0.6369,0.6437,0.6659,0.6878,0.664,0.6479,0.6371,0.6077,0.5828,0.566,0.566,0.5496,0.5226,0.4897,0.4846,0.4629,0.3984,0.3819,0.3816,0.3585,0.3357,0.3188,0.3021,0.2852,0.2681,0.2681,0.2681,0.2569,0.2235,0.2179,0.2012,0.168,0.1175,0.084,0.084,0.0392,0.0056,-0.0168,-0.0056,-0.0,-0.0112,0.0224,0.0112,-0.0504,-0.0505,-0.0673,-0.0898,-0.0898,-0.0898,-0.0898,-0.0898,-0.1065,-0.1456,-0.1456,-0.179,-0.5937,-0.5746,-0.5474,-0.558,-0.484,-0.4164,-0.4207,-0.4361,-0.4359,-0.3892,-0.3549,-0.2965,-0.1804,-0.0941,-0.0061,0.0981,0.1848,0.2799,0.39,0.4804,0.6117,0.8134,0.9796,1.15,1.3263,1.4962,1.5841,1.5595,1.5552,1.5355,1.489,1.3159,1.1855,1.1082,1.0108,0.8988,0.7622,0.8156,0.7955,0.7053,0.7431,0.7326,0.6752,0.6152,0.5741,0.5473,0.561,0.5592,0.5541,0.5815,0.6149,0.6417,0.6494,0.6539,0.6622,0.66,0.6602,0.6584,0.6616,0.6651,0.6781,0.7059,0.696,0.6778,0.7068,0.6756,0.6263,0.6263,0.5882,0.5445,0.5386,0.5386,0.5117,0.4024,0.3749,0.358,0.313,0.313,0.3077,0.2745,0.2796,0.2847,0.2847,0.2847,0.2847,0.2792,0.2736,0.2681,0.2681,0.2235,0.1846,0.179,0.1344,0.0841,0.0336,0.0617,0.0617,0.0168,0.0559,0.0838,0.0782,0.0336,-0.0168,-0.0729,-0.0729,-0.0729,-0.0729,-0.0785,-0.0842,-0.0842,-0.0898,-0.1177,-0.4952,-0.4851,-0.4838,-0.4984,-0.4601,-0.4132,-0.3549,-0.3485,-0.3485,-0.3553,-0.2604,-0.172,-0.1617,-0.0628,0.0305,0.0536,0.1727,0.2869,0.3596,0.5109,0.6811,0.8561,1.0343,1.2006,1.3569,1.5222,1.6208,1.6206,1.5966,1.5682,1.5386,1.3356,1.1913,1.1358,1.0415,0.9444,0.8514,0.8672,0.8268,0.7388,0.7791,0.7471,0.6505,0.643,0.6236,0.596,0.6042,0.5955,0.5781,0.5656,0.5955,0.646,0.615,0.6298,0.6606,0.6464,0.6504,0.6611,0.6721,0.6904,0.7158,0.7482,0.7337,0.7127,0.7488,0.7241,0.6918,0.6918,0.681,0.6593,0.6154,0.5987,0.5823,0.5117,0.4684,0.4356,0.3855,0.3855,0.3916,0.3858,0.3965,0.4125,0.4125,0.4125,0.3959,0.3458,0.3014,0.2681,0.2681,0.2569,0.2347,0.1846,0.2125,0.1958,0.1122,0.1569,0.1736,0.1455,0.1679,0.1677,0.1174,0.0894,0.0671,0.0503,0.0503,0.0503,0.0503,0.0056,-0.0168,-0.0224,-0.0673,-0.0953,-0.4952,-0.4791,-0.4663,-0.4565,-0.4134,-0.3689,-0.3284,-0.2681,-0.2146,-0.1874,-0.1476,-0.0999,-0.0388,0.044,0.1157,0.1534,0.2734,0.3788,0.4064,0.5747,0.7309,0.837,1.0214,1.1926,1.3338,1.5048,1.6231,1.6647,1.6983,1.7064,1.6844,1.5574,1.4239,1.2929,1.2231,1.0939,0.902,0.9242,0.868,0.7296,0.7821,0.7569,0.663,0.6494,0.634,0.6263,0.6296,0.6237,0.6202,0.6122,0.6406,0.6888,0.6706,0.6818,0.7044,0.6948,0.6862,0.6811,0.6911,0.6973,0.7113,0.7382,0.7322,0.7139,0.7372,0.7489,0.746,0.7422,0.7402,0.7295,0.702,0.675,0.648,0.5878,0.5175,0.4522,0.4298,0.419,0.4079,0.4079,0.4301,0.4519,0.4519,0.4519,0.4405,0.4073,0.3738,0.3569,0.3569,0.3292,0.3014,0.2681,0.2681,0.2514,0.2015,0.246,0.2627,0.224,0.2575,0.2519,0.2015,0.1846,0.151,0.0894,0.0894,0.0894,0.0894,0.0559,0.0448,0.0448,0.0112,-0.0056,-0.5332,-0.4959,-0.4535,-0.4145,-0.3544,-0.2948,-0.2882,-0.1811,-0.0671,0.0067,-0.0268,-0.0334,0.1042,0.1647,0.2211,0.2913,0.3969,0.4831,0.4963,0.647,0.7759,0.8383,1.0084,1.1747,1.3022,1.4711,1.604,1.6854,1.775,1.8322,1.8338,1.7871,1.6789,1.498,1.4227,1.2566,0.9882,0.9946,0.9127,0.7468,0.7709,0.7508,0.6914,0.6526,0.6398,0.6581,0.6538,0.6532,0.6605,0.666,0.6911,0.7244,0.737,0.7422,0.7468,0.7506,0.7275,0.7025,0.7109,0.7069,0.6999,0.7207,0.7167,0.7126,0.7326,0.7639,0.7904,0.7811,0.783,0.7777,0.7723,0.7456,0.7079,0.648,0.5605,0.4842,0.468,0.4463,0.4242,0.4187,0.4353,0.4515,0.4625,0.457,0.4519,0.4519,0.4519,0.4519,0.4519,0.407,0.3738,0.3627,0.3236,0.2959,0.2792,0.3236,0.335,0.2912,0.319,0.3246,0.2912,0.2858,0.2406,0.1452,0.1285,0.1229,0.1229,0.1118,0.1062,0.1062,0.095,0.0894,-0.5441,-0.4606,-0.3768,-0.3272,-0.2703,-0.2079,-0.1545,-0.0738,0.0067,0.0806,0.0873,0.1074,0.1803,0.2413,0.2977,0.3374,0.4336,0.5288,0.6064,0.7015,0.8237,0.9717,1.0797,1.1913,1.3246,1.463,1.5752,1.6434,1.7078,1.7772,1.844,1.771,1.7054,1.6596,1.4733,1.3346,1.2599,1.0748,0.9485,0.882,0.769,0.715,0.7174,0.6914,0.6999,0.7251,0.7027,0.6937,0.6901,0.6647,0.6731,0.7045,0.6985,0.7124,0.734,0.7468,0.7275,0.7025,0.7361,0.7325,0.7228,0.7524,0.7515,0.7452,0.801,0.8036,0.7955,0.8239,0.8315,0.8209,0.783,0.767,0.7509,0.7079,0.6745,0.6249,0.5386,0.5285,0.5289,0.4846,0.4625,0.4625,0.5117,0.4791,0.4519,0.4519,0.4519,0.4519,0.4519,0.4408,0.4184,0.368,0.4015,0.3904,0.313,0.3688,0.3968,0.3688,0.3466,0.3524,0.3802,0.3469,0.3413,0.3574,0.2854,0.2465,0.2465,0.1958,0.1679,0.1677,0.1118,0.0894,-0.427,-0.3627,-0.3146,-0.2605,-0.2013,-0.1449,-0.1138,-0.0201,0.0872,0.1679,0.208,0.2347,0.2681,0.3142,0.3624,0.4072,0.4897,0.5766,0.6337,0.7224,0.829,0.9577,1.104,1.2376,1.3453,1.4982,1.6139,1.6697,1.7499,1.8221,1.881,1.9023,1.861,1.7444,1.609,1.4569,1.2825,1.128,0.999,0.8966,0.787,0.7367,0.7363,0.7412,0.7546,0.7652,0.7356,0.7419,0.7688,0.7391,0.7363,0.7516,0.7497,0.7447,0.7358,0.748,0.7262,0.6963,0.7174,0.7227,0.7237,0.7367,0.7568,0.7774,0.801,0.8315,0.8625,0.8711,0.8745,0.8685,0.8474,0.8262,0.8043,0.7889,0.7777,0.7551,0.7122,0.647,0.5878,0.5559,0.55,0.5555,0.5773,0.5609,0.5445,0.5445,0.5171,0.4952,0.4952,0.468,0.4405,0.4128,0.4408,0.4463,0.4021,0.4411,0.4574,0.4239,0.4132,0.4079,0.4024,0.3858,0.3802,0.4021,0.3413,0.3079,0.3079,0.2575,0.2296,0.2296,0.2015,0.1902,-0.322,-0.2683,-0.2434,-0.1864,-0.1138,-0.0513,-0.0528,0.0598,0.1864,0.2613,0.3349,0.388,0.388,0.4009,0.4365,0.4927,0.5668,0.6292,0.6803,0.7687,0.8705,0.974,1.1299,1.2725,1.3669,1.5073,1.6139,1.6778,1.7733,1.8517,1.9067,1.9978,1.9909,1.8731,1.7757,1.61,1.3663,1.1757,1.0164,0.8845,0.8165,0.7802,0.7773,0.7912,0.805,0.8195,0.7674,0.7759,0.8214,0.7891,0.7787,0.787,0.7946,0.7821,0.7579,0.7648,0.7489,0.7245,0.7189,0.7238,0.7286,0.7209,0.7482,0.785,0.7886,0.844,0.9067,0.9073,0.9103,0.9113,0.9008,0.8798,0.8533,0.8421,0.8474,0.8533,0.8421,0.7492,0.6676,0.6745,0.6686,0.6676,0.6789,0.6735,0.6573,0.6416,0.6036,0.5655,0.555,0.5171,0.4956,0.4956,0.5066,0.5069,0.4963,0.5183,0.5124,0.4684,0.4688,0.4577,0.4356,0.4245,0.4245,0.4356,0.3913,0.3635,0.3413,0.3135,0.297,0.2856,0.297,0.297,-0.2907,-0.2121,-0.1529,-0.0943,0.0121,0.0995,0.1154,0.219,0.3307,0.3671,0.4815,0.5738,0.5738,0.5338,0.5291,0.6168,0.6585,0.714,0.801,0.8931,0.9894,1.099,1.171,1.2598,1.3873,1.4468,1.5242,1.6269,1.7201,1.8145,1.9067,1.9564,2.0237,2.1075,1.9595,1.8056,1.6511,1.2205,0.9624,0.8826,0.8548,0.8455,0.8431,0.825,0.8488,0.9004,0.8062,0.7795,0.8002,0.7587,0.753,0.7724,0.787,0.7946,0.7979,0.8095,0.8185,0.8193,0.7807,0.7682,0.7599,0.7147,0.7209,0.7497,0.7813,0.8268,0.878,0.9109,0.9351,0.9465,0.9113,0.8956,0.885,0.8474,0.8692,0.885,0.8474,0.819,0.8178,0.8712,0.8258,0.7982,0.8469,0.814,0.7611,0.7047,0.6945,0.673,0.6209,0.6154,0.61,0.61,0.6253,0.6095,0.5618,0.5782,0.5673,0.5124,0.4853,0.4857,0.5242,0.4857,0.4857,0.5242,0.4857,0.4245,0.3413,0.3747,0.3744,0.3357,0.3747,0.3744,-0.2291,-0.1691,-0.1201,-0.0234,0.0533,0.1144,0.1243,0.2251,0.34,0.4268,0.5135,0.6012,0.7037,0.699,0.6798,0.6993,0.7685,0.8337,0.867,0.9533,1.0504,1.1285,1.2147,1.3074,1.4107,1.4824,1.5543,1.6269,1.6964,1.7625,1.8171,1.9014,1.9491,1.9513,1.907,1.7497,1.4658,1.2398,1.0586,0.9185,0.884,0.8622,0.8521,0.8439,0.8594,0.8907,0.8561,0.8476,0.8574,0.832,0.8267,0.8349,0.8521,0.8447,0.8283,0.8357,0.8267,0.8134,0.8357,0.8477,0.8512,0.8341,0.8537,0.878,0.865,0.915,0.9667,0.9501,0.9733,0.988,0.9465,0.9361,0.9361,0.9204,0.9309,0.9361,0.9204,0.8928,0.8817,0.9197,0.9131,0.9065,0.9228,0.9117,0.8908,0.8698,0.8324,0.7994,0.7841,0.7154,0.6789,0.6891,0.6583,0.6426,0.6426,0.6534,0.6534,0.6376,0.5941,0.5723,0.5887,0.5348,0.5132,0.5297,0.5132,0.4798,0.4245,0.4079,0.391,0.3802,0.391,0.391,-0.2181,-0.1579,-0.1083,-0.0058,0.0875,0.1594,0.1688,0.2605,0.3785,0.4823,0.5583,0.6467,0.7681,0.8132,0.8249,0.8096,0.868,0.9288,0.9502,1.0572,1.1449,1.1921,1.3101,1.408,1.4602,1.536,1.5924,1.6337,1.671,1.7131,1.7707,1.8419,1.8825,1.8917,1.885,1.7491,1.4763,1.3609,1.2286,1.079,1.02,0.98,0.9516,0.9131,0.8958,0.891,0.882,0.8881,0.9014,0.8938,0.8958,0.9088,0.9088,0.8975,0.8822,0.8773,0.8676,0.8689,0.8931,0.9128,0.9297,0.9052,0.9298,0.9562,0.916,0.9686,1.0358,1.0011,1.0077,1.0198,0.9932,0.9718,0.9614,0.9614,0.9614,0.9614,0.9725,0.951,0.9406,0.9725,0.9932,1.0079,1.0182,1.0182,1.0079,0.988,0.9547,0.9214,0.9006,0.8324,0.7847,0.78,0.7498,0.7241,0.7128,0.7128,0.7128,0.7085,0.6701,0.648,0.648,0.6109,0.5786,0.5622,0.5622,0.5348,0.4912,0.4577,0.4356,0.4245,0.4356,0.4356,0.0,0.0,0.0,-0.0396,0.1148,0.2466,0.2525,0.3409,0.4445,0.5419,0.6371,0.7116,0.7649,0.8674,0.9454,0.9314,0.96,1.0033,1.0562,1.1971,1.2931,1.2922,1.441,1.5445,1.5408,1.5831,1.6182,1.6473,1.6367,1.674,1.7707,1.7787,1.8394,1.9752,1.9127,1.8266,1.7207,1.5805,1.4608,1.3637,1.2699,1.2072,1.1646,1.046,0.967,0.9274,0.8999,0.9062,0.9359,0.9319,0.9487,0.9744,0.9457,0.9475,0.9701,0.9372,0.9538,0.9906,0.9598,0.975,0.9942,0.9289,0.9367,0.9678,0.9256,0.9831,1.0607,1.0607,1.0475,1.0403,1.0403,0.9976,0.9614,0.9614,0.9614,0.9666,0.9947,0.9999,1.0102,1.0419,1.0718,1.0972,1.1226,1.1276,1.1065,1.0506,1.0454,1.0241,0.9718,0.9614,0.9406,0.8935,0.8942,0.8633,0.7676,0.7723,0.7616,0.7187,0.7139,0.7133,0.7139,0.7085,0.681,0.6263,0.6209,0.5941,0.5352,0.5301,0.5077,0.4746,0.5132,0.5077,-0.3304,0.0,0.0,0.0,0.0,0.0,0.2548,0.3339,0.4252,0.6096,0.6694,0.7195,0.8215,0.8979,0.9503,0.9847,1.0316,1.0773,1.1092,1.2547,1.3412,1.3068,1.4218,1.5099,1.5348,1.5497,1.5765,0.0,1.6337,1.6509,1.665,1.7338,1.8238,1.9398,1.8511,1.7675,1.6987,1.5738,1.4952,1.4685,1.4176,1.3754,1.3385,1.2664,1.1864,1.1045,1.0576,1.0542,1.0667,0.9707,0.9359,0.9475,0.9853,1.0146,1.0307,1.0511,1.0773,1.1098,1.1292,1.1288,1.1195,1.1141,1.0992,1.0816,1.0499,1.0785,1.1093,1.0349,1.0475,1.0608,0.9976,0.9718,0.9614,0.9614,0.9614,0.9614,0.9673,0.9725,0.988,1.0419,1.0573,1.0718,1.0972,1.1023,1.1023,1.1065,1.1065,1.1015,1.0854,1.0446,1.019,1.019,0.9821,0.9555,0.9436,0.9488,0.9332,0.8928,0.8567,0.8137,0.7717,0.7295,0.7031,0.6864,0.6864,0.6539,0.5941,0.5513,0.5242,0.5132,0.5242,0.5077,0.0,-0.3078,-0.2101,-0.0923,0.0,0.0,0.2322,0.2987,0.3838,0.5773,0.6348,0.6958,0.8244,0.8991,0.9582,1.013,1.0638,1.1017,1.1363,1.2768,1.3763,1.3469,1.4646,1.5592,1.5796,1.5861,1.587,1.5848,1.6175,1.6362,1.6318,1.7297,1.8094,1.865,1.8532,1.813,1.7445,1.7007,1.652,1.592,1.5763,1.5448,1.4944,1.4039,1.3191,1.2369,1.1664,1.1274,1.1132,1.0437,1.0089,1.0059,1.0302,1.0522,1.0653,1.0982,1.1334,1.165,1.1981,1.21,1.2139,1.2192,1.2157,1.2063,1.1863,1.1935,1.1997,1.1432,1.1228,1.1065,1.0395,1.0241,1.019,0.9976,0.9925,0.988,0.9666,0.9614,0.9777,1.036,1.0522,1.0624,1.1023,1.1074,1.1124,1.1276,1.1326,1.1326,1.1326,1.0964,1.0761,1.0667,1.0344,1.0174,1.0218,1.0218,1.0115,0.9969,0.9651,0.9235,0.8613,0.8296,0.8031,0.7824,0.7557,0.7128,0.6593,0.5941,0.5567,0.5297,0.5297,0.5187,0.0,0.0,0.0,-0.164,-0.0177,0.0,0.1901,0.2494,0.3331,0.4975,0.5784,0.6567,0.7788,0.8732,0.9512,1.0192,1.0561,1.0951,1.1423,1.288,1.3829,1.3829,1.5328,1.6345,1.6332,1.6395,1.6218,1.5727,1.5957,1.6188,1.6423,1.7242,1.7733,1.7666,1.8655,1.8848,1.8136,1.8703,1.8405,1.7333,1.7331,1.7037,1.6405,1.5106,1.4156,1.3493,1.2499,1.1778,1.1303,1.1318,1.1266,1.1096,1.0933,1.0932,1.1071,1.1334,1.158,1.1893,1.2182,1.2415,1.2638,1.2613,1.2826,1.3067,1.2985,1.2949,1.2919,1.2871,1.2246,1.1519,1.1175,1.1074,1.0964,1.0557,1.0423,1.0289,0.9813,0.968,0.9826,1.045,1.0498,1.0616,1.1124,1.1226,1.1276,1.1326,1.1326,1.1326,1.1326,1.1326,1.1116,1.0702,1.0702,1.06,1.0372,1.0372,1.0423,1.0525,1.0525,1.0269,0.971,0.9666,0.9451,0.8981,0.8349,0.7717,0.7192,0.6588,0.605,0.5517,0.5517,0.5462,-0.6128,-0.5012,-0.3856,-0.2494,-0.1613,0.0,0.1999,0.2657,0.328,0.5058,0.5968,0.662,0.7477,0.8215,0.8934,0.9526,1.0198,1.082,1.1408,1.2598,1.3424,1.3424,1.4516,1.5453,1.5867,1.5948,1.5997,1.6212,1.5768,1.5623,1.5932,1.6027,1.633,1.6879,1.7168,1.7477,1.7796,1.7669,1.7973,1.8711,1.8435,1.8236,1.8027,1.7314,1.6313,1.5098,1.4035,1.3451,1.3169,1.1991,1.1686,1.1923,1.2315,1.2573,1.2764,1.314,1.3121,1.2944,1.3087,1.2795,1.2344,1.2513,1.2451,1.2268,1.2528,1.2584,1.2471,1.1959,1.1309,1.0812,1.0922,1.0922,1.0922,1.0964,1.0689,1.0417,1.0392,1.0161,1.0101,1.0754,1.0464,1.0205,1.0565,1.082,1.1074,1.1276,1.1326,1.1326,1.1326,1.1326,1.1276,1.1167,1.1267,1.1368,1.141,1.151,1.146,1.1158,1.1108,1.0846,1.0269,1.0269,1.021,1.0108,0.9131,0.8349,0.7771,0.7187,0.6869,0.6761,0.6761,0.6485,-0.7095,-0.6046,-0.4945,-0.3359,-0.2341,0.0,0.0,0.1886,0.2743,0.4121,0.5199,0.6169,0.727,0.8031,0.8701,0.9369,1.0169,1.0696,1.0663,1.2228,1.3423,1.3423,1.412,1.4956,1.5734,1.5389,1.5268,1.5703,1.513,1.4892,1.5242,1.5276,1.5576,1.6126,1.635,1.6723,1.7323,1.7268,1.7469,1.7951,1.8286,1.8427,1.8327,1.7827,1.6991,1.5848,1.4904,1.4162,1.3592,1.3345,1.332,1.3363,1.3014,1.3087,1.3518,1.3957,1.3847,1.3515,1.3647,1.317,1.2538,1.2756,1.2756,1.2711,1.3007,1.2959,1.2696,1.1918,1.1519,1.1368,1.1569,1.1628,1.1525,1.1233,1.1132,1.0979,1.0433,1.0454,1.0586,1.0492,1.0479,1.0698,1.1292,1.1528,1.1678,1.1877,1.1728,1.1628,1.1628,1.1427,1.1326,1.1368,1.1528,1.1669,1.1778,1.1927,1.1927,1.1719,1.1728,1.1418,1.0897,1.0846,1.0685,1.0415,1.0167,0.9607,0.8771,0.8455,0.7931,0.7085,0.7085,0.6923,-0.8255,-0.7069,-0.5846,-0.4265,-0.3004,-0.1788,0.0,0.0,0.0,0.3017,0.4216,0.5474,0.687,0.7591,0.8248,0.906,0.9937,1.0385,0.9783,1.1748,1.3237,1.317,1.3761,1.4535,1.5522,1.4985,1.4693,1.4926,1.4439,1.4298,1.4571,1.4687,1.4949,1.5365,1.5808,1.6213,1.665,1.7047,1.7074,1.677,1.7583,1.8012,1.8086,1.7551,1.6961,1.6243,1.5351,1.445,1.3652,1.4328,1.4663,1.4664,1.3713,1.3512,1.3828,1.426,1.4074,1.363,1.3758,1.3313,1.2713,1.2845,1.3007,1.319,1.3398,1.3376,1.3122,1.2314,1.207,1.2113,1.2211,1.2145,1.1927,1.1431,1.1456,1.139,1.0565,1.0789,1.0963,1.0405,1.0747,1.1311,1.1888,1.2057,1.2211,1.2357,1.2178,1.2026,1.2026,1.1719,1.1569,1.1678,1.1728,1.1828,1.1977,1.2026,1.2076,1.2076,1.2076,1.1927,1.1469,1.1469,1.1158,1.0576,1.1057,1.0804,0.9762,0.9762,0.8928,0.7408,0.7408,0.7354,-0.9973,-0.8448,-0.6822,-0.5287,-0.4161,-0.2757,-0.0348,0.0,0.0939,0.2745,0.0,0.4487,0.5509,0.0,0.0,0.7568,0.88,0.9629,0.9371,1.1138,1.2321,1.2026,1.2995,1.3972,1.4839,1.5182,1.5124,1.4545,1.4146,1.4052,1.4244,1.4035,1.4129,1.4582,1.5287,1.5676,1.5764,1.6539,1.6866,1.6693,1.6811,1.7175,1.7732,1.6999,1.6691,1.6585,1.5365,1.4647,1.4328,1.3795,1.4121,1.4991,1.5268,1.4828,1.4079,1.4136,1.3618,1.2946,1.3084,1.2767,1.2312,1.2133,1.2298,1.2593,1.2534,1.3016,1.343,1.292,1.2368,1.194,1.194,1.1509,1.1177,1.1547,1.1092,1.0801,1.1591,1.1259,1.0965,1.133,1.1523,1.1449,1.0804,1.125,1.1724,1.1874,1.2186,1.2421,1.2421,1.2372,1.2382,1.2382,1.2175,1.2126,1.2224,1.2076,1.1977,1.2076,1.2076,1.2076,1.2026,1.2026,1.1769,1.1217,1.1267,1.0947,1.032,1.032,0.971,0.8593,0.8593,0.8315,-1.1376,-1.0104,-0.8829,-0.6849,-0.5656,-0.4463,-0.249,0.0,-0.0466,0.0878,0.0,0.0,0.0,0.0,0.0,0.0,0.8173,0.8932,0.9061,1.0482,1.1573,1.185,1.27,1.3484,1.3962,1.4419,1.4483,1.3973,1.3719,1.3631,1.3726,1.361,1.3752,1.4212,1.4433,1.4709,1.4983,1.5254,1.5466,1.5676,1.5676,1.5856,1.623,1.5947,1.5518,1.5003,1.4904,1.4547,1.4072,1.4499,1.4712,1.4822,1.5507,1.5248,1.4488,1.4538,1.3945,1.3181,1.3242,1.2876,1.2362,1.2608,1.285,1.3031,1.339,1.3585,1.3621,1.3266,1.2944,1.2626,1.2626,1.2582,1.2365,1.1869,1.1659,1.1421,1.0927,1.0989,1.1074,1.0797,1.1025,1.1071,1.052,1.145,1.2434,1.2775,1.2821,1.2793,1.2793,1.2608,1.248,1.248,1.2559,1.2598,1.2529,1.2754,1.2842,1.2745,1.2589,1.2403,1.2126,1.2076,1.1977,1.1778,1.1778,1.1469,1.0897,1.0897,1.0482,0.971,0.9413,0.8949,-1.2905,-1.1721,-1.0501,-0.8564,-0.7422,0.0,0.0,0.0,0.0,-0.0981,0.0237,0.0,0.0,0.0,0.4763,0.0,0.0,0.7826,0.8063,0.9285,1.0543,1.1406,1.2384,1.3077,0.0,1.373,1.3779,1.3342,1.3195,1.3052,1.3007,1.2987,1.317,1.36,1.3505,1.3695,1.4362,1.4247,1.4376,1.4778,1.4778,1.4831,1.4929,1.4845,1.4405,1.3766,1.4205,1.4085,1.3728,1.4863,1.4994,1.455,1.5384,1.5216,1.4495,1.4727,1.428,1.3556,1.3446,1.2878,1.2302,1.2923,1.3182,1.3368,1.4049,1.4185,1.4082,1.3909,1.3663,1.344,1.3346,1.3273,1.2962,1.2118,1.2051,1.1947,1.1081,1.1328,1.1539,1.0975,1.1095,1.1206,1.096,1.1838,1.273,1.315,1.3162,1.316,1.316,1.2939,1.2813,1.2813,1.2939,1.3025,1.2958,1.3286,1.342,1.3314,1.3122,1.288,1.251,1.2363,1.2304,1.2304,1.2166,1.1927,1.1528,1.1528,1.1209,1.0626,1.0072,0.9614,0.0,0.0,0.0,-1.0394,0.0,0.0,0.0,0.0,-0.4065,0.0,0.0,0.0235,0.0877,0.2517,0.3698,0.0,0.0,0.0,0.0,0.7438,0.8949,1.0368,1.1873,1.2885,1.3104,1.3394,1.335,0.0,1.2466,1.2244,1.2045,1.1968,1.2166,1.2657,1.253,1.2948,1.4025,1.3956,1.4097,1.4501,1.4501,1.4406,1.4227,1.3979,1.3771,1.3594,1.3231,1.3228,1.3565,1.4328,1.4432,1.421,1.5119,1.4735,1.3714,1.4369,1.4333,1.3901,1.3376,1.2636,1.2011,1.2548,1.2878,1.3206,1.3901,1.4473,1.4903,1.5006,1.4596,1.4013,1.3751,1.2858,1.2082,1.2183,1.1892,1.1892,1.2889,1.2806,1.2626,1.2772,1.2524,1.2267,1.2245,1.211,1.2037,1.2124,1.296,1.3563,1.3563,1.3573,1.3563,1.3563,1.3314,1.3314,1.3573,1.3372,1.3314,1.3563,1.3563,1.3573,1.3573,1.3064,1.2764,1.2764,1.2353,1.2076,1.2076,1.2076,1.1778,1.1267,1.0635,1.0364,0.0,0.0,-1.3268,-1.2197,0.0,0.0,0.0,0.0,0.0,0.0,0.0,0.0,-0.1295,0.0,0.0,0.0,0.0,0.0,0.0,0.7461,0.8685,0.9862,1.1097,1.1858,1.1928,1.2093,0.0,1.2079,1.2033,1.2009,1.1986,1.1959,1.2058,1.2206,1.2107,1.2255,1.2589,1.2482,1.253,1.2638,1.2939,1.2826,1.2494,1.295,1.2711,1.202,1.2422,1.26,1.2615,1.3067,1.3462,1.3762,1.4259,1.4268,1.4016,1.3997,1.3818,1.3559,1.3678,1.3495,1.3324,1.3941,1.4224,1.4402,1.512,1.5316,1.5322,1.5412,1.5239,1.501,1.4921,1.4624,1.4152,1.3596,1.3259,1.2968,1.2732,1.2605,1.2584,1.2742,1.2446,1.2309,1.2737,1.2759,1.2765,1.2922,1.3538,1.3894,1.361,1.3621,1.3621,1.3621,1.3847,1.3941,1.3868,1.3952,1.4035,1.414,1.3941,1.38,1.361,1.342,1.3314,1.3314,1.318,1.2939,1.2589,1.2589,1.2295,1.1828,1.161,1.1141,-1.6884,-1.5785,0.0,-1.398,-1.252,0.0,-1.0568,0.0,-0.8493,0.0,0.0,0.0,0.0,0.0,0.0,0.0,0.0,0.0,0.0,0.6946,0.8005,0.8954,1.0099,1.0923,1.1294,1.1412,1.143,1.1309,1.1295,1.1237,1.1023,1.099,1.1091,1.1292,1.12,1.1351,1.1701,1.1619,1.1628,1.1769,1.2026,1.1788,1.1176,1.2214,1.1937,1.0687,1.1789,1.2058,1.1799,1.2433,1.2878,1.322,1.3685,1.3898,1.391,1.3971,1.3835,1.3659,1.3933,1.4134,1.4356,1.4955,1.518,1.5327,1.6028,1.5949,1.5647,1.578,1.5824,1.5824,1.5736,1.546,1.506,1.4321,1.4024,1.3729,1.3162,1.314,1.3257,1.3384,1.3089,1.2934,1.3372,1.3648,1.3749,1.3587,1.4045,1.4305,1.4071,1.4071,1.4082,1.4129,1.4455,1.4558,1.428,1.4512,1.4651,1.4731,1.4582,1.4444,1.4305,1.4165,1.4035,1.3905,1.3716,1.342,1.3064,1.3064,1.2929,1.2657,1.2657,1.2138]},{"header":{"parameterUnit":"m.s-1","parameterCategory":1,"la1":30.6,"la2":29.2853,"lo1":-89.7004,"lo2":-87.6739,"dy":0.0162,"dx":0.0183,"nx":112,"ny":82,"refTime":"2023-05-27T06:00:00:Z","depth":0,"parameterNumber":3,"parameterNumberName":"V-component_of_WINDS"},"data":[0.0,0.0,0.0,0.0,0.0,0.0,0.0,0.0,0.0,0.0,0.0,0.0,0.0,0.0,0.0,0.0,0.0,0.0,0.0,0.0,0.0,0.0,0.0,0.0,0.0,0.0,0.0,0.0,0.0,0.0,0.0,0.0,0.0,0.0,0.0,0.0,0.0,0.0,0.0,0.0,0.0,0.0,0.0,0.0,0.0,0.0,0.0,0.0,0.0,0.0,0.0,0.0,0.0,0.0,0.0,0.0,0.0,0.0,0.0,0.0,0.0,0.0,0.0,0.0,0.0,0.0,0.0,0.0,0.0,0.0,0.0,0.0,0.0,0.0,0.0,0.0,0.0,0.0,0.0,0.0,0.0,0.0,0.0,0.0,0.0,0.0,0.0,0.0,0.0,0.0,-3.0847,-3.2614,-3.2206,-3.2254,-3.3373,-3.3818,-3.2839,-3.01,0.0,0.0,0.0,0.0,0.0,0.0,0.0,0.0,0.0,0.0,0.0,0.0,0.0,0.0,0.0,0.0,0.0,0.0,0.0,0.0,0.0,0.0,0.0,0.0,0.0,0.0,0.0,0.0,0.0,0.0,0.0,0.0,0.0,0.0,0.0,0.0,0.0,0.0,0.0,0.0,0.0,0.0,0.0,0.0,0.0,0.0,0.0,0.0,0.0,0.0,0.0,0.0,0.0,0.0,0.0,0.0,0.0,0.0,0.0,0.0,0.0,0.0,0.0,0.0,0.0,0.0,0.0,0.0,0.0,0.0,0.0,0.0,0.0,0.0,0.0,0.0,0.0,0.0,0.0,0.0,0.0,0.0,0.0,0.0,0.0,0.0,0.0,0.0,0.0,0.0,0.0,0.0,0.0,0.0,0.0,0.0,0.0,0.0,0.0,0.0,0.0,0.0,0.0,0.0,-2.8953,-2.8338,-3.0377,-3.1871,-3.2104,-3.2714,-3.2906,-3.2418,0.0,0.0,0.0,0.0,0.0,0.0,0.0,0.0,0.0,0.0,0.0,0.0,0.0,0.0,0.0,0.0,0.0,0.0,0.0,0.0,0.0,0.0,0.0,0.0,0.0,0.0,0.0,0.0,0.0,0.0,0.0,0.0,0.0,0.0,0.0,0.0,0.0,0.0,0.0,0.0,0.0,0.0,0.0,0.0,0.0,0.0,0.0,0.0,0.0,0.0,0.0,0.0,0.0,0.0,0.0,0.0,0.0,0.0,0.0,0.0,0.0,0.0,0.0,0.0,0.0,0.0,0.0,0.0,0.0,0.0,0.0,0.0,0.0,0.0,0.0,0.0,0.0,0.0,0.0,0.0,0.0,0.0,0.0,0.0,0.0,0.0,0.0,0.0,0.0,0.0,0.0,0.0,0.0,0.0,0.0,0.0,0.0,0.0,0.0,0.0,0.0,0.0,0.0,-2.991,-2.9298,-2.8754,-2.9955,-3.0757,-3.0746,-3.2738,-3.3283,-3.1678,-3.0707,0.0,0.0,0.0,0.0,0.0,0.0,0.0,0.0,0.0,0.0,0.0,0.0,0.0,0.0,0.0,0.0,0.0,0.0,0.0,0.0,0.0,0.0,0.0,0.0,0.0,0.0,0.0,0.0,0.0,0.0,0.0,0.0,0.0,0.0,0.0,0.0,0.0,0.0,0.0,0.0,0.0,0.0,0.0,0.0,0.0,0.0,0.0,0.0,0.0,0.0,0.0,0.0,0.0,0.0,0.0,0.0,0.0,0.0,0.0,0.0,0.0,0.0,0.0,0.0,0.0,0.0,0.0,0.0,0.0,0.0,0.0,0.0,0.0,0.0,0.0,0.0,0.0,0.0,0.0,0.0,0.0,0.0,0.0,0.0,0.0,0.0,0.0,0.0,0.0,0.0,0.0,0.0,0.0,0.0,0.0,0.0,0.0,0.0,0.0,0.0,0.0,0.0,-3.0071,-2.9194,-2.917,-2.9156,-2.9642,-3.0771,-3.263,-3.2947,-3.1112,-3.0735,0.0,0.0,0.0,0.0,0.0,0.0,0.0,0.0,0.0,0.0,0.0,0.0,0.0,0.0,0.0,0.0,0.0,0.0,0.0,0.0,0.0,0.0,0.0,0.0,0.0,0.0,0.0,0.0,0.0,0.0,0.0,0.0,0.0,0.0,0.0,0.0,0.0,0.0,0.0,0.0,0.0,0.0,0.0,0.0,0.0,0.0,0.0,0.0,0.0,0.0,0.0,0.0,0.0,0.0,0.0,0.0,0.0,0.0,0.0,0.0,0.0,0.0,0.0,0.0,0.0,0.0,0.0,0.0,0.0,0.0,0.0,0.0,0.0,0.0,0.0,0.0,0.0,0.0,0.0,0.0,0.0,0.0,0.0,0.0,0.0,0.0,0.0,0.0,0.0,0.0,0.0,0.0,0.0,0.0,0.0,0.0,0.0,0.0,0.0,0.0,0.0,0.0,-2.8278,-2.7016,-2.7041,-2.7008,-2.8841,-3.343,-3.1577,-3.0815,-3.2445,-3.0854,0.0,0.0,0.0,0.0,0.0,0.0,0.0,0.0,0.0,0.0,0.0,0.0,0.0,0.0,0.0,0.0,0.0,0.0,0.0,0.0,0.0,0.0,0.0,0.0,0.0,0.0,0.0,0.0,0.0,0.0,0.0,0.0,0.0,0.0,0.0,0.0,0.0,0.0,0.0,0.0,0.0,0.0,0.0,0.0,0.0,0.0,0.0,0.0,0.0,0.0,0.0,0.0,0.0,0.0,0.0,0.0,0.0,0.0,0.0,0.0,0.0,0.0,0.0,0.0,0.0,0.0,0.0,0.0,0.0,0.0,0.0,0.0,0.0,0.0,0.0,0.0,0.0,0.0,0.0,0.0,0.0,0.0,0.0,0.0,0.0,0.0,0.0,0.0,0.0,0.0,0.0,0.0,0.0,0.0,0.0,0.0,0.0,0.0,0.0,0.0,0.0,0.0,-2.5846,-2.5003,-2.6645,-2.6816,-2.8179,-3.1499,-3.15,-3.1373,-3.1623,0.0,0.0,0.0,0.0,0.0,0.0,0.0,0.0,0.0,0.0,0.0,0.0,0.0,0.0,0.0,0.0,0.0,0.0,0.0,0.0,0.0,0.0,0.0,0.0,0.0,0.0,0.0,0.0,0.0,0.0,0.0,0.0,0.0,0.0,0.0,0.0,0.0,0.0,0.0,0.0,0.0,0.0,0.0,0.0,0.0,0.0,0.0,0.0,0.0,0.0,0.0,0.0,0.0,0.0,0.0,0.0,0.0,0.0,0.0,0.0,0.0,0.0,0.0,0.0,0.0,0.0,0.0,0.0,0.0,0.0,0.0,0.0,0.0,0.0,0.0,0.0,0.0,0.0,0.0,0.0,0.0,0.0,0.0,0.0,0.0,0.0,0.0,0.0,0.0,0.0,0.0,0.0,0.0,0.0,0.0,0.0,0.0,0.0,0.0,0.0,0.0,0.0,-2.6786,-2.522,-2.4841,-2.6584,-2.6811,-2.7739,-3.0149,-3.0782,-3.0965,-3.075,0.0,0.0,0.0,0.0,0.0,0.0,0.0,0.0,0.0,0.0,0.0,0.0,0.0,0.0,0.0,0.0,0.0,0.0,0.0,0.0,0.0,0.0,0.0,0.0,0.0,0.0,0.0,0.0,0.0,0.0,0.0,0.0,0.0,0.0,0.0,0.0,0.0,0.0,0.0,0.0,0.0,0.0,0.0,0.0,0.0,0.0,0.0,0.0,0.0,0.0,0.0,0.0,0.0,0.0,0.0,0.0,0.0,0.0,0.0,0.0,0.0,0.0,0.0,0.0,0.0,0.0,0.0,0.0,0.0,0.0,0.0,0.0,0.0,0.0,0.0,0.0,0.0,0.0,0.0,0.0,0.0,0.0,0.0,0.0,0.0,0.0,0.0,0.0,0.0,0.0,0.0,0.0,0.0,0.0,0.0,0.0,0.0,0.0,0.0,0.0,0.0,0.0,-2.6776,-2.6811,-2.6825,-2.6804,-2.6813,-2.7706,-2.9971,-2.9149,-2.8997,0.0,0.0,0.0,0.0,0.0,0.0,0.0,0.0,0.0,0.0,0.0,0.0,0.0,0.0,0.0,0.0,0.0,0.0,0.0,0.0,0.0,0.0,0.0,0.0,0.0,0.0,0.0,0.0,0.0,0.0,0.0,0.0,0.0,0.0,0.0,0.0,0.0,0.0,0.0,0.0,0.0,0.0,0.0,0.0,0.0,0.0,0.0,0.0,0.0,0.0,0.0,0.0,0.0,0.0,0.0,0.0,0.0,0.0,0.0,0.0,0.0,0.0,0.0,0.0,0.0,0.0,0.0,0.0,0.0,0.0,0.0,0.0,0.0,0.0,0.0,0.0,0.0,0.0,0.0,0.0,0.0,0.0,0.0,0.0,0.0,0.0,0.0,0.0,0.0,0.0,0.0,0.0,0.0,0.0,0.0,0.0,0.0,0.0,0.0,0.0,0.0,0.0,0.0,-2.5863,-2.6411,-2.6791,-2.6805,-2.6788,-2.7565,-2.9446,-2.9428,-2.9533,-3.0179,0.0,0.0,0.0,0.0,0.0,0.0,0.0,0.0,0.0,0.0,0.0,0.0,0.0,0.0,0.0,0.0,0.0,0.0,0.0,0.0,0.0,0.0,0.0,0.0,0.0,0.0,0.0,0.0,0.0,0.0,0.0,0.0,0.0,0.0,0.0,0.0,0.0,0.0,0.0,0.0,0.0,0.0,0.0,0.0,0.0,0.0,0.0,0.0,0.0,0.0,0.0,0.0,0.0,0.0,0.0,0.0,0.0,0.0,0.0,0.0,0.0,0.0,0.0,0.0,0.0,0.0,0.0,0.0,0.0,0.0,0.0,0.0,0.0,0.0,0.0,0.0,0.0,0.0,0.0,0.0,0.0,0.0,0.0,0.0,0.0,0.0,0.0,0.0,0.0,0.0,0.0,0.0,0.0,0.0,0.0,0.0,0.0,0.0,0.0,0.0,0.0,0.0,-2.5239,-2.617,-2.6779,-2.6779,-2.6779,-2.7366,-2.8824,-2.9149,-2.9264,-2.9344,0.0,0.0,0.0,0.0,0.0,0.0,0.0,0.0,0.0,0.0,0.0,0.0,0.0,0.0,0.0,0.0,0.0,0.0,0.0,0.0,0.0,0.0,0.0,0.0,0.0,0.0,0.0,0.0,0.0,0.0,0.0,0.0,0.0,0.0,0.0,0.0,0.0,0.0,0.0,0.0,0.0,0.0,0.0,0.0,0.0,0.0,0.0,0.0,0.0,0.0,0.0,0.0,0.0,0.0,0.0,0.0,0.0,0.0,0.0,0.0,0.0,0.0,0.0,0.0,0.0,0.0,0.0,0.0,0.0,0.0,0.0,0.0,0.0,0.0,0.0,0.0,0.0,0.0,0.0,0.0,0.0,0.0,0.0,0.0,0.0,0.0,0.0,0.0,0.0,0.0,0.0,0.0,0.0,0.0,0.0,0.0,0.0,0.0,0.0,0.0,0.0,0.0,-2.5058,-2.6054,-2.6779,-2.6779,-2.6779,-2.7218,-2.8143,-2.8496,-2.8458,-2.7972,0.0,0.0,0.0,0.0,0.0,0.0,0.0,0.0,0.0,0.0,0.0,0.0,0.0,0.0,0.0,0.0,0.0,0.0,0.0,0.0,0.0,0.0,0.0,0.0,0.0,0.0,0.0,0.0,0.0,0.0,0.0,0.0,0.0,0.0,0.0,0.0,0.0,0.0,0.0,0.0,0.0,0.0,0.0,0.0,0.0,0.0,0.0,0.0,0.0,0.0,0.0,0.0,0.0,0.0,0.0,0.0,0.0,0.0,0.0,0.0,-3.0606,-3.056,0.0,0.0,0.0,0.0,0.0,0.0,0.0,0.0,0.0,0.0,0.0,0.0,0.0,0.0,0.0,0.0,0.0,0.0,0.0,0.0,0.0,0.0,0.0,0.0,0.0,0.0,0.0,0.0,0.0,0.0,0.0,0.0,0.0,0.0,0.0,0.0,0.0,0.0,0.0,0.0,-2.63,-2.6605,-2.6779,-2.6779,-2.6779,-2.7011,-2.7615,-2.8207,-2.8185,-2.7416,-2.7994,0.0,0.0,0.0,0.0,0.0,0.0,0.0,0.0,0.0,0.0,0.0,0.0,0.0,0.0,0.0,0.0,0.0,0.0,0.0,0.0,0.0,0.0,0.0,0.0,0.0,0.0,0.0,0.0,0.0,0.0,0.0,0.0,0.0,0.0,0.0,0.0,0.0,0.0,0.0,0.0,0.0,0.0,0.0,0.0,0.0,0.0,0.0,0.0,0.0,0.0,0.0,0.0,0.0,0.0,0.0,0.0,0.0,0.0,0.0,-3.057,-3.0554,0.0,0.0,0.0,0.0,0.0,0.0,0.0,0.0,0.0,0.0,0.0,0.0,0.0,0.0,0.0,0.0,0.0,0.0,0.0,0.0,0.0,0.0,0.0,0.0,0.0,0.0,0.0,0.0,0.0,0.0,0.0,0.0,0.0,0.0,0.0,0.0,0.0,0.0,0.0,0.0,-2.6344,-2.6852,-2.7128,-2.6823,-2.6779,-2.7115,-2.7799,-2.8304,-2.8322,-2.7655,-2.8027,0.0,0.0,0.0,0.0,0.0,0.0,0.0,0.0,0.0,0.0,0.0,0.0,0.0,0.0,0.0,0.0,0.0,0.0,0.0,0.0,0.0,0.0,0.0,0.0,0.0,0.0,0.0,0.0,0.0,0.0,0.0,0.0,0.0,0.0,0.0,0.0,0.0,0.0,0.0,0.0,0.0,0.0,0.0,0.0,0.0,0.0,0.0,0.0,0.0,0.0,0.0,0.0,0.0,-2.9699,-2.982,-2.9531,-2.977,-3.0504,-3.1604,-3.1487,-3.1555,-3.1619,-3.1955,0.0,0.0,0.0,0.0,0.0,0.0,0.0,0.0,0.0,0.0,0.0,0.0,0.0,0.0,0.0,0.0,0.0,0.0,0.0,0.0,0.0,0.0,0.0,0.0,-2.9922,-3.0021,-2.9615,0.0,0.0,0.0,0.0,0.0,0.0,0.0,0.0,0.0,0.0,0.0,-2.6242,-2.6968,-2.736,-2.6837,-2.6779,-2.7167,-2.8094,-2.8496,-2.8505,-2.8054,-2.8382,-2.8561,0.0,0.0,0.0,0.0,0.0,0.0,0.0,0.0,0.0,0.0,0.0,0.0,0.0,0.0,0.0,0.0,0.0,0.0,0.0,0.0,0.0,0.0,0.0,0.0,0.0,0.0,0.0,0.0,0.0,0.0,0.0,0.0,-3.0459,-2.928,0.0,0.0,0.0,0.0,0.0,0.0,0.0,0.0,0.0,0.0,0.0,0.0,0.0,-2.6704,-2.6847,-2.7855,-2.8343,-2.845,-2.8963,-2.924,-2.9197,-3.04,-3.136,-3.2099,-3.3283,0.0,-3.2811,-3.2601,0.0,0.0,0.0,0.0,0.0,0.0,0.0,0.0,0.0,0.0,0.0,0.0,0.0,0.0,0.0,0.0,0.0,0.0,0.0,0.0,0.0,0.0,-2.8962,-2.8962,-2.8561,-2.8165,0.0,-2.7646,-2.7285,-2.7474,-2.6287,0.0,0.0,0.0,0.0,0.0,0.0,0.0,-2.7418,-2.7142,-2.6881,-2.6794,-2.6779,-2.7011,-2.7565,-2.8304,-2.8573,-2.8254,-2.887,-2.9274,-2.9276,-2.9327,0.0,0.0,0.0,0.0,0.0,0.0,0.0,0.0,0.0,0.0,0.0,0.0,0.0,0.0,0.0,0.0,0.0,0.0,0.0,0.0,0.0,0.0,0.0,0.0,0.0,0.0,0.0,0.0,0.0,-3.011,-2.9288,-2.863,-2.7844,-2.6935,0.0,0.0,0.0,0.0,0.0,0.0,0.0,0.0,0.0,-2.6354,-2.6687,-2.709,-2.7496,-2.863,-2.9047,-2.876,-2.9321,-2.9425,-2.9125,-2.9729,-3.0766,-3.2146,-3.2407,-3.2793,-3.322,-3.3327,-3.3048,-3.2431,0.0,0.0,0.0,0.0,-3.1788,-3.1775,-3.2983,-3.3025,-3.2623,-3.2968,0.0,0.0,0.0,0.0,0.0,0.0,0.0,-3.1765,0.0,0.0,-2.935,-2.8434,-2.8076,-2.7966,-2.8137,-2.7728,-2.7328,0.0,-2.6938,-2.6474,-2.6408,0.0,0.0,0.0,0.0,-2.7694,-2.7258,-2.7273,-2.7186,-2.6823,-2.7063,-2.7393,-2.7898,-2.8606,-2.8955,-2.8773,-2.9132,-2.9457,-2.9738,-2.9776,-3.0089,0.0,0.0,0.0,0.0,0.0,0.0,0.0,0.0,0.0,0.0,0.0,0.0,0.0,0.0,0.0,0.0,0.0,0.0,0.0,0.0,0.0,0.0,0.0,0.0,0.0,0.0,0.0,0.0,-2.8726,-2.7959,-2.7145,-2.648,-2.5772,0.0,0.0,0.0,0.0,0.0,0.0,-2.5498,-2.519,-2.5507,-2.6569,-2.7003,-2.7423,-2.7927,-2.9052,-2.9321,-2.8784,-2.9333,-2.9385,-2.8988,-2.9349,-3.0302,-3.1769,-3.173,-3.2217,-3.3073,-3.3317,-3.2944,-3.2246,-3.144,-3.1366,-3.1715,-3.1735,-3.1502,-3.1363,-3.2898,-3.301,-3.257,-3.2796,-3.286,-3.2734,-3.1614,0.0,0.0,0.0,0.0,-3.1613,-3.0499,-2.9858,-2.922,-2.7993,-2.7694,-2.7764,-2.8017,-2.7744,-2.7496,0.0,-2.751,-2.749,-2.749,0.0,0.0,0.0,-2.8274,-2.8274,-2.7171,-2.7432,-2.753,-2.7033,-2.7291,-2.775,-2.8448,-2.8997,-2.9335,-2.9377,-2.9486,-2.9755,-3.0101,-3.0239,-3.0597,-3.1236,0.0,0.0,0.0,0.0,0.0,0.0,0.0,0.0,0.0,0.0,0.0,0.0,0.0,0.0,0.0,0.0,0.0,0.0,0.0,0.0,0.0,0.0,0.0,0.0,0.0,0.0,0.0,0.0,0.0,-2.4213,-2.4577,0.0,0.0,0.0,0.0,-2.4605,-2.3081,-2.3063,-2.5226,-2.4178,-2.4542,-2.6829,-2.6914,-2.6938,-2.6962,-2.8011,-2.8276,-2.7758,-2.8288,-2.853,-2.8597,-2.9932,-3.0675,-3.0996,-3.2334,-3.2726,-3.2412,-3.1822,-3.1608,-3.1476,-3.0957,-3.1114,-3.1779,-3.2328,-3.2219,-3.1911,-3.2446,-3.1905,-3.1034,-3.1894,-3.229,-3.2431,-3.2369,-3.2314,0.0,0.0,-3.1382,-3.0397,-3.032,-2.8946,-2.764,-2.7515,-2.7167,-2.6861,-2.6875,-2.6875,-2.6997,0.0,-2.7215,-2.6837,-2.6837,0.0,-2.7668,-2.7668,-2.8274,-2.8448,-2.7766,-2.7654,-2.7623,-2.7488,-2.7464,-2.7898,-2.8982,-2.9198,-2.956,-3.0097,-3.0267,-3.0393,-3.046,-3.0834,-3.1249,-3.1662,-3.0609,0.0,0.0,0.0,0.0,0.0,0.0,0.0,0.0,0.0,0.0,0.0,0.0,0.0,0.0,0.0,0.0,0.0,0.0,0.0,0.0,0.0,0.0,0.0,0.0,0.0,0.0,0.0,0.0,-2.4486,-2.4558,0.0,-2.443,-2.37,-2.3319,-2.3643,-2.3058,-2.3282,-2.4532,-2.418,-2.4325,-2.5171,-2.6069,-2.6566,-2.6566,-2.7822,-2.8414,-2.8222,-2.8077,-2.8005,-2.8005,-2.8647,-2.9272,-2.9856,-3.0408,-3.0815,-3.1148,-3.053,-3.0755,-3.1467,-3.0821,-3.0734,-3.0988,-3.1412,-3.1564,-3.1721,-3.2508,-3.2152,-3.1274,-3.0968,-3.0683,-3.0464,-3.0464,-3.0219,-2.9902,-2.9902,-2.9604,-2.9144,-2.8729,-2.8125,-2.751,-2.7166,-2.6922,-2.6779,-2.6779,-2.6779,-2.6968,-2.7607,-2.7549,-2.752,-2.7926,-2.8187,-2.8477,-2.8884,-2.8797,-2.8761,-2.8897,-2.8497,-2.8338,-2.8682,-2.8614,-2.8685,-2.9074,-2.947,-2.9814,-3.006,-3.0189,-3.0316,-3.0443,-3.0861,-3.13,-3.1677,-3.1062,-3.09,0.0,0.0,0.0,0.0,0.0,0.0,0.0,0.0,0.0,0.0,0.0,0.0,0.0,0.0,0.0,0.0,0.0,0.0,0.0,0.0,0.0,0.0,0.0,0.0,0.0,-2.3577,-2.4605,-2.4589,-2.4376,-2.4208,-2.418,-2.3165,-2.2764,-2.3232,-2.2704,-2.2912,-2.4207,-2.3929,-2.3983,-2.4627,-2.5768,-2.6519,-2.668,-2.7921,-2.851,-2.8498,-2.7981,-2.7717,-2.7705,-2.7891,-2.8308,-2.8882,-2.9187,-2.9663,-3.0193,-2.9771,-3.0108,-3.0811,-3.0375,-3.0347,-3.0509,-3.0906,-3.1014,-3.113,-3.1693,-3.1381,-3.0532,-2.9932,-2.9441,-2.9146,-2.9146,-2.8846,-2.8571,-2.8571,-2.8462,-2.826,-2.7839,-2.7578,-2.7316,-2.6895,-2.6779,-2.6779,-2.6779,-2.6779,-2.6963,-2.7515,-2.7671,-2.7926,-2.8565,-2.8855,-2.9188,-2.9825,-2.978,-2.9785,-3.015,-2.9584,-2.9225,-2.9583,-2.9297,-2.9182,-2.9364,-2.9726,-2.9946,-2.9973,-3.0103,-3.0274,-3.0417,-3.1096,-3.1572,-3.1694,-3.1461,-3.131,-3.1296,0.0,0.0,0.0,0.0,0.0,0.0,0.0,0.0,0.0,0.0,0.0,0.0,0.0,0.0,0.0,0.0,0.0,0.0,0.0,0.0,0.0,0.0,0.0,-2.3782,-2.4758,-2.4966,-2.422,-2.3927,-2.3846,-2.3842,-2.2244,-2.1789,-2.3343,-2.1846,-2.1864,-2.4094,-2.3238,-2.3577,-2.5378,-2.6024,-2.6588,-2.7174,-2.7983,-2.8474,-2.8474,-2.7933,-2.7669,-2.7657,-2.7903,-2.8066,-2.8307,-2.9,-2.9416,-2.9602,-2.9602,-2.9602,-2.9602,-2.9602,-2.9968,-3.0545,-3.0877,-3.0689,-3.0288,-3.0031,-2.9442,-2.8747,-2.8703,-2.8662,-2.865,-2.865,-2.8608,-2.8623,-2.8623,-2.8173,-2.7639,-2.7639,-2.7244,-2.6779,-2.6779,-2.6832,-2.6832,-2.6832,-2.6832,-2.6974,-2.7444,-2.7697,-2.801,-2.8621,-2.9275,-2.9856,-3.0492,-3.1117,0.0,-3.1443,-3.0819,-3.0328,-3.018,-2.9563,-2.935,-2.9874,-2.9918,-2.9946,-2.9973,-3.0146,-3.0274,-3.0375,-3.1614,-3.2127,-3.1731,-3.1729,-3.1332,-3.0547,0.0,0.0,0.0,0.0,0.0,0.0,0.0,0.0,0.0,0.0,0.0,0.0,0.0,0.0,0.0,0.0,0.0,0.0,0.0,0.0,0.0,-2.2489,-2.2673,-2.2984,-2.3481,-2.3558,-2.2823,-2.3574,-2.3856,-2.2971,-2.272,-2.2532,-2.2495,-2.2004,-2.2051,-2.2843,-2.2842,-2.2977,-2.3551,-2.47,-2.5665,-2.6163,-2.6936,-2.756,-2.7933,-2.6983,-2.655,-2.6526,-2.7316,-2.766,-2.7786,-2.8985,-2.9568,-2.9602,-2.9602,-2.9602,-2.9602,-2.9602,-2.9715,-2.9896,-3.0162,-3.0309,-3.0196,-2.8839,-2.8329,-2.8015,-2.6692,-2.6556,-2.6902,-2.6902,-2.7083,-2.7302,-2.7302,-2.7186,-2.7041,-2.7041,-2.691,-2.6779,-2.6779,-2.7063,-2.7327,-2.7327,-2.763,-2.8065,-2.8667,-2.924,-2.9637,-2.9819,-3.0834,-3.1663,-3.187,-3.2038,0.0,-3.2667,-3.2107,-3.165,-3.1517,-3.081,-3.0274,-2.9907,-2.9918,-2.9902,-2.9902,-3.0231,-3.0359,-3.0274,-3.1409,-3.2265,-3.2555,-3.2556,-3.217,0.0,0.0,0.0,0.0,0.0,0.0,0.0,0.0,0.0,0.0,0.0,0.0,0.0,0.0,0.0,0.0,0.0,0.0,0.0,0.0,0.0,0.0,-2.2921,-2.2884,-2.2145,-2.2764,-2.3155,-2.2886,-2.3102,-2.3022,-2.2562,-2.2188,-2.1957,-2.198,-2.1919,-2.2008,-2.2087,-2.2353,-2.2629,-2.2871,-2.4106,-2.506,-2.5728,-2.6434,-2.7004,-2.738,-2.6514,-2.6093,-2.6142,-2.7054,-2.7484,-2.755,-2.9008,-2.9462,-2.9237,-2.9504,-2.9307,0.0,0.0,0.0,0.0,0.0,-2.9574,-2.9423,-2.8412,-2.7625,-2.7031,-2.6279,-2.6176,-2.6401,-2.6683,-2.6923,-2.713,-2.713,-2.7218,-2.7218,-2.7026,-2.7026,-2.71,-2.71,-2.7276,-2.7565,-2.7799,-2.8094,-2.846,-2.9086,-2.9741,0.0,-3.0898,-3.1793,-3.2492,-3.2695,-3.2516,-3.2541,-3.3077,-3.2301,-3.1646,-3.1544,-3.0911,-3.0312,-2.9951,-2.9918,0.0,0.0,0.0,-3.0808,-3.1443,-3.1869,0.0,0.0,0.0,-3.2684,-3.2188,-3.1865,0.0,0.0,-3.1303,-3.1733,0.0,0.0,0.0,0.0,0.0,0.0,0.0,0.0,0.0,0.0,0.0,0.0,0.0,0.0,0.0,0.0,-2.2748,-2.285,-2.1499,-2.2496,-2.341,-2.3285,-2.2442,-2.1944,-2.2285,-2.1269,-2.0906,-2.1676,-2.1741,-2.1731,-2.182,-2.205,0.0,0.0,0.0,-2.4781,-2.5527,-2.6112,-2.6542,-2.6827,-2.6274,-2.6082,-2.613,-2.702,-2.7446,-2.7578,-2.8843,-2.9125,-2.8731,-2.9195,-2.8778,-2.785,-2.8398,-2.8669,-2.8632,-2.8849,-2.8636,-2.8273,-2.8119,0.0,0.0,-2.6578,-2.6678,-2.6651,-2.731,-2.752,-2.7505,-2.7505,-2.7579,-2.7588,-2.7199,-2.722,-2.734,-2.734,-2.739,-2.7573,-2.8025,-2.8216,-2.8389,-2.8948,-2.9594,-3.0449,-3.1659,-3.2155,-3.2547,-3.3072,-3.2621,-3.236,-3.2919,-3.1834,-3.0978,-3.0898,0.0,0.0,-2.9946,-2.9946,-3.0044,-3.0335,-3.0427,-3.1207,-3.3032,-3.2477,-3.2701,-3.3955,-3.3241,-3.2916,-3.2916,-3.2074,-3.1765,-3.1815,-3.1666,-3.2282,0.0,0.0,0.0,0.0,0.0,0.0,0.0,0.0,0.0,0.0,0.0,0.0,0.0,0.0,0.0,-2.2665,-2.2959,-2.2982,-2.1912,-2.2718,-2.2793,-2.1072,-2.1694,-2.1939,-2.0997,-2.0937,-2.12,-2.1695,-2.1741,-2.1989,-2.2755,-2.2697,-2.2983,-2.3888,-2.4129,-2.4581,-2.536,-2.5397,-2.5696,-2.625,0.0,0.0,-2.6345,-2.6565,-2.7037,-2.7611,-2.7963,-2.8352,-2.8661,-2.8282,-2.7896,-2.7539,-2.8197,-2.8367,-2.8217,-2.8047,-2.7819,-2.7426,-2.6303,-2.5689,-2.5446,-2.5584,-2.5818,-2.6149,-2.6892,-2.6943,0.0,-2.701,-2.6665,-2.6288,-2.6381,-2.6428,-2.6459,-2.6459,-2.6763,-2.7061,-2.7149,-2.7529,-2.8019,-2.8742,-2.9419,-3.019,-3.0962,-3.1645,-3.2304,-3.303,-3.2515,-3.2063,-3.2222,-3.1963,-3.1575,-3.0946,-3.0797,-3.0563,-3.0248,-3.0225,-3.0351,-3.0666,-3.0285,-3.0751,-3.2407,-3.162,-3.179,-3.3098,-3.2987,-3.2916,-3.2916,-3.2074,-3.1987,-3.2572,-3.1901,-3.1411,0.0,0.0,0.0,0.0,0.0,0.0,0.0,0.0,0.0,0.0,0.0,-2.5924,-2.5039,0.0,-2.4343,-2.3615,-2.3494,-2.2987,-2.1705,-2.2421,-2.2472,-2.0803,-2.1859,-2.206,-2.0338,-2.0717,-2.1334,-2.2063,-2.211,-2.2448,-2.3363,-2.3247,-2.3423,-2.3945,-2.394,-2.4245,-2.501,-2.4952,-2.5183,-2.5565,-2.5448,-2.5605,-2.5988,-2.6387,-2.6818,-2.7141,-2.7593,-2.7879,-2.8025,-2.7623,-2.7585,-2.7788,-2.8018,-2.8039,-2.7891,-2.742,-2.7048,-2.6734,-2.5687,-2.5087,-2.4856,-2.521,-2.5461,-2.5726,-2.6428,-2.6565,-2.6471,-2.6626,-2.6535,-2.6437,-2.6273,-2.6392,-2.6554,-2.6554,-2.6714,-2.6972,-2.7243,-2.7814,-2.8352,-2.8709,-2.9416,-3.0085,-3.0797,-3.0635,-3.0895,-3.2319,-3.1931,-3.1461,-3.1461,-3.1154,-3.0797,-3.0441,-3.051,-3.0506,-3.0342,-3.0268,-3.0141,-2.9909,-2.987,-3.0195,-3.1025,-3.0758,-3.1079,-3.2183,-3.2264,-3.2491,-3.2916,-3.23,-3.2104,-3.2245,-3.2029,-3.1816,0.0,0.0,0.0,0.0,0.0,0.0,0.0,-2.7643,-2.7312,-2.668,-2.6511,-2.6422,-2.6011,-2.5563,-2.5018,-2.4579,-2.3948,-2.3015,-2.1712,-2.2249,-2.2475,-2.1335,-2.2242,-2.2345,-2.0529,-2.0941,-2.1777,-2.2646,-2.2715,-2.3167,-2.4075,-2.3908,-2.3966,-2.4248,-2.3896,-2.406,-2.4861,-2.4826,-2.4897,-2.5296,-2.5376,-2.5567,-2.5739,-2.625,-2.6606,-2.6786,-2.7449,-2.7598,-2.7339,-2.7319,-2.7565,-2.8009,-2.785,-2.784,-2.7799,-2.6952,-2.6443,-2.6072,-2.5364,-2.4764,-2.4425,-2.5102,-2.5318,-2.5441,-2.6134,-2.6241,-2.6134,-2.6224,-2.6392,-2.6482,-2.6137,-2.6311,-2.6593,-2.6593,-2.6635,-2.6761,-2.7203,-2.7769,-2.8207,-2.8352,-2.8854,-2.9518,-3.036,-2.9437,-2.9308,-3.1461,-3.1073,-3.0554,-3.0774,-3.0173,-2.9827,-3.0044,-2.9995,-3.0005,-3.0029,-3.0082,-2.9787,-2.9121,-2.9385,-2.9619,-2.9791,-2.9927,-3.0397,-3.1257,-3.1382,-3.1747,-3.242,-3.2188,-3.19,-3.1579,-3.1862,-3.211,-2.8067,-2.7191,-2.752,-3.2771,-3.0757,-2.8291,0.0,-3.1457,-3.047,-2.8768,-2.8731,-2.8615,-2.6892,-2.6181,-2.5598,-2.5117,-2.4103,-2.3225,-2.2593,-2.2995,-2.301,-2.2165,-2.2622,-2.28,-2.2183,-2.2224,-2.2592,-2.3463,-2.3535,-2.4127,-2.546,-2.4681,-2.459,-2.547,-2.4602,-2.4525,-2.5241,-2.4785,-2.5,-2.5914,-2.5459,-2.5701,-2.6545,-2.6075,-2.6229,-2.6791,-2.7228,-2.735,-2.7166,-2.7748,-2.7936,-2.7846,-2.7821,-2.8005,-2.8146,-2.6826,-2.5966,-2.5333,-2.4656,-2.4364,-2.4425,-2.5102,-2.5318,-2.5456,-2.6164,-2.5933,-2.5484,-2.5687,-2.5321,-2.4905,-2.5123,-2.5322,-2.5479,-2.5479,-2.5612,-2.5766,-2.5805,-2.5907,-2.6166,-2.6814,-2.6992,-2.7478,-2.8806,-2.8352,-2.8563,-3.0671,-2.9891,-2.9371,-3.0258,-2.9732,-2.9642,-3.0616,-2.9532,-2.8879,-2.9144,-2.9417,-2.9524,-2.9438,-2.8885,-2.8949,-2.9774,-2.9228,-2.9386,-3.0411,-3.0459,-3.0538,-3.0779,-3.1094,-3.1214,-3.1164,-3.123,-3.1069,-2.7899,-2.7932,-2.8178,-3.0993,-3.036,-2.948,-3.1102,-3.1218,-3.0746,-2.9914,-2.9596,-2.9122,-2.7964,-2.7007,-2.6115,-2.5216,-2.4186,-2.3141,-2.2373,-2.2673,-2.2856,-2.2556,-2.343,-2.3588,-2.221,-2.3002,-2.3795,-2.417,-2.4202,-2.4621,-2.5654,-2.5071,-2.4858,-2.5253,-2.4894,-2.4945,-2.5652,-2.5571,-2.5667,-2.6131,-2.591,-2.5985,-2.6377,-2.5668,-2.538,-2.5559,-2.6148,-2.6609,-2.6942,-2.744,-2.7849,-2.8152,-2.8152,-2.7776,-2.7149,-2.658,-2.618,-2.578,-2.4687,-2.4302,-2.4364,-2.4641,-2.4733,-2.4795,-2.5087,-2.4964,-2.4733,-2.4833,-2.4741,-2.463,-2.4766,-2.4966,-2.5162,-2.5256,-2.5371,-2.5464,-2.5578,-2.6054,-2.658,-2.6875,-2.7399,-2.7976,-2.857,-2.8075,-2.8042,-2.9337,-2.8886,-2.8527,-2.8968,-2.8913,-2.9082,-2.9673,-2.9205,-2.8774,-2.8665,-2.8784,-2.8678,-2.8247,-2.792,-2.7728,-2.765,-2.7882,-2.8037,-2.8135,-2.8682,-2.9029,-2.9173,-2.9793,-2.9982,-2.9761,-3.0681,-3.0879,-2.709,-2.7994,-2.8407,-2.9154,-2.9847,-3.0474,-3.1128,-3.1283,-3.1204,-3.0821,-3.0346,-2.9737,-2.8661,-2.7683,-2.6616,-2.5605,-2.4426,-2.3356,-2.2626,-2.2616,-2.2754,-2.2967,-2.4005,-2.4137,-2.2643,-2.3917,-2.4859,-2.5071,-2.4881,-2.5183,-2.6132,-2.5506,-2.5269,-2.5457,-2.5301,-2.5511,-2.6139,-2.614,-2.6181,-2.6353,-2.6222,-2.6203,-2.6285,-2.5586,-2.5178,-2.4903,-2.5476,-2.6027,-2.6622,-2.6949,-2.7396,-2.7857,-2.7857,-2.7242,-2.6349,-2.6149,-2.598,-2.5672,-2.4656,-2.4302,-2.4302,-2.4302,-2.4302,-2.4302,-2.441,-2.4451,-2.4492,-2.4599,-2.4719,-2.4839,-2.4839,-2.5052,-2.5301,-2.5454,-2.553,-2.5642,-2.577,-2.6401,-2.6912,-2.6912,-2.7491,-2.8055,-2.8273,-2.7688,-2.7453,-2.8206,-2.7994,-2.7881,-2.8279,-2.8649,-2.8772,-2.8561,-2.8697,-2.863,-2.8161,-2.8092,-2.7764,-2.7023,-2.6971,-2.6626,-2.5833,-2.6484,-2.6696,-2.6289,-2.6975,-2.7414,-2.7522,-2.8352,-2.8585,-2.8335,-2.9562,-3.0223,-2.6281,-2.7237,-2.8171,-2.961,-3.0649,-3.1632,-3.2691,-3.3035,-3.2801,-3.1588,-3.1375,-3.0793,-2.8839,-2.8051,-2.7365,-2.6526,-2.5031,-2.403,-2.4137,-2.327,-2.284,-2.3569,-2.4093,-2.4399,-2.4331,-2.515,-2.5911,-2.6404,-2.5991,-2.6144,-2.7155,-2.6308,-2.6032,-2.6504,-2.6131,-2.6151,-2.6645,-2.6089,-2.6116,-2.6702,-2.6153,-2.6104,-2.6486,-2.6221,-2.5893,-2.5663,-2.571,-2.5909,-2.6304,-2.6319,-2.6395,-2.6441,-2.6441,-2.6395,-2.6197,-2.5595,-2.4933,-2.4364,-2.4317,-2.4302,-2.4302,-2.4302,-2.4302,-2.4385,-2.4744,-2.4863,-2.4981,-2.5351,-2.5465,-2.5465,-2.5465,-2.5742,-2.5977,-2.5977,-2.6191,-2.6383,-2.6383,-2.64,-2.6417,-2.6417,-2.6434,-2.6684,-2.7403,-2.6902,-2.6668,-2.742,-2.7147,-2.7369,-2.8776,-2.9281,-2.8921,-2.7506,-2.8006,-2.8127,-2.7385,-2.7333,-2.6988,-2.6195,-2.6143,-2.5816,-2.5057,-2.5201,-2.5324,-2.5437,-2.5606,-2.5737,-2.5872,-2.6675,-2.7067,-2.7059,-2.7507,-2.8553,-2.6932,-2.7305,-2.767,-2.9627,-3.0468,-3.0853,-3.109,-3.1922,-3.2386,-3.1332,-3.0777,-3.0098,-2.916,-2.7927,-2.6787,-2.5819,-2.5256,-2.4792,-2.4493,-2.4459,-2.4566,-2.4809,-2.5386,-2.5701,-2.5712,-2.6096,-2.6401,-2.6642,-2.6399,-2.6598,-2.7417,-2.6432,-2.6144,-2.6646,-2.6527,-2.6523,-2.6699,-2.6505,-2.6488,-2.6708,-2.6356,-2.6201,-2.6141,-2.5464,-2.5136,-2.5078,-2.4861,-2.5111,-2.5656,-2.5656,-2.5949,-2.6425,-2.6676,-2.6495,-2.6067,-2.6066,-2.5648,-2.5059,-2.4784,-2.4863,-2.5098,-2.5098,-2.5098,-2.5121,-2.5275,-2.5313,-2.5313,-2.5465,-2.5503,-2.5503,-2.5503,-2.5631,-2.5832,-2.5977,-2.6104,-2.6227,-2.6383,-2.6556,-2.6657,-2.6657,-2.6842,-2.7076,-2.7332,-2.7178,-2.7076,-2.7349,-2.7028,-2.7078,-2.779,-2.7958,-2.7851,-2.7351,-2.7523,-2.7351,-2.6575,-2.6506,-2.6178,-2.5419,-2.5367,-2.5023,-2.4247,-2.4741,-2.4663,-2.3755,-2.434,-2.4486,-2.4122,-2.5038,-2.5461,-2.5497,-2.665,-2.7493,-2.6787,-2.7084,-2.7383,-2.905,-3.0017,-3.0508,-3.0292,-3.1498,-3.2297,-3.1276,-3.0686,-3.0114,-2.9237,-2.8235,-2.7069,-2.5678,-2.5537,-2.5372,-2.4643,-2.4831,-2.5193,-2.5455,-2.6035,-2.6496,-2.6668,-2.6741,-2.6827,-2.6953,-2.6884,-2.7115,-2.7754,-2.6549,-2.6126,-2.6691,-2.6499,-2.6348,-2.6373,-2.6614,-2.6746,-2.6844,-2.6526,-2.6163,-2.5815,-2.5183,-2.4788,-2.4618,-2.4555,-2.4782,-2.5186,-2.5295,-2.5644,-2.6125,-2.6344,-2.6181,-2.5807,-2.6066,-2.5967,-2.5652,-2.5237,-2.5275,-2.5503,-2.5503,-2.5503,-2.554,-2.5689,-2.5726,-2.5762,-2.5872,-2.5908,-2.5908,-2.5908,-2.6049,-2.6173,-2.6314,-2.6401,-2.6505,-2.6674,-2.6842,-2.6973,-2.6973,-2.7137,-2.7299,-2.7299,-2.7299,-2.7299,-2.7299,-2.7137,-2.7055,-2.725,-2.704,-2.6868,-2.6868,-2.6868,-2.6557,-2.5781,-2.5954,-2.5678,-2.4643,-2.4574,-2.4229,-2.3426,-2.4002,-2.3875,-2.2911,-2.3593,-2.3735,-2.3289,-2.3946,-2.4284,-2.4302,-2.5283,-2.6032,-2.5967,-2.6607,-2.7298,-2.8033,-2.9385,-3.0485,-3.0317,-3.1616,-3.25,-3.1193,-3.1002,-3.0583,-2.9061,-2.8778,-2.8148,-2.615,-2.6062,-2.5907,-2.4915,-2.4727,-2.4932,-2.5645,-2.6205,-2.6645,-2.7024,-2.7055,-2.7196,-2.7474,0.0,-2.7508,-2.8265,-2.6752,-2.618,-2.6738,-2.6175,-2.5861,-2.5834,-2.6371,-2.682,-2.7099,-2.6593,-2.6057,-2.5525,-2.5287,-2.4906,-2.4431,-2.4775,-2.4942,-2.4981,-2.5351,-2.5503,-2.5503,-2.554,-2.554,-2.5577,-2.5577,-2.5835,-2.6123,-2.5746,-2.5598,-2.5577,-2.5577,-2.5577,-2.5652,-2.6016,-2.6123,-2.621,-2.6573,-2.6691,-2.6691,-2.6691,-2.6792,-2.6926,-2.6975,-2.7055,-2.7152,-2.7282,-2.7299,-2.7299,-2.7299,-2.7299,-2.7299,-2.7299,-2.7299,-2.7282,-2.7313,-2.7313,-2.7296,-2.7247,-2.6575,-2.6092,-2.6057,-2.6057,-2.5747,-2.5005,-2.5592,-2.535,-2.3822,-2.3736,-2.3426,-2.272,-2.2927,-2.302,-2.2893,-2.3289,-2.3424,-2.3289,-2.3448,-2.3494,-2.3494,-2.3494,-2.4284,-2.6218,-2.6899,-2.7561,-2.8182,-2.8984,-2.9496,-2.9026,-2.9917,-3.0495,-2.921,-2.9198,-2.9181,-2.8426,-2.8387,-2.842,-2.8137,-2.833,-2.851,-2.8266,-2.7686,-2.7429,-2.7556,-2.709,-2.6723,-2.6854,-2.6856,-2.6959,-2.7172,-2.7254,-2.7601,-2.8373,-2.7604,-2.721,-2.735,-2.7203,-2.6909,-2.6486,-2.6131,-2.6021,-2.6058,-2.5512,-2.5561,-2.6152,-2.5299,-2.5255,-2.5863,-2.5516,-2.5351,-2.5351,-2.5465,-2.5503,-2.554,-2.5835,-2.6106,-2.6351,-2.6674,-2.697,-2.7272,-2.7175,-2.679,-2.6385,-2.6385,-2.6385,-2.6385,-2.6505,-2.6539,-2.659,-2.6657,-2.6691,-2.6742,-2.6825,-2.6909,-2.6975,-2.7055,-2.7152,-2.725,-2.7282,-2.7299,-2.7299,-2.7299,-2.7299,-2.7299,-2.7299,-2.7299,-2.7376,-2.7569,-2.76,-2.73,-2.6519,-2.623,-2.5902,-2.535,-2.5281,-2.4971,-2.4149,-2.427,-2.396,-2.3057,-2.2988,-2.2892,-2.2712,-2.2764,-2.279,-2.2764,-2.3045,-2.3193,-2.3144,-2.3401,-2.3494,-2.3494,-2.3494,-2.3708,-2.6326,-2.6859,-2.742,-2.842,-2.8893,-2.8978,-2.841,-2.907,-2.951,-2.8446,-2.8404,-2.8454,-2.825,-2.8674,-2.8951,-2.8789,-2.9696,-3.0147,-2.9609,-2.9367,-2.9027,-2.8402,-2.8041,-2.7802,-2.7802,-2.7311,-2.7321,-2.8157,-2.8079,-2.8037,-2.8237,-2.7895,-2.7487,-2.7226,-2.6926,-2.6749,-2.6582,-2.6221,-2.612,-2.6206,-2.5909,-2.5954,-2.6271,-2.5368,-2.536,-2.6008,-2.5815,-2.5762,-2.5799,-2.5944,-2.6123,-2.6282,-2.6505,-2.6774,-2.7098,-2.7352,-2.7552,-2.7701,-2.7701,-2.7444,-2.7132,-2.7132,-2.7132,-2.7132,-2.7132,-2.7132,-2.7132,-2.7132,-2.7132,-2.7181,-2.723,-2.7261,-2.7324,-2.7413,-2.7522,-2.7569,-2.7642,-2.7642,-2.7642,-2.7642,-2.7642,-2.7642,-2.7642,-2.7642,-2.7683,-2.784,-2.7869,-2.7406,-2.6118,-2.5967,-2.5652,-2.49,-2.4812,-2.4497,-2.3675,-2.3937,-2.3815,-2.307,-2.3017,-2.3017,-2.3017,-2.2977,-2.2952,-2.2952,-2.3052,-2.3144,-2.3193,-2.3336,-2.3448,-2.3494,-2.3494,-2.3494,-2.6197,-2.6699,-2.7234,-2.8422,-2.883,-2.8798,-2.819,-2.8703,-2.9063,-2.8301,-2.8221,-2.8342,-2.8423,-2.9204,-2.9629,-2.9194,-3.0521,-3.1294,-3.0372,-3.0392,-3.0057,-2.8892,-2.8894,-2.9031,-2.9031,-2.7991,-2.7864,-2.925,-2.9023,-2.8569,-2.8153,-2.7806,-2.7442,-2.6917,-2.6252,-2.613,-2.6624,-2.6429,-2.6474,-2.6749,-2.6725,-2.6513,-2.6134,-2.5603,-2.5503,-2.5766,-2.6142,-2.6298,-2.6333,-2.6708,-2.7004,-2.7276,-2.7276,-2.7461,-2.7742,-2.7742,-2.7771,-2.7818,-2.7818,-2.7818,-2.7818,-2.773,-2.7701,-2.7701,-2.7701,-2.7701,-2.7701,-2.7701,-2.7701,-2.7701,-2.7701,-2.7713,-2.7742,-2.7869,-2.7897,-2.7926,-2.8047,-2.8102,-2.8102,-2.8102,-2.8102,-2.8102,-2.8102,-2.8102,-2.8129,-2.8156,-2.8156,-2.7665,-2.624,-2.5922,-2.5461,-2.4528,-2.4438,-2.4177,-2.3463,-2.4052,-2.4141,-2.3427,-2.3392,-2.3392,-2.3392,-2.333,-2.3319,-2.3319,-2.3223,-2.3223,-2.3319,-2.3342,-2.3407,-2.3494,-2.3494,-2.3494,-2.542,-2.6636,-2.7682,-2.7287,-2.8262,-2.9039,-2.802,-2.8234,-2.8401,-2.7494,-2.8088,-2.879,-2.8798,-2.9305,-3.0192,-3.1658,-3.1688,-3.2029,-3.3386,-3.1737,-3.0528,-3.0922,-2.9578,-2.8608,-2.8608,-2.7967,-2.7645,-2.7899,-2.8348,-2.8519,-2.827,-2.7723,-2.7613,-2.8031,-2.7016,-2.6856,-2.7701,-2.624,-2.571,-2.6078,-2.5535,-2.5525,-2.604,-2.6016,-2.6421,-2.708,-2.7255,0.0,-2.7426,-2.7504,-2.7565,-2.7595,-2.7595,-2.7783,-2.802,-2.802,-2.8219,-2.844,-2.844,-2.844,-2.8362,-2.7876,-2.7701,-2.7701,-2.7701,-2.7701,-2.7701,-2.7701,-2.7701,-2.7713,-2.776,-2.7789,-2.78,-2.7869,-2.7897,-2.7926,-2.801,-2.8047,-2.8102,-2.8102,-2.8102,-2.8102,-2.8102,-2.8102,-2.8183,-2.8456,-2.8507,-2.8257,-2.7543,-2.6483,-2.5247,-2.3766,-2.3606,-2.3552,-2.341,-2.3517,-2.3552,-2.341,-2.3392,-2.3392,-2.3392,-2.3387,-2.341,-2.3455,-2.354,-2.354,-2.3473,-2.3584,-2.3576,-2.3494,-2.3494,-2.3494,-2.5818,-2.6593,-2.7207,-2.7791,-2.8261,-2.8307,-2.7309,-2.7301,-2.7505,-2.752,-2.79,-2.8586,-2.9731,-3.018,-3.0987,-3.2876,-3.3009,-3.3252,-3.4133,-3.3231,-3.2143,-3.1457,-3.0294,-2.9397,-2.9073,-2.8352,-2.8121,-2.8539,-2.8446,-2.8254,-2.7997,-2.7741,-2.775,-2.8109,-2.6916,-2.6551,-2.7195,-2.6402,-2.6078,-2.6307,-2.6393,-2.6507,-2.669,-2.674,-2.7017,-2.7461,-2.7539,-2.76,-2.7642,-2.7642,-2.7742,-2.7897,-2.7897,-2.8183,-2.8565,-2.8565,-2.8755,-2.8943,-2.8943,-2.8943,-2.892,-2.8628,-2.8368,-2.8156,-2.8156,-2.8156,-2.8156,-2.8156,-2.8156,-2.8183,-2.821,-2.8228,-2.8237,-2.8299,-2.8378,-2.843,-2.8507,-2.8533,-2.8558,-2.8558,-2.8558,-2.8558,-2.8558,-2.8558,-2.8608,-2.8791,-2.8469,-2.7926,-2.7251,-2.6253,-2.5302,-2.4526,-2.407,-2.3816,-2.3816,-2.3816,-2.3816,-2.3816,-2.3816,-2.3816,-2.3816,-2.3692,-2.3671,-2.3774,-2.3649,-2.3631,-2.3714,-2.3753,-2.371,-2.3598,-2.3598,-2.3571,-2.5669,-2.6071,-2.6332,-2.7653,-2.7725,-2.7241,-2.6381,-2.638,-2.6827,-2.7687,-2.7887,-2.8573,-3.0667,-3.101,-3.1573,-3.3497,-3.3791,-3.399,-3.4554,-3.4376,-3.3524,-3.1799,-3.1142,-3.0455,-2.9535,-2.8958,-2.8871,-2.9349,-2.8701,-2.8066,-2.7646,-2.7747,-2.7834,-2.7898,-2.6593,-2.6174,-2.6759,-2.658,-2.6578,-2.6791,-2.7386,-2.7586,-2.7396,-2.7426,-2.7547,-2.7748,-2.7818,-2.7869,-2.7936,-2.7964,-2.8112,-2.835,-2.835,-2.8646,-2.9052,-2.9052,-2.9163,-2.9293,-2.9293,-2.9293,-2.9293,-2.9293,-2.9056,-2.8743,-2.8743,-2.8743,-2.8743,-2.8743,-2.8743,-2.8743,-2.8743,-2.8743,-2.8743,-2.8767,-2.8863,-2.8957,-2.897,-2.8994,-2.8994,-2.8994,-2.8994,-2.8994,-2.8994,-2.8994,-2.8938,-2.8778,-2.8209,-2.7512,-2.6704,-2.5897,-2.5403,-2.5403,-2.4667,-2.419,-2.419,-2.419,-2.419,-2.419,-2.419,-2.419,-2.419,-2.4016,-2.3939,-2.4056,-2.3819,-2.3777,-2.3958,-2.3899,-2.3837,-2.3756,-2.3756,-2.3667,-2.343,-2.4484,-2.5347,-2.4855,-2.5595,-2.6215,-2.5344,-2.5841,-2.6735,-2.7543,-2.8372,-2.9506,-3.1306,-3.1125,-3.1457,-3.3695,-3.3158,-3.3316,-3.5684,-3.4662,-3.342,-3.2729,-3.2447,-3.1494,-2.9411,-2.9579,-2.963,-2.9337,-2.8732,-2.8097,-2.7473,-2.7642,-2.7718,-2.7528,-2.6481,-2.6493,-2.7666,-2.6609,-2.6436,-2.7149,-2.7218,-2.7407,-2.7654,-2.784,-2.8138,-2.8492,-2.8761,-2.8906,0.0,-2.9086,-2.9169,-2.9191,-2.9191,-2.9212,-2.9272,-2.9272,-2.9272,-2.9293,-2.9293,-2.9293,-2.9293,-2.9293,-2.9272,-2.923,-2.923,-2.923,-2.923,-2.923,-2.923,-2.923,-2.923,-2.923,-2.9188,-2.9007,-2.9012,-2.9016,-2.8858,-2.8905,-2.8994,-2.8994,-2.8994,-2.8994,-2.8994,-2.8994,-2.8737,-2.8026,-2.7842,-2.7512,-2.6704,-2.5897,-2.5403,-2.5403,-2.4667,-2.419,-2.419,-2.419,-2.419,-2.419,-2.419,-2.419,-2.419,-2.4172,-2.4192,-2.4266,-2.4303,-2.4266,-2.4173,-2.4173,-2.4096,-2.3976,-2.3976,-2.3876,-2.2057,-2.3632,-2.4046,-2.4483,-2.4687,-2.4757,-2.4567,-2.4869,-2.5593,-2.7029,-2.7662,-2.8799,-3.1543,-3.1313,-3.1434,-3.3671,-3.334,-3.3273,-3.4677,-3.4309,-3.3774,-3.3434,-3.2813,-3.1835,-3.049,-3.0016,-2.9513,-2.8914,-2.8649,-2.8207,-2.7486,-2.759,-2.7734,-2.7814,-2.7008,-2.6838,-2.7433,-2.7089,-2.7172,-2.7666,-2.7794,-2.8047,-2.836,-2.8456,-2.8576,-2.8718,-2.8845,-2.8938,0.0,-2.906,-2.9148,-2.9191,-2.9272,-2.9375,-2.9494,-2.9494,-2.957,-2.9662,-2.9662,-2.9662,-2.9662,-2.9662,-2.9662,-2.9626,-2.9375,-2.9293,-2.9293,-2.9293,-2.9293,-2.9293,-2.9293,-2.9293,-2.9293,-2.9254,-2.8903,-2.87,-2.9182,-2.8905,-2.8721,-2.9262,-2.9355,-2.9355,-2.9355,-2.8925,-2.846,-2.8164,-2.727,-2.6544,-2.6228,-2.5356,-2.4801,-2.4801,-2.4431,-2.419,-2.419,-2.419,-2.419,-2.419,-2.419,-2.419,-2.419,-2.4209,-2.4209,-2.4247,-2.4266,-2.4266,-2.4192,-2.4284,-2.4229,-2.4058,-2.4096,-2.4037,-1.5457,-1.8387,-2.0077,-2.0914,-2.2281,-2.3443,-2.3644,-2.4045,-2.4741,-2.6171,-2.7053,-2.8403,-3.1207,-2.9036,-2.7456,-2.9338,-2.6747,-2.4719,-2.5369,-2.7971,-2.9604,-2.9012,-3.1254,-3.2336,-3.0939,-3.0173,-2.949,-2.8725,-2.8659,-2.8354,-2.7708,-2.7724,-2.7757,-2.774,-2.7293,-2.721,-2.7517,-2.766,-2.7901,-2.8228,-2.8368,-2.8565,-2.8797,-2.8863,-2.8887,-2.8887,-2.8962,-2.9075,0.0,-2.9254,-2.9339,-2.9457,-2.9551,-2.968,-2.982,-2.982,-2.9886,-3.0034,-3.0034,-3.0034,-3.0034,-3.0034,-3.0034,-2.9969,-2.968,-2.9533,-2.9474,-2.9474,-2.9474,-2.9474,-2.9474,-2.9474,-2.9475,-2.9456,-2.9064,-2.8821,-2.942,-2.8895,-2.8482,-2.9101,-2.9026,-2.8857,-2.8857,-2.8351,-2.7864,-2.7638,-2.6624,-2.5818,-2.5574,-2.4933,-2.4493,-2.4493,-2.4392,-2.4303,-2.4209,-2.419,-2.419,-2.419,-2.419,-2.419,-2.419,-2.4209,-2.419,-2.419,-2.421,-2.4247,-2.4266,-2.4358,-2.4339,-2.4229,-2.4284,-2.421,-0.1695,-0.7065,-1.2515,-1.2528,-1.7578,-2.2513,-2.2513,-2.3474,-2.4491,-2.4857,-2.6785,-2.8791,-3.0089,-2.3439,-1.8115,-1.9262,-1.0911,-0.4556,-0.5303,-1.368,-1.9216,-1.7746,-2.7401,-3.3099,-3.0377,-3.0034,-2.9675,-2.8877,-2.8785,0.0,-2.811,-2.8102,-2.7787,-2.7141,-2.7172,-2.7549,-2.8298,-2.8298,-2.8446,-2.8773,-2.8797,-2.8815,-2.8815,-2.9021,-2.9108,-2.9112,-2.9372,-2.9608,0.0,-2.9924,-3.006,-3.0202,-3.0247,-3.0279,-3.0279,-3.0279,-3.0279,-3.0312,-3.0312,-3.0312,-3.0312,-3.0312,-3.0312,-3.0312,-3.0279,-3.0109,-2.9888,-2.9888,-2.9888,-2.9888,-2.9888,-2.9888,-2.9839,-2.9644,-2.9699,-2.9717,-2.9456,-2.8821,-2.8313,-2.8313,-2.7676,-2.7117,-2.7117,-2.7117,-2.6834,-2.6043,-2.5911,-2.5611,-2.482,-2.4707,-2.4707,-2.4707,-2.4692,-2.4564,-2.4228,-2.419,-2.419,-2.419,-2.419,-2.419,-2.419,-2.4191,-2.4192,-2.4192,-2.4266,-2.4339,-2.4394,-2.4394,-2.443,-2.45,-2.45,-2.4393,0.0616,-0.2537,-0.4544,-0.4878,-0.6546,-0.8268,-0.8656,-0.8722,-0.8994,-1.0046,-1.0124,-1.0333,-1.1322,-0.8694,-0.661,-0.7235,-0.4278,-0.2377,-0.3756,-1.2435,-1.854,-1.8255,-2.6545,-3.174,-3.0317,-2.9796,-2.9183,-2.8372,-2.8594,-2.8623,-2.8322,-2.8445,-2.842,-2.82,-2.8216,-2.8433,-2.8913,-2.9082,-2.9243,-2.9341,-2.9476,-2.9233,-2.8689,-2.9344,-2.9325,-2.8762,-2.8849,-2.8919,-2.8947,-2.8491,-2.8674,-2.9254,-2.9308,-2.973,-3.0292,-3.0292,-3.0292,-3.0216,-2.9609,-2.9813,-3.0101,-2.8919,-2.8938,-2.9302,-2.8708,-2.8868,-2.9273,-2.9273,-2.8853,-2.8681,-2.986,-2.9292,-2.8521,-2.9007,-2.827,-2.7609,-2.807,-2.7536,-2.7163,-2.7713,-2.7652,-2.7514,-2.7514,-2.702,-2.6545,-2.6293,-2.5779,-2.5323,-2.5057,-2.4921,-2.4832,-2.4832,-2.4749,-2.466,-2.4547,-2.4547,-2.4547,-2.4547,-2.4547,-2.4497,-2.4356,-2.4338,-2.4302,-2.419,-2.4229,-2.4229,-2.4266,-2.4358,-2.443,-2.45,-2.45,-2.4482,0.8704,0.5398,0.3237,0.2867,0.097,-0.0894,-0.1265,-0.125,-0.1343,-0.1988,-0.1818,-0.1544,-0.1631,0.1739,0.4514,0.4643,0.8115,1.03,0.8893,0.0213,-0.9088,-1.7341,-2.322,-2.7679,-3.045,-3.0387,-2.9751,-2.8766,-2.8941,-2.9031,-2.8901,-2.8756,-2.8687,-2.8741,-2.8833,-2.9063,-2.942,-2.9586,-2.971,-2.9756,-2.9874,-2.9486,-2.8654,-2.9201,-2.8966,-2.8111,-2.8111,-2.8169,0.0,-2.7752,-2.7955,-2.8537,-2.8574,-2.8959,-2.9463,-2.9463,-2.9463,-2.9387,-2.8848,-2.9014,-2.9294,-2.8195,-2.8225,-2.8497,-2.7601,-2.7873,-2.8516,-2.8516,-2.8121,-2.7948,-2.9034,-2.8516,-2.7834,-2.8332,-2.7682,-2.707,-2.7574,-2.7044,-2.6638,-2.716,-2.7037,-2.6836,-2.6836,-2.6362,-2.5975,-2.5975,-2.5539,-2.5191,-2.5191,-2.5101,-2.5013,-2.5013,-2.494,-2.4884,-2.4884,-2.4783,-2.4707,-2.4707,-2.4707,-2.4642,-2.4526,-2.451,-2.4459,-2.4374,-2.4338,-2.4338,-2.4355,-2.4411,-2.4465,-2.45,-2.45,-2.45,0.0,1.5721,1.0854,1.0708,0.6311,0.1983,0.1996,0.1534,0.0,0.1715,0.1047,0.0758,0.2026,0.925,1.5285,1.6195,2.4185,2.9945,2.8936,2.0285,0.6376,-1.4401,-1.7851,-2.1729,-2.9824,-3.1145,-3.0976,-2.979,-2.9737,-2.9725,-2.9649,-2.9013,-2.8676,-2.8734,-2.898,-2.9307,-2.9756,-2.9715,-2.9772,-2.9958,-2.9888,-2.939,-2.8568,-2.8626,-2.8145,0.0,-2.7247,-2.7414,-2.7629,-2.7565,-2.7739,-2.8012,-2.8015,-2.8047,-2.8106,-2.8096,-2.8096,-2.8096,-2.8038,-2.8055,-2.8081,-2.8027,-2.7959,-2.7752,-2.6884,-2.7084,-2.7627,-2.7627,-2.7589,-2.757,-2.7685,-2.7627,-2.757,-2.7616,-2.762,-2.7635,-2.7631,-2.7046,-2.6534,-2.6597,-2.5948,-2.5387,-2.5387,-2.5359,-2.5313,-2.5313,-2.5261,-2.5214,-2.5214,-2.5203,-2.5203,-2.5203,-2.5191,-2.5191,-2.5191,-2.4912,-2.4738,-2.4738,-2.4738,-2.4738,-2.4704,-2.4704,-2.4719,-2.4697,-2.4575,-2.4543,-2.4623,-2.4547,-2.4517,-2.4517,-2.45,-2.45,2.2757,0.0,1.8905,1.9221,1.8339,1.7436,0.0,1.8272,1.8661,1.8376,1.9072,2.0112,2.1211,2.3704,2.5851,2.6588,2.9719,3.1553,2.9991,2.0471,0.8558,-0.5184,-1.2792,-1.8027,-2.0779,-2.6612,-3.0119,-2.9865,-3.0151,-2.9951,-2.9137,-2.9058,-2.8772,-2.8124,-2.8181,-2.8545,-2.9255,-2.8692,-2.8763,-2.9465,-2.879,-2.8045,-2.7276,-2.7945,-2.7763,-2.6915,-2.6915,-2.6958,-2.6951,-2.6287,-2.6443,-2.7116,-2.711,-2.7516,-2.8097,-2.81,-2.8098,-2.8001,-2.7393,-2.7573,-2.7993,-2.7379,-2.6734,-2.613,-2.5859,-2.6309,-2.6939,-2.6939,-2.6495,-2.6302,-2.7605,-2.6987,-2.6158,-2.6728,-2.6391,-2.5947,-2.59,-2.5793,-2.5683,-2.5691,-2.5534,-2.5387,-2.5387,-2.539,-2.5382,-2.5382,-2.5365,-2.5348,-2.5348,-2.5303,-2.5273,-2.5273,-2.5217,-2.5191,-2.5191,-2.5132,-2.5076,-2.5076,-2.5076,-2.5006,-2.4861,-2.4847,-2.4804,-2.4704,-2.4716,-2.476,-2.4842,-2.4707,-2.4645,-2.4645,-2.4549,-2.45,2.3719,2.3271,2.2813,2.3164,2.3629,2.4046,2.4316,2.4988,2.5449,2.5137,2.6182,2.7404,2.8365,2.9583,3.0681,3.1451,3.2845,3.3259,3.1656,2.523,1.6675,0.583,-0.3945,-1.1726,0.0,-2.5251,-3.0403,-3.0056,-3.0017,-2.9726,-2.9117,-2.8513,-2.7954,-2.7409,-2.7079,-2.7434,-2.8579,-2.8208,-2.8272,-2.878,-2.8299,-2.7623,-2.6865,-2.7333,-2.7065,-2.6197,-2.6197,-2.6215,-2.6218,-2.5736,-2.5834,-2.6303,-2.6305,-2.6587,-2.6997,-2.7,-2.7008,-2.6949,-2.6498,-2.6635,-2.693,-2.6498,-2.6033,-2.5623,-2.557,-2.5853,-2.6188,-2.616,-2.584,-2.5704,-2.6613,-2.6188,-2.56,-2.6011,-2.5768,-2.5429,-2.5393,-2.5418,-2.5456,-2.5492,-2.5486,-2.5499,-2.5531,-2.5486,-2.5446,-2.5446,-2.5418,-2.5387,-2.5387,-2.5365,-2.5359,-2.5359,-2.5313,-2.5284,-2.5284,-2.5284,-2.5262,-2.5203,-2.5191,-2.5156,-2.5044,-2.5038,-2.4987,-2.4898,-2.4915,-2.4929,-2.4893,-2.4837,-2.4794,-2.4794,-2.466,-2.4599,2.4208,2.4472,2.4687,2.4751,2.5407,2.6041,2.6191,2.6654,2.6939,2.6672,2.7565,2.8588,2.9149,3.0583,3.1908,3.2684,3.392,3.443,3.338,3.1164,2.6286,1.7328,0.6732,0.0,-1.3139,-2.3132,-2.9279,-2.989,-2.9466,-2.9107,-2.8922,-2.7692,-2.687,-2.6607,-2.6011,-2.63,-2.7614,-2.7646,-2.7763,-2.8017,-2.7816,-2.7374,-2.6718,-2.6704,-2.6261,-2.5513,0.0,0.0,-2.5606,-2.5606,-2.5622,-2.5676,-2.5675,-2.5681,-2.5683,-2.5683,-2.5683,-2.5703,-2.5699,-2.5702,-2.5703,-2.5703,-2.5704,-2.5699,-2.5619,-2.5626,-2.5608,-2.555,-2.5526,-2.5522,-2.5519,-2.553,-2.5511,-2.5511,-2.5511,-2.5526,-2.5511,-2.5525,-2.5531,-2.5605,-2.5615,-2.5639,-2.5695,-2.5605,-2.5535,-2.5535,-2.5486,-2.5444,-2.5444,-2.5437,-2.543,-2.543,-2.5414,-2.5387,-2.5387,-2.5387,-2.5348,-2.5239,-2.5225,-2.5214,-2.5203,-2.5195,-2.5164,-2.5106,-2.5134,-2.508,-2.4955,-2.4942,-2.4942,-2.4929,-2.4794,-2.4719,2.5005,2.5952,2.6722,2.6228,2.6953,2.7773,2.7696,2.8612,2.9019,2.7437,2.8525,2.9655,2.9212,2.991,3.0646,3.0944,3.2399,3.3689,3.4275,3.2756,3.0408,2.7313,1.6912,0.6341,-0.3039,-1.2586,-2.1129,-2.8228,-2.8411,-2.7913,-2.7212,-2.7008,-2.6539,-2.572,-2.5636,-2.5722,-2.5976,-2.6026,-2.6433,-2.7181,-2.6425,-2.5996,-2.5879,-2.5836,-2.5718,-2.5584,0.0,-2.5583,-2.56,-2.56,-2.5619,-2.5618,-2.5624,-2.5623,-2.5618,-2.5612,-2.5648,-2.5702,-2.5692,-2.5707,-2.5703,-2.5703,-2.5702,-2.5693,-2.5694,-2.5685,-2.5685,-2.5666,-2.5622,-2.5581,-2.5587,-2.5588,-2.5569,-2.5511,-2.555,-2.5592,-2.5583,-2.5579,-2.5605,-2.5671,-2.5675,-2.5695,-2.5699,-2.5675,-2.5667,-2.5667,-2.5663,-2.5658,-2.5658,-2.556,-2.5486,-2.5486,-2.5432,-2.5387,-2.5387,-2.5387,-2.5398,-2.5374,-2.5313,-2.5252,-2.5206,-2.5206,-2.5198,-2.5171,-2.5241,-2.5261,-2.525,-2.5115,-2.5061,-2.508,-2.4942,-2.4874,2.5262,2.609,2.6969,2.721,2.8283,2.9294,2.9344,2.9825,2.9892,2.8608,2.9041,2.9577,2.9264,2.9916,3.0864,3.1936,3.2801,3.3289,3.3243,3.1932,3.0535,2.9326,0.0,0.8883,0.0428,-0.9868,-1.9222,-2.6994,-2.7278,-2.6966,-2.6709,-2.6315,-2.5929,-2.5566,-2.5582,-2.5577,-2.5554,-2.5587,-2.5828,-2.6288,-2.5897,-2.5699,-2.57,-2.5629,-2.5603,-2.5609,0.0,-2.5609,-2.5609,-2.5609,-2.5609,-2.5609,-2.5607,-2.5603,-2.5606,-2.559,-2.5624,-2.5659,-2.5644,-2.5659,-2.5656,-2.5657,-2.5646,-2.5654,-2.5699,-2.5693,-2.571,-2.5698,-2.5683,-2.5646,-2.5658,-2.5634,-2.5599,-2.5566,-2.5585,-2.5607,-2.56,-2.5598,-2.5605,-2.5648,-2.5648,-2.5664,-2.5699,-2.5699,-2.5699,-2.5699,-2.5699,-2.5699,-2.5699,-2.5643,-2.5605,-2.5605,-2.5585,-2.5568,-2.5568,-2.5568,-2.5518,-2.5414,-2.5374,-2.534,-2.5303,-2.5303,-2.5293,-2.5253,-2.5283,-2.5312,-2.5312,-2.5233,-2.5222,-2.5192,-2.508,-2.5019,2.5356,2.5993,2.6836,2.7547,2.8712,2.9784,3.015,3.024,3.0006,2.9184,2.934,2.9515,2.9149,2.9826,3.0956,3.2538,3.2793,3.2556,3.188,3.0704,2.959,2.873,2.06,1.1293,0.1721,-0.7407,-1.646,-2.5518,-2.5976,-2.592,-2.6169,-2.5653,-2.5398,-2.5452,-2.5506,-2.5486,-2.542,-2.5447,-2.5546,-2.5682,-2.5666,-2.5659,-2.567,-2.5603,-2.5574,-2.5587,-2.559,-2.5473,-2.5317,-2.5512,-2.5473,-2.5317,-2.5512,-2.5593,-2.5591,-2.5608,-2.5609,-2.5605,-2.5586,-2.5589,-2.5611,-2.5579,-2.5586,-2.56,-2.5659,-2.5675,-2.5683,-2.5679,-2.5693,-2.5703,-2.5703,-2.5655,-2.5612,-2.5613,-2.5622,-2.5629,-2.5598,-2.5598,-2.5595,-2.5612,-2.5609,-2.5648,-2.5681,-2.5701,-2.5697,-2.5691,-2.571,-2.5707,-2.5699,-2.5699,-2.5699,-2.5699,-2.5699,-2.5699,-2.5699,-2.5699,-2.563,-2.5473,-2.543,-2.5418,-2.5412,-2.5421,-2.5404,-2.535,-2.5331,-2.5322,-2.5322,-2.5322,-2.5303,-2.5303,-2.5192,-2.5149,2.5498,2.6167,2.6874,2.688,2.7538,2.8383,2.9288,2.9474,2.9226,2.8373,2.947,3.0136,2.8651,2.9081,2.9979,3.0836,3.0996,3.0933,3.0825,2.9977,2.8839,2.7414,2.5038,1.7594,0.2523,-0.1028,-0.849,-2.3271,-2.4412,-2.4598,-2.491,-2.5111,-2.5154,-2.5056,-2.5225,-2.5255,-2.5124,-2.5309,-2.548,-2.5609,-2.554,-2.5549,-2.56,-2.5543,-2.5512,-2.5518,-2.5562,-2.5146,-2.4466,-2.5263,-2.5127,-2.4466,-2.5277,-2.5601,-2.5602,-2.5601,-2.5599,-2.5584,-2.5526,-2.5557,-2.5588,-2.5526,-2.5546,-2.5611,-2.5619,-2.5613,-2.5613,-2.5603,-2.5654,-2.5703,-2.5703,-2.5703,-2.5683,-2.5683,-2.5681,-2.568,-2.5602,-2.5593,-2.5611,-2.5677,-2.5698,-2.5698,-2.5698,-2.5698,-2.5694,-2.5701,-2.5698,-2.571,-2.5703,-2.5699,-2.5699,-2.5699,-2.5699,-2.5699,-2.5699,-2.5699,-2.5695,-2.5691,-2.5493,-2.5434,-2.5488,-2.5498,-2.5492,-2.5486,-2.541,-2.5379,-2.5379,-2.5331,-2.5303,-2.5303,-2.5303,-2.5293,2.5559,2.6227,2.6871,2.6812,2.7032,2.7635,2.9074,2.9396,2.9158,2.8271,2.9026,2.9498,2.8372,2.9815,3.0903,3.0128,3.0448,3.0601,3.0037,2.8849,2.7739,2.6839,2.4706,1.9132,0.843,0.1999,-0.5869,-1.6436,-2.1231,-2.3895,-2.4342,-2.4691,-2.4885,-2.4885,-2.5072,-2.5134,-2.5031,-2.5115,-2.5186,-2.5241,-2.5401,-2.5511,-2.5517,-2.4949,-2.4684,-2.4678,-2.4187,-2.3797,-2.3556,-2.4381,-2.4542,-2.4322,-2.5112,-2.5398,-2.541,-2.5369,-2.5351,-2.5341,-2.5264,-2.5273,-2.5312,-2.537,-2.5388,-2.5436,-2.5514,-2.5529,-2.5557,-2.5596,-2.5613,-2.5652,-2.5681,-2.5703,-2.5703,-2.5703,-2.5703,-2.5681,-2.5662,-2.5662,-2.5662,-2.57,-2.5703,-2.5703,-2.5701,-2.57,-2.5699,-2.5696,-2.5694,-2.5693,-2.5707,-2.5705,-2.5701,-2.5707,-2.5691,-2.5699,-2.5699,-2.5699,-2.5703,-2.5707,-2.5634,-2.5585,-2.5568,-2.556,-2.554,-2.5492,-2.5473,-2.5467,-2.5467,-2.5432,-2.5395,-2.5357,-2.5357,-2.535,2.5489,2.594,2.6448,2.6675,2.6752,2.7219,2.8961,2.9142,2.8914,2.889,2.8916,2.8851,2.8563,2.979,3.057,2.9644,2.9765,2.9761,2.9113,2.7688,2.6492,2.592,2.3952,1.965,1.2038,0.362,-0.452,-1.2087,-1.9118,-2.3307,-2.3853,-2.4262,-2.4516,-2.4588,-2.4842,-2.4953,-2.4917,-2.4966,-2.4981,-2.4898,-2.5207,-2.536,-2.5383,-2.4837,-2.4585,-2.4527,-2.3721,-2.3373,-2.3366,-2.3675,-2.3952,-2.4246,-2.502,-2.533,-2.5321,-2.5254,-2.5224,-2.5192,-2.5149,-2.5126,-2.5126,-2.5212,-2.5243,-2.5253,-2.5351,-2.5406,-2.5451,-2.549,-2.5545,-2.5582,-2.5616,-2.565,-2.5677,-2.5677,-2.5673,-2.5668,-2.5698,-2.5676,-2.5661,-2.5705,-2.5696,-2.5701,-2.5703,-2.5703,-2.5703,-2.5703,-2.5702,-2.5702,-2.57,-2.57,-2.5698,-2.5709,-2.5696,-2.5704,-2.5694,-2.5694,-2.5691,-2.5707,-2.5694,-2.5671,-2.5632,-2.5621,-2.5617,-2.5552,-2.5537,-2.5532,-2.5532,-2.551,-2.548,-2.5432,-2.5432,-2.5406,2.5313,2.531,2.5526,2.6391,2.666,2.7166,2.8896,2.8579,2.8406,3.0238,2.9268,2.8378,2.9231,2.8738,2.8486,2.9342,2.8749,2.8134,2.8009,2.6481,2.5143,2.4484,2.3286,1.9638,1.2302,0.4077,-0.3851,-1.1261,-1.8454,-2.2768,-2.3369,-2.3762,-2.4023,-2.41,-2.4491,-2.4695,-2.4701,-2.4893,-2.4883,-2.4697,-2.4893,-2.508,-2.5207,-2.533,-2.5387,-2.5329,-2.4532,-2.4146,-2.4014,-2.3203,-2.3369,-2.4191,-2.5039,-2.5387,-2.5387,-2.5302,-2.5255,-2.5205,-2.5192,-2.5149,-2.5103,-2.5103,-2.5103,-2.5103,-2.5096,-2.5182,-2.5303,-2.5303,-2.5397,-2.5503,-2.5511,-2.5556,-2.5598,-2.5598,-2.56,-2.5618,-2.5687,-2.5644,-2.5623,-2.5683,-2.5707,-2.5707,-2.5707,-2.5707,-2.5691,-2.5702,-2.5702,-2.5703,-2.5701,-2.57,-2.57,-2.57,-2.57,-2.5697,-2.5701,-2.5701,-2.569,-2.5703,-2.5701,-2.569,-2.571,-2.5696,-2.5698,-2.5698,-2.5636,-2.5601,-2.5601,-2.5532,-2.5504,-2.5504,-2.5504,-2.5467,2.5453,2.5851,2.6354,2.6618,2.7157,2.7909,2.9031,2.9081,2.9187,3.0239,2.9691,2.8909,2.8553,2.8879,2.8867,2.7907,2.7519,2.7284,2.7118,2.5942,2.4891,2.4329,2.3177,2.1271,1.8314,1.0933,0.3312,-0.4031,-1.1357,-1.7594,-2.2444,-2.3437,-2.386,-2.3883,-2.4229,-2.4426,-2.4495,-2.454,-2.4308,-2.3786,-2.4467,-2.4855,-2.4955,-2.3816,-2.361,-2.414,-2.2815,-2.2228,-2.2188,-2.1985,-2.3093,-2.4847,-2.4473,-2.4732,-2.5182,-2.4506,-2.4553,-2.4911,-2.4296,-2.4401,-2.4832,-2.4942,-2.4968,-2.4981,-2.5061,-2.5138,-2.516,-2.516,-2.5182,-2.5243,-2.5332,-2.5376,-2.5426,-2.5573,-2.5604,-2.5596,-2.558,-2.5538,-2.5537,-2.5568,-2.5556,-2.5552,-2.5552,-2.5552,-2.5589,-2.5626,-2.5629,-2.5659,-2.5697,-2.5702,-2.5703,-2.5703,-2.5702,-2.5699,-2.5696,-2.5696,-2.5696,-2.5694,-2.57,-2.5697,-2.569,-2.5701,-2.5705,-2.5705,-2.5679,-2.5676,-2.5676,-2.5648,-2.5609,-2.5561,-2.5561,-2.5532,2.5274,2.5909,2.666,2.6988,2.7798,2.8741,2.9611,2.9805,2.9922,3.0385,2.9885,2.9208,2.8732,2.8844,2.8666,2.7635,2.7155,2.686,2.6676,2.5698,2.4784,2.4223,2.3231,2.2219,2.1297,1.4086,0.7557,0.2991,-0.6648,-1.4049,-1.8102,-2.1481,-2.3328,-2.3486,-2.3881,-2.4211,-2.4478,-2.4391,-2.4053,-2.3419,-2.3864,-2.3979,-2.3776,-2.319,-2.3031,-2.3163,-2.2201,-2.1403,-2.0812,-2.1528,-2.2677,-2.3986,-2.3815,-2.4075,-2.4455,-2.3891,-2.3731,-2.3771,-2.3611,-2.361,-2.3791,-2.4568,-2.4611,-2.4417,-2.4834,-2.4994,-2.5012,-2.5012,-2.5049,-2.5126,-2.5192,-2.5222,-2.5283,-2.5511,-2.5556,-2.5537,-2.5511,-2.5503,-2.5505,-2.5525,-2.5525,-2.5504,-2.5504,-2.5504,-2.5515,-2.5547,-2.5552,-2.5565,-2.5629,-2.5637,-2.565,-2.565,-2.5681,-2.5703,-2.5703,-2.5703,-2.5703,-2.5703,-2.5683,-2.5664,-2.5659,-2.5698,-2.5694,-2.5707,-2.5707,-2.5707,-2.5707,-2.5707,-2.5681,-2.5642,-2.5642,-2.5601,2.4968,2.5653,2.6611,2.7426,2.8538,2.9631,3.0414,3.055,3.053,3.0593,2.9986,2.9441,2.9496,2.8735,2.8105,2.8088,2.7281,2.6631,2.6492,2.5608,2.4763,2.4135,2.3361,2.2571,2.1857,1.4897,0.9995,0.9004,-0.3483,-1.1362,-1.2058,-1.8706,-2.2652,-2.2975,-2.3526,-2.4039,-2.4547,-2.4375,-2.3948,-2.3251,-2.3215,-2.2715,-2.1913,-2.296,-2.3026,-2.2367,-2.2293,-2.1431,-2.015,-2.1513,-2.2171,-2.2379,-2.3027,-2.338,-2.3479,-2.3403,-2.2834,-2.2229,-2.3074,-2.282,-2.2353,-2.4023,-2.4073,-2.3637,-2.4448,-2.4779,-2.4888,-2.4888,-2.4981,-2.508,-2.5072,-2.5072,-2.5149,-2.5406,-2.5468,-2.5472,-2.5492,-2.5492,-2.5518,-2.5576,-2.5531,-2.5486,-2.5486,-2.5486,-2.5486,-2.5492,-2.5498,-2.5504,-2.5504,-2.5547,-2.5598,-2.5601,-2.5648,-2.5689,-2.5701,-2.5696,-2.5696,-2.5683,-2.5638,-2.5592,-2.5593,-2.5662,-2.5683,-2.5693,-2.5693,-2.5693,-2.5693,-2.5691,-2.5709,-2.5709,-2.5707,-2.5676,2.5182,2.5857,2.6754,2.7561,2.9052,3.0365,3.0556,3.0583,3.0583,3.0595,3.0534,3.0283,2.9624,2.8782,2.7967,2.7299,2.635,2.568,2.5588,2.5111,2.4561,2.4008,2.3231,2.2461,2.1715,1.9137,1.5181,0.9546,0.0977,-0.6336,-1.1647,-1.8638,-2.2643,-2.2905,-2.3392,-2.3821,-2.4211,-2.4154,-2.351,-2.2242,-2.2787,-2.2009,-2.0168,-2.1031,-2.1395,-2.1311,-2.1247,-2.1475,-2.1765,-2.0747,-2.1475,-2.3098,-2.1988,-2.2332,-2.3422,-2.2731,-2.2314,-2.214,-2.2331,-2.2234,-2.2195,-2.3198,-2.3449,-2.3494,-2.4302,-2.4642,-2.4734,-2.4734,-2.4764,-2.4823,-2.4915,-2.4936,-2.4975,-2.5149,-2.5273,-2.5351,-2.5412,-2.5412,-2.5443,-2.5432,-2.5395,-2.533,-2.533,-2.533,-2.5357,-2.541,-2.5467,-2.5504,-2.5504,-2.5515,-2.5537,-2.5598,-2.5576,-2.5589,-2.5698,-2.5655,-2.5625,-2.5623,-2.5609,-2.559,-2.5598,-2.5609,-2.5616,-2.562,-2.562,-2.562,-2.562,-2.5664,-2.5703,-2.5702,-2.5694,-2.5685,2.5182,2.6167,2.7498,2.882,2.9891,3.0599,3.0605,3.0645,3.0687,3.0646,3.0726,3.053,2.9665,2.8786,2.7906,2.7007,2.6009,2.5343,2.5301,2.4892,2.4479,2.4137,2.3352,2.2548,2.1766,2.0523,1.8185,1.4281,0.6819,0.0932,-0.2517,-0.9685,-1.5136,-1.8295,-1.8745,-2.0573,-2.3964,-2.3921,-2.3216,-2.1964,-2.2239,-2.1375,-1.953,-1.9987,-2.0262,-2.0326,-2.0275,-2.0559,-2.0937,-2.0023,-2.063,-2.2014,-2.1109,-2.1299,-2.2006,-2.1544,-2.112,-2.0808,-2.1269,-2.1146,-2.0954,-2.2224,-2.2367,-2.2303,-2.3561,-2.3934,-2.4025,-2.4465,-2.4594,-2.4626,-2.4685,-2.476,-2.4832,-2.4962,-2.5157,-2.5322,-2.5341,-2.5379,-2.5397,-2.5397,-2.5361,-2.5303,-2.5303,-2.5303,-2.5303,-2.5359,-2.539,-2.5395,-2.5395,-2.5432,-2.5467,-2.5504,-2.5504,-2.5521,-2.5604,-2.5546,-2.5529,-2.5605,-2.5574,-2.5579,-2.5604,-2.5598,-2.56,-2.5609,-2.5609,-2.5609,-2.5609,-2.5638,-2.5641,-2.5641,-2.5644,-2.5644,2.5084,2.6433,2.8232,2.9969,3.0517,3.062,3.0626,3.0708,3.0774,3.0723,3.076,3.0584,2.9845,2.8996,2.8097,2.7149,2.6165,2.5444,2.5239,2.4795,2.4422,2.4174,2.3472,2.2686,2.1888,2.0719,1.9808,1.9303,1.186,0.731,0.727,0.0117,-0.6403,-1.1757,-1.3209,-1.66,-2.2196,-2.3149,-2.3022,-2.1844,-2.1471,-2.0629,-1.939,-1.9504,-1.9546,-1.9526,-1.9541,-1.9522,-1.9456,-1.9479,-1.9929,-2.0599,-2.0388,-2.0391,-2.0519,-2.0484,-1.9987,-1.9433,-2.0357,-2.0102,-1.9629,-2.1232,-2.1266,-2.0991,-2.2715,-2.3167,-2.3285,-2.4221,-2.4461,-2.4478,-2.4495,-2.4578,-2.4689,-2.4832,-2.5024,-2.5203,-2.5253,-2.5313,-2.5351,-2.536,-2.5332,-2.5284,-2.5264,-2.5274,-2.5303,-2.5303,-2.5303,-2.5303,-2.5303,-2.5339,-2.539,-2.5406,-2.5439,-2.5473,-2.5492,-2.5439,-2.5444,-2.5557,-2.5524,-2.5517,-2.5557,-2.5583,-2.5571,-2.5564,-2.5593,-2.5595,-2.5595,-2.5601,-2.5603,-2.5603,-2.5607,-2.5609,2.5061,2.6458,2.8147,2.929,3.0133,3.0691,3.0762,3.0733,3.0723,3.0771,3.0788,3.0743,3.0572,2.9824,2.8929,2.7981,2.6998,2.5991,2.5018,2.4666,2.4265,2.3605,2.3153,2.2643,2.1936,2.0991,2.0162,1.9585,1.2579,0.7959,0.7171,0.0425,-0.4094,-0.5553,-1.1052,-1.45,-1.5558,-2.0981,-2.2898,-2.1292,-2.0165,-1.9512,-1.9316,-1.939,-1.936,-1.9266,-1.9308,-1.932,-1.9353,-1.9442,-1.997,-2.0606,-1.9862,-1.9979,-2.0586,-2.0519,-1.9987,-1.9433,-2.0225,-1.9989,-1.9463,-2.0395,-2.0647,-2.0899,-2.2462,-2.3012,-2.3268,-2.4099,-2.4321,-2.4357,-2.4461,-2.4512,-2.4561,-2.4689,-2.4741,-2.4831,-2.5072,-2.5134,-2.5153,-2.5222,-2.5264,-2.5264,-2.5149,-2.5233,-2.5303,-2.5303,-2.5303,-2.5303,-2.5303,-2.5322,-2.534,-2.5379,-2.5348,-2.5365,-2.5492,-2.5437,-2.5415,-2.5437,-2.5468,-2.548,-2.544,-2.5488,-2.5495,-2.5434,-2.5544,-2.5604,-2.5604,-2.5589,-2.5609,-2.559,-2.5601,-2.5609,2.5861,2.6649,2.7614,2.9044,2.9717,3.016,3.0682,3.0781,3.0749,3.0755,3.0711,3.0672,3.0645,2.9894,2.8993,2.8085,2.708,2.6009,2.495,2.4586,2.4247,2.3705,2.3017,2.2327,2.174,2.0716,1.9929,1.9464,1.5825,1.3299,1.2628,0.9023,0.503,0.0762,-0.5462,-1.0585,-1.4496,-2.0455,-2.2704,-2.1252,-2.0368,-1.9703,-1.9182,-1.9184,-1.9405,-1.9804,-1.9415,-1.9454,-1.9769,-1.9381,-1.9433,-1.9709,-1.9277,-1.9401,-1.9811,-1.9744,-1.9554,-1.9393,-1.9711,-1.9588,-1.9355,-1.9703,-2.0107,-2.0656,-2.186,-2.2539,-2.3069,-2.3933,-2.419,-2.4191,-2.4266,-2.4339,-2.4392,-2.4462,-2.4478,-2.4508,-2.4636,-2.4795,-2.4962,-2.5075,-2.5068,-2.5056,-2.5006,-2.5043,-2.508,-2.508,-2.5138,-2.5182,-2.5182,-2.5253,-2.5303,-2.535,-2.5322,-2.5313,-2.5387,-2.5341,-2.5293,-2.5331,-2.5369,-2.5397,-2.5406,-2.5432,-2.544,-2.5387,-2.5495,-2.5538,-2.5538,-2.5574,-2.56,-2.56,-2.5604,-2.5593,2.6229,2.6643,2.7137,2.8435,2.8962,2.941,3.0269,3.0443,3.047,3.0631,3.0579,3.0496,3.0496,2.9948,2.9207,2.8305,2.7249,2.6208,2.5171,2.4568,2.408,2.366,2.2912,2.2152,2.1559,2.0651,1.9929,1.9472,1.8444,1.7572,1.6944,1.5891,1.2806,0.7284,0.1125,-0.5309,-1.2088,-1.9092,-2.2047,-2.0964,-2.0336,-1.9682,-1.8999,-1.8984,-1.9434,-2.0156,-1.9481,-1.9447,-1.9831,-1.9288,-1.9035,-1.9001,-1.8948,-1.9,-1.9119,-1.9049,-1.9134,-1.9248,-1.9227,-1.923,-1.9232,-1.9282,-1.9618,-2.0187,-2.1093,-2.1844,-2.2584,-2.3484,-2.387,-2.4054,-2.4094,-2.4171,-2.4266,-2.4284,-2.4266,-2.4266,-2.4284,-2.4505,-2.47,-2.4741,-2.4737,-2.47,-2.4689,-2.4704,-2.4747,-2.4809,-2.4904,-2.4993,-2.5037,-2.5138,-2.5201,-2.5201,-2.5179,-2.5198,-2.5239,-2.5195,-2.5187,-2.5273,-2.5292,-2.5312,-2.5351,-2.537,-2.537,-2.5351,-2.5423,-2.5464,-2.5495,-2.5531,-2.557,-2.5564,-2.557,-2.557,2.5518,2.6223,2.6929,2.7015,2.7656,2.8498,2.9372,2.9469,2.9601,3.0444,3.0402,3.0222,3.0222,3.0275,3.0006,2.902,2.7966,2.688,2.5797,2.4538,2.3595,2.317,2.2859,2.2381,2.1568,2.115,2.0599,1.9823,1.902,1.8066,1.6944,1.6489,1.5528,1.3949,0.7967,0.158,-0.5048,-1.5622,-2.064,-2.0058,-1.9199,-1.8769,-1.8716,-1.8861,-1.9289,-1.9872,-1.9344,-1.9053,-1.8967,-1.9137,-1.9117,-1.8998,-1.9001,-1.8948,-1.8913,-1.8842,-1.8825,-1.8843,-1.8964,-1.9014,-1.9048,-1.9243,-1.9282,-1.9403,-2.0223,-2.0989,-2.1731,-2.2546,-2.3291,-2.3876,-2.4054,-2.4113,-2.4152,-2.4266,-2.4209,-2.4152,-2.4266,-2.4301,-2.4264,-2.4099,-2.4155,-2.4206,-2.4082,-2.4153,-2.4325,-2.4576,-2.4625,-2.4685,-2.4902,-2.4915,-2.4929,-2.4929,-2.485,-2.491,-2.5082,-2.5044,-2.5069,-2.5187,-2.5261,-2.528,-2.5203,-2.528,-2.528,-2.5203,-2.528,-2.537,-2.5495,-2.5448,-2.5429,-2.5503,-2.5448,-2.5429,2.5542,2.5804,2.6203,2.6815,2.7163,2.7593,2.8469,2.8603,2.8725,2.9438,2.9498,2.9551,2.9886,2.9977,2.9741,2.8852,2.819,2.727,2.5727,2.4835,2.4014,2.3137,2.2607,2.2084,2.1415,2.0878,2.0348,1.9823,1.9258,1.8655,1.8013,1.712,1.6211,1.5314,0.8691,0.0305,-0.9702,-1.4014,-1.7359,-1.981,-1.9624,-1.9251,-1.8697,-1.8734,-1.8857,-1.8992,-1.8786,-1.9038,-1.9486,-1.9022,-1.8789,-1.8753,-1.8697,-1.8752,-1.8825,-1.877,-1.8789,-1.8932,-1.9452,-1.9613,-1.9577,-1.9651,-1.9992,-2.0313,-2.0134,-2.0918,-2.1971,-2.2383,-2.307,-2.3707,-2.3876,-2.3917,-2.3917,-2.3978,-2.3937,-2.3917,-2.3978,-2.404,-2.406,-2.3959,-2.3943,-2.3926,-2.3885,-2.3906,-2.3985,-2.4062,-2.4173,-2.4243,-2.4314,-2.4545,-2.4689,-2.464,-2.4785,-2.4847,-2.4847,-2.4818,-2.4818,-2.4879,-2.4987,-2.5038,-2.5,-2.516,-2.5225,-2.5191,-2.5225,-2.5271,-2.537,-2.5397,-2.5404,-2.544,-2.5404,-2.5404,2.5571,2.5811,2.611,2.6484,2.6724,2.7023,2.7605,2.769,2.781,2.8442,2.872,2.8874,2.8919,2.9323,2.9493,2.8948,2.839,2.7559,2.6284,2.5366,2.4552,2.3781,2.3039,2.2316,2.1649,2.1045,2.0474,1.9818,1.9479,1.9109,1.8577,1.7787,1.695,1.6014,0.884,0.13,-0.6457,-0.9093,-1.171,-1.4319,-1.6011,-1.6555,-1.6156,-1.7728,-1.8469,-1.8471,-1.8492,-1.8831,-1.933,-1.8739,-1.8469,-1.8428,-1.8428,-1.8505,-1.86,-1.8601,-1.8819,-1.9178,-1.9712,-2.003,-2.0167,-1.9978,-2.0403,-2.0862,-2.0101,-2.0891,-2.2086,-2.2224,-2.2901,-2.3594,-2.3685,-2.3753,-2.3795,-2.3795,-2.3795,-2.3795,-2.3771,-2.3837,-2.3878,-2.3771,-2.3685,-2.3602,-2.3558,-2.3558,-2.3602,-2.3707,-2.378,-2.3848,-2.3928,-2.4173,-2.4332,-2.4368,-2.4524,-2.4642,-2.4654,-2.4654,-2.4654,-2.4707,-2.4794,-2.4832,-2.4832,-2.4966,-2.5063,-2.5101,-2.5101,-2.516,-2.5269,-2.5312,-2.5351,-2.537,-2.5351,-2.5351,0.0,0.0,0.0,2.5934,2.6283,2.684,2.6835,2.6796,2.6921,2.7558,2.8155,2.8278,2.7349,2.8372,2.9314,2.9318,2.8484,2.7754,2.7515,2.6117,2.5108,2.509,2.4221,2.3224,2.221,2.179,2.1089,1.9807,1.9767,1.9427,1.8577,1.85,1.7841,1.6355,0.9123,0.5454,0.5757,-0.069,-0.3812,-0.359,-0.8129,-1.0494,-1.1051,-1.5655,-1.7996,-1.84,-1.845,-1.8375,-1.827,-1.829,-1.8225,-1.8134,-1.8263,-1.8298,-1.8245,-1.8394,-1.8923,-1.9547,-1.9679,-2.0213,-2.0727,-2.0149,-2.0436,-2.0873,-2.0078,-2.0845,-2.199,-2.199,-2.2721,-2.3504,-2.3504,-2.3646,-2.3795,-2.3795,-2.3795,-2.3774,-2.3721,-2.37,-2.3656,-2.3539,-2.3383,-2.3265,-2.3144,-2.3119,-2.3199,-2.3458,-2.3481,-2.3553,-2.3753,-2.3795,-2.3878,-2.4058,-2.4077,-2.421,-2.453,-2.4495,-2.4528,-2.4657,-2.4692,-2.4673,-2.4692,-2.4707,-2.4764,-2.4888,-2.4902,-2.4987,-2.518,-2.521,-2.5236,-2.5301,-2.5225,-2.5236,2.5529,0.0,0.0,0.0,0.0,0.0,2.7735,2.769,2.7624,2.7496,2.7618,2.7573,2.7082,2.723,2.7403,2.724,2.7962,2.825,2.7453,2.6453,2.5628,2.5103,2.438,2.3473,2.2228,2.2029,2.1403,0.0,1.9818,1.9675,1.9581,1.8921,1.8001,1.6714,1.3697,1.0515,0.7167,0.3633,0.0522,-0.2162,-0.4132,-0.7122,-1.0936,-1.1707,-1.4393,-1.8382,-1.7866,-1.7545,-1.7492,-1.8065,-1.827,-1.8298,-1.8827,-1.8982,-1.8984,-1.9562,-1.9842,-2.0021,-2.0582,-2.1007,-2.1278,-2.1063,-2.1229,-2.1342,-2.0495,-2.094,-2.177,-2.2069,-2.2721,-2.3412,-2.3646,-2.3753,-2.3795,-2.3795,-2.3795,-2.3795,-2.3792,-2.3771,-2.3707,-2.3539,-2.3471,-2.3383,-2.3265,-2.3241,-2.3241,-2.3199,-2.3199,-2.3223,-2.3277,-2.3463,-2.3576,-2.3576,-2.371,-2.3798,-2.3803,-2.3783,-2.3844,-2.404,-2.4192,-2.4319,-2.4476,-2.4626,-2.4723,-2.4749,-2.4749,-2.4837,-2.4987,-2.5125,-2.5203,-2.5225,-2.5203,-2.5236,0.0,2.601,2.6695,2.6429,0.0,0.0,2.7225,2.7278,2.731,2.6587,2.6697,2.6666,2.5948,2.6298,2.6505,2.5881,2.6835,2.7441,2.677,2.6325,2.5885,2.5466,2.474,2.3782,2.2559,2.2033,2.1349,2.0285,1.9975,1.9848,1.9884,1.8959,1.8173,1.7544,1.6252,1.4165,1.1221,0.9524,0.7312,0.464,0.2215,-0.081,-0.4427,-0.8105,-1.1619,-1.4938,-1.6892,-1.7527,-1.7224,-1.7631,-1.7832,-1.7961,-1.8876,-1.9178,-1.9218,-2.0017,-2.0448,-2.0696,-2.107,-2.1496,-2.1788,-2.1332,-2.1487,-2.1651,-2.0755,-2.1096,-2.1867,-2.2079,-2.2643,-2.3199,-2.3486,-2.3553,-2.3576,-2.3646,-2.3667,-2.3707,-2.3774,-2.3795,-2.375,-2.3544,-2.3494,-2.3448,-2.3241,-2.3217,-2.3193,-2.3119,-2.3095,-2.3095,-2.3095,-2.3247,-2.3342,-2.3407,-2.3508,-2.354,-2.35,-2.35,-2.3544,-2.3628,-2.3738,-2.3903,-2.4155,-2.4265,-2.4355,-2.4442,-2.4526,-2.4654,-2.4823,-2.4987,-2.5113,-2.5191,-2.5191,-2.5214,0.0,0.0,0.0,2.5886,2.6972,0.0,2.6357,2.6504,2.6648,2.5595,2.5825,2.5859,2.47,2.5541,2.6135,2.5226,2.5497,2.5799,2.5808,2.5834,2.5872,2.5872,2.5013,2.4007,2.2897,2.1956,2.1135,2.0404,2.015,1.999,1.9747,1.8983,1.8525,1.8616,1.7396,1.6602,1.6402,1.5417,1.4574,1.3726,0.9706,0.684,0.4859,-0.3837,-0.8214,-0.923,-1.483,-1.6979,-1.6523,-1.6938,-1.7183,-1.7502,-1.8653,-1.9127,-1.9273,-2.0135,-2.0892,-2.1455,-2.1315,-2.1722,-2.2112,-2.12,-2.1345,-2.1747,-2.0882,-2.1339,-2.2153,-2.2181,-2.2554,-2.2977,-2.3168,-2.3217,-2.3247,-2.3435,-2.341,-2.3383,-2.3545,-2.3515,-2.3433,-2.3333,-2.344,-2.343,-2.3193,-2.3144,-2.3119,-2.3095,-2.3095,-2.3095,-2.3095,-2.3095,-2.3175,-2.3348,-2.3348,-2.3394,-2.3432,-2.3432,-2.341,-2.3364,-2.3364,-2.3477,-2.3735,-2.3774,-2.384,-2.402,-2.4247,-2.4476,-2.4676,-2.4804,-2.4961,-2.5144,-2.5144,-2.5156,2.5283,2.5787,2.6597,2.6504,2.7355,0.0,2.8582,2.8235,2.7717,2.7289,2.6644,2.6067,2.5651,2.5096,2.5056,2.6172,2.4928,2.4302,2.5622,2.5407,2.5114,2.5114,2.4521,2.3569,2.2245,2.185,2.1229,2.0021,2.0273,2.0361,2.012,1.9969,1.9722,1.9332,1.8092,1.763,1.811,1.619,1.5555,1.6194,1.4599,1.1285,0.6606,0.5294,0.1751,-0.3625,-0.8267,-1.0699,-1.1702,-1.5417,-1.7326,-1.8013,-1.8784,-1.9548,-2.0329,-2.113,-2.1623,-2.1866,-2.1781,-2.1614,-2.138,-2.1032,-2.1137,-2.1356,-2.0954,-2.1579,-2.2497,-2.273,-2.306,-2.3319,-2.3289,-2.3289,-2.3289,-2.3247,-2.2794,-2.2339,-2.2286,-2.179,-2.1538,-2.2048,-2.2962,-2.3611,-2.3453,-2.3336,-2.3217,-2.3119,-2.3095,-2.3095,-2.3095,-2.3095,-2.3119,-2.3151,-2.3102,-2.3052,-2.301,-2.296,-2.2985,-2.3133,-2.3157,-2.3259,-2.3477,-2.3477,-2.3482,-2.3526,-2.3943,-2.4247,-2.4459,-2.4657,-2.4768,-2.4798,-2.4798,-2.4851,2.4948,2.5183,2.574,2.5955,2.6753,0.0,0.0,2.7846,2.7853,2.6774,2.6745,2.6719,2.5995,2.5667,2.5634,2.5917,2.4856,2.4164,2.4669,2.4392,2.4091,2.4091,2.3734,2.3031,2.1956,2.1674,2.1209,2.0373,2.073,2.0878,2.0599,2.055,2.0299,1.9914,1.9144,1.8819,1.8988,1.7726,1.7167,1.7259,1.6904,1.4922,1.1508,0.928,0.631,0.2688,-0.2528,-0.5119,-0.5769,-0.79,-1.1078,-1.4907,-1.7994,-1.9679,-2.0424,-2.1187,-2.1631,-2.184,-2.1735,-2.1387,-2.0971,-2.0816,-2.0816,-2.0844,-2.0615,-2.1356,-2.2326,-2.2773,-2.2977,-2.3052,-2.2952,-2.2944,-2.2865,-2.2531,-2.245,-2.2264,-2.151,-2.1673,-2.1826,-2.1394,-2.2094,-2.2811,-2.3025,-2.2995,-2.2919,-2.2816,-2.2893,-2.2944,-2.2944,-2.3045,-2.3095,-2.3052,-2.2995,-2.2902,-2.2868,-2.279,-2.279,-2.2876,-2.2893,-2.3028,-2.3236,-2.3259,-2.3312,-2.3392,-2.3522,-2.3777,-2.4098,-2.4211,-2.4408,-2.4707,-2.4707,-2.4753,2.4671,2.4651,2.4829,2.5149,2.5861,2.6404,0.0,0.0,0.0,2.5978,2.6621,2.7209,2.6325,2.6472,2.6561,2.5944,2.539,2.4766,2.4064,2.3823,2.3636,2.3516,2.3016,2.2489,2.1963,2.16,2.1279,2.0925,2.1406,2.15,2.1103,2.0975,2.0765,2.0483,2.0143,1.9844,1.9581,1.9184,1.8633,1.7984,1.8208,1.7701,1.6428,1.2119,0.9842,0.905,0.3019,0.0315,0.0119,-0.0469,-0.4205,-1.0078,-1.5432,-1.8598,-2.0215,-2.0748,-2.1063,-2.119,-2.1084,-2.0697,-2.0246,-2.0162,-2.0221,-2.0312,-2.0339,-2.1097,-2.2056,-2.2561,-2.2582,-2.2426,-2.2373,-2.2253,-2.2082,-2.1727,-2.189,-2.1881,-2.1074,-2.1639,-2.1989,-2.087,-2.1092,-2.1614,-2.2125,-2.2323,-2.2373,-2.2293,-2.2546,-2.2738,-2.2738,-2.2876,-2.2952,-2.2919,-2.2893,-2.2842,-2.2764,-2.2738,-2.2712,-2.2712,-2.2712,-2.279,-2.3003,-2.3003,-2.3133,-2.3341,-2.3182,-2.3301,-2.3714,-2.3714,-2.404,-2.4613,-2.4613,-2.4629,2.4998,2.4709,2.4599,2.4874,2.5206,2.5692,2.656,0.0,2.6898,2.6675,0.0,2.6815,2.7381,0.0,0.0,2.7999,2.7083,2.5926,2.5063,2.5015,2.4847,2.4252,2.2852,2.2038,2.2313,2.1987,2.1599,2.1263,2.2205,2.238,2.1419,2.1509,2.1448,2.1119,2.0565,2.0246,2.0177,1.9624,1.9317,1.9287,1.9339,1.8991,1.8282,1.7223,1.6118,1.4738,0.905,0.603,0.4759,0.0602,-0.2237,-0.4405,-0.9174,-1.4699,-1.9922,-2.0001,-1.9814,-1.9467,-1.9398,-1.8929,-1.834,-1.8506,-1.9028,-1.9767,-2.0655,-2.1344,-2.1915,-2.2265,-2.1973,-2.1541,-2.1541,-2.1087,-2.0801,-2.1378,-2.0536,-1.9893,-2.102,-2.0311,-1.958,-2.0025,-2.0162,-2.0339,-2.0755,-2.127,-2.1593,-2.1533,-2.2097,-2.2525,-2.2525,-2.2552,-2.2569,-2.2569,-2.2659,-2.2685,-2.2632,-2.2712,-2.2764,-2.2712,-2.2712,-2.2712,-2.2738,-2.2738,-2.285,-2.3126,-2.3102,-2.3212,-2.3455,-2.3455,-2.3735,-2.4266,-2.4266,-2.4321,2.5401,2.5009,2.4762,2.5341,2.5253,2.5313,2.6465,0.0,2.6715,2.6822,0.0,0.0,0.0,0.0,0.0,0.0,2.7156,2.6504,2.613,2.5783,2.5248,2.4295,2.3884,2.3473,2.3009,2.2633,2.2196,2.162,2.2608,2.2798,2.1754,2.1781,2.1691,2.137,2.1197,2.1007,2.0812,2.0614,2.0431,2.0246,2.0246,1.9756,1.8836,1.8589,1.7773,1.6373,1.3657,1.2045,1.1143,0.9193,0.587,0.1886,0.0169,-0.6316,-1.4679,-1.4602,-1.6472,-1.9001,-1.8911,-1.8475,-1.8071,-1.8518,-1.8873,-1.941,-2.0718,-2.1427,-2.1797,-2.1969,-2.1866,-2.1758,-2.1758,-2.1467,-2.1097,-2.0662,-2.0399,-2.0085,-1.9512,-1.9522,-1.9474,-1.889,-1.9096,-1.9273,-1.8979,-2.0136,-2.1214,-2.158,-2.1984,-2.2271,-2.2271,-2.2398,-2.2515,-2.2515,-2.2426,-2.2381,-2.2487,-2.2315,-2.2243,-2.2298,-2.2364,-2.249,-2.2685,-2.2712,-2.2764,-2.2868,-2.2868,-2.3003,-2.3236,-2.3236,-2.3405,-2.3735,-2.3896,-2.4095,2.5603,2.5136,2.4739,2.5412,2.5057,0.0,0.0,0.0,0.0,2.6447,2.7108,0.0,0.0,0.0,2.7362,0.0,0.0,2.6851,2.6373,2.6403,2.6095,2.5173,2.5252,2.4988,0.0,2.3782,2.3392,2.2425,2.3323,2.3426,2.2192,2.2158,2.2027,2.1764,2.1823,2.1705,2.1293,2.1323,2.1213,2.091,2.091,2.0319,1.9194,1.9259,1.8438,1.6924,1.6558,1.599,1.5314,1.5459,1.2637,0.8274,0.8704,0.2786,-0.619,-0.7831,-1.081,-1.4223,-1.5536,-1.6707,-1.7733,-1.8371,-1.8738,-1.918,-2.0442,-2.1129,-2.1479,-2.1521,-2.1447,-2.1404,-2.1462,-2.1139,-2.0643,-1.997,-2.0056,-1.9982,-1.8906,-1.9327,-1.9589,-1.8447,-1.8466,-1.8467,-1.7885,-1.9318,-2.0672,-2.1147,-2.169,-2.201,-2.201,-2.2186,-2.2304,-2.2304,-2.2186,-2.2113,-2.222,-2.2003,-2.1899,-2.194,-2.2056,-2.2198,-2.2453,-2.2535,-2.2544,-2.2544,-2.2642,-2.279,-2.2995,-2.2995,-2.3109,-2.3318,-2.3584,-2.3795,0.0,0.0,0.0,2.4635,0.0,0.0,0.0,0.0,2.6032,0.0,0.0,2.6913,2.6802,2.6757,2.6738,0.0,0.0,0.0,0.0,2.682,2.7958,2.7547,2.6826,2.5985,2.504,2.5594,2.5374,0.0,2.4731,2.4558,2.2773,2.2747,2.2642,2.2371,2.2375,2.2091,2.1493,2.1491,2.1399,2.1198,2.1198,2.067,1.9672,1.9872,1.8868,1.7013,1.7321,1.6705,1.5536,1.5983,1.5544,1.4651,1.4988,1.1564,0.568,-0.0408,-0.227,-0.2482,-0.7414,-1.2471,-1.6839,-1.7511,-1.8307,-1.9126,-1.9761,-2.0384,-2.0893,-2.0844,-2.0369,-1.992,-2.0102,-1.9244,-1.8516,-1.9402,-1.9031,-1.8847,-2.0134,-1.9909,-1.935,-1.9114,-1.848,-1.8017,-1.7985,-1.9009,-1.9837,-1.9784,-2.0943,-2.1811,-2.1811,-2.1827,-2.1811,-2.1811,-2.194,-2.194,-2.1827,-2.1928,-2.194,-2.1811,-2.1811,-2.1827,-2.1827,-2.2068,-2.222,-2.222,-2.2517,-2.2712,-2.2712,-2.2712,-2.2868,-2.3102,-2.3335,-2.3414,0.0,0.0,2.431,2.4734,0.0,0.0,0.0,0.0,0.0,0.0,0.0,0.0,2.5788,0.0,0.0,0.0,0.0,0.0,0.0,2.7603,2.8409,2.8642,2.7641,2.679,2.648,2.6083,0.0,2.4095,2.4401,2.4086,2.2781,2.273,2.2677,2.2598,2.2651,2.2571,2.2364,2.2402,2.2375,2.2337,2.2186,2.1345,1.9899,2.0327,1.9295,1.7167,1.7577,1.7184,1.6219,1.6209,1.5832,1.5284,1.5224,1.396,1.1554,0.6014,0.1881,-0.1216,-0.3095,-0.748,-1.2316,-1.2887,-1.5866,-1.9374,-1.9884,-2.0325,-2.0613,-2.0545,-2.0407,-2.0285,-2.035,-2.0036,-1.975,-1.9782,-1.9657,-1.9593,-1.9794,-1.9597,-1.9378,-1.9251,-1.8627,-1.8248,-1.8619,-1.9005,-1.947,-2.009,-2.0947,-2.1601,-2.1781,-2.1797,-2.1797,-2.1797,-2.1631,-2.157,-2.1664,-2.1587,-2.1509,-2.1464,-2.157,-2.1661,-2.1781,-2.1899,-2.194,-2.194,-2.2044,-2.2186,-2.2364,-2.2364,-2.2527,-2.2842,-2.291,-2.3098,2.5269,2.4658,0.0,2.4337,2.367,0.0,2.4306,0.0,2.4321,0.0,0.0,0.0,0.0,0.0,0.0,0.0,0.0,0.0,0.0,2.7858,2.8385,2.9287,2.8519,2.7731,2.7265,2.7216,2.6444,2.453,2.5073,2.48,2.3241,2.317,2.3122,2.3025,2.3091,2.3017,2.2841,2.2927,2.2944,2.285,2.2738,2.1825,2.0267,2.1049,1.9965,1.7526,1.8241,1.7876,1.6773,1.6725,1.6335,1.5755,1.5743,1.5503,1.4722,1.1113,0.6378,0.1738,0.1587,-0.2018,-0.6694,-0.7254,-1.1335,-1.6151,-1.667,-1.851,-2.0392,-2.0289,-2.0254,-2.0254,-2.0323,-2.0239,-2.0077,-1.9893,-1.9936,-1.9975,-1.9699,-1.9573,-1.947,-1.9383,-1.8779,-1.8387,-1.8747,-1.8958,-1.9365,-2.0143,-2.0823,-2.1308,-2.1462,-2.1462,-2.1479,-2.1448,-2.123,-2.1183,-2.1371,-2.1214,-2.1119,-2.1039,-2.1119,-2.1214,-2.1308,-2.1401,-2.1509,-2.1617,-2.1738,-2.1899,-2.2068,-2.2068,-2.2169,-2.2371,-2.2371,-2.259]}]]